[[{"header":{"parameterUnit":"m.s-1","parameterCategory":1,"la1":31.0,"la2":29.5877,"lo1":-88.7671,"lo2":-86.6584,"dy":0.0162,"dx":0.0185,"nx":115,"ny":88,"refTime":"2026-04-10T12:00:00:Z","depth":0,"parameterNumber":2,"parameterNumberName":"U-component_of_WINDS"},"data":[0.0,0.0,0.0,0.0,0.0,0.0,0.0,0.0,0.0,0.0,0.0,0.0,0.0,0.0,0.0,0.0,0.0,0.0,0.0,0.0,0.0,0.0,0.0,0.0,0.0,0.0,0.0,0.0,0.0,0.0,0.0,0.0,0.0,0.0,0.0,0.0,0.0,0.0,0.0,0.0,0.0,0.0,0.0,0.0,0.0,0.0,0.0,0.0,0.0,0.0,0.0,0.0,0.0,0.0,0.0,0.0,0.0,0.0,0.0,0.0,0.0,0.0,0.0,0.0,0.0,0.0,0.0,0.0,0.0,0.0,0.0,0.0,0.0,0.0,0.0,0.0,0.0,0.0,0.0,0.0,0.0,0.0,0.0,0.0,0.0,0.0,0.0,0.0,0.0,0.0,0.0,0.0,0.0,0.0,0.0,0.0,0.0,0.0,0.0,0.0,0.0,0.0,0.0,0.0,0.0,0.0,0.0,0.0,0.0,0.0,0.0,0.0,0.0,0.0,0.0,0.0,0.0,0.0,0.0,0.0,0.0,0.0,0.0,0.0,0.0,0.0,0.0,0.0,0.0,0.0,0.0,0.0,0.0,0.0,0.0,0.0,0.0,0.0,0.0,0.0,0.0,0.0,0.0,0.0,0.0,0.0,0.0,0.0,0.0,0.0,0.0,0.0,0.0,0.0,0.0,0.0,0.0,0.0,0.0,0.0,0.0,0.0,0.0,0.0,0.0,0.0,0.0,0.0,0.0,0.0,0.0,0.0,0.0,0.0,0.0,0.0,0.0,0.0,0.0,0.0,0.0,0.0,0.0,0.0,0.0,0.0,0.0,0.0,0.0,0.0,0.0,0.0,0.0,0.0,0.0,0.0,0.0,0.0,0.0,0.0,0.0,0.0,0.0,0.0,0.0,0.0,0.0,0.0,0.0,0.0,0.0,0.0,0.0,0.0,0.0,0.0,0.0,0.0,0.0,0.0,0.0,0.0,0.0,0.0,0.0,0.0,0.0,0.0,0.0,0.0,0.0,0.0,0.0,0.0,0.0,0.0,0.0,0.0,0.0,0.0,0.0,0.0,0.0,0.0,0.0,0.0,0.0,0.0,0.0,0.0,0.0,0.0,0.0,0.0,0.0,0.0,0.0,0.0,0.0,0.0,0.0,0.0,0.0,0.0,0.0,0.0,0.0,0.0,0.0,0.0,0.0,0.0,0.0,0.0,0.0,0.0,0.0,0.0,0.0,0.0,0.0,0.0,0.0,0.0,0.0,0.0,0.0,0.0,0.0,0.0,0.0,0.0,0.0,0.0,0.0,0.0,0.0,0.0,0.0,0.0,0.0,0.0,0.0,0.0,0.0,0.0,0.0,0.0,0.0,0.0,0.0,0.0,0.0,0.0,0.0,0.0,0.0,0.0,0.0,0.0,0.0,0.0,0.0,0.0,0.0,0.0,0.0,0.0,0.0,0.0,0.0,0.0,0.0,0.0,0.0,0.0,0.0,0.0,0.0,0.0,0.0,0.0,0.0,0.0,0.0,0.0,0.0,0.0,0.0,0.0,0.0,0.0,0.0,0.0,0.0,0.0,0.0,0.0,0.0,0.0,0.0,0.0,0.0,0.0,0.0,0.0,0.0,0.0,0.0,0.0,0.0,0.0,0.0,0.0,0.0,0.0,0.0,0.0,0.0,0.0,0.0,0.0,0.0,0.0,0.0,0.0,0.0,0.0,0.0,0.0,0.0,0.0,0.0,0.0,0.0,0.0,0.0,0.0,0.0,0.0,0.0,0.0,0.0,0.0,0.0,0.0,0.0,0.0,0.0,0.0,0.0,0.0,0.0,0.0,0.0,0.0,0.0,0.0,0.0,0.0,0.0,0.0,0.0,0.0,0.0,0.0,0.0,0.0,0.0,0.0,0.0,0.0,0.0,0.0,0.0,0.0,0.0,0.0,0.0,0.0,0.0,0.0,0.0,0.0,0.0,0.0,0.0,0.0,0.0,0.0,0.0,0.0,0.0,0.0,0.0,0.0,0.0,0.0,0.0,0.0,0.0,0.0,0.0,0.0,0.0,0.0,0.0,0.0,0.0,0.0,0.0,0.0,0.0,0.0,0.0,0.0,0.0,0.0,0.0,0.0,0.0,0.0,0.0,0.0,0.0,0.0,0.0,0.0,0.0,0.0,0.0,0.0,0.0,0.0,0.0,0.0,0.0,0.0,0.0,0.0,0.0,0.0,0.0,0.0,0.0,0.0,0.0,0.0,0.0,0.0,0.0,0.0,0.0,0.0,0.0,0.0,0.0,0.0,0.0,0.0,0.0,0.0,0.0,0.0,0.0,0.0,0.0,0.0,0.0,0.0,0.0,0.0,0.0,0.0,0.0,0.0,0.0,0.0,0.0,0.0,0.0,0.0,0.0,0.0,0.0,0.0,0.0,0.0,0.0,0.0,0.0,0.0,0.0,0.0,0.0,0.0,0.0,0.0,0.0,0.0,0.0,0.0,0.0,0.0,0.0,0.0,0.0,0.0,0.0,0.0,0.0,0.0,0.0,0.0,0.0,0.0,0.0,0.0,0.0,0.0,0.0,0.0,0.0,0.0,0.0,0.0,0.0,0.0,0.0,0.0,0.0,0.0,0.0,0.0,0.0,0.0,0.0,0.0,0.0,0.0,0.0,0.0,0.0,0.0,0.0,0.0,0.0,0.0,0.0,0.0,0.0,0.0,0.0,0.0,0.0,0.0,0.0,0.0,0.0,0.0,0.0,0.0,0.0,0.0,0.0,0.0,0.0,0.0,0.0,0.0,0.0,0.0,0.0,0.0,0.0,0.0,0.0,0.0,0.0,0.0,0.0,0.0,0.0,0.0,0.0,0.0,0.0,0.0,0.0,0.0,0.0,0.0,0.0,0.0,0.0,0.0,0.0,0.0,0.0,0.0,0.0,0.0,0.0,0.0,0.0,0.0,0.0,0.0,0.0,0.0,0.0,0.0,0.0,0.0,0.0,0.0,0.0,0.0,0.0,0.0,0.0,0.0,0.0,0.0,0.0,0.0,0.0,0.0,0.0,0.0,0.0,0.0,0.0,0.0,0.0,0.0,0.0,0.0,0.0,0.0,0.0,0.0,0.0,0.0,0.0,0.0,0.0,0.0,0.0,0.0,0.0,0.0,0.0,0.0,0.0,0.0,0.0,0.0,0.0,0.0,0.0,0.0,0.0,0.0,0.0,0.0,0.0,0.0,0.0,0.0,0.0,0.0,0.0,0.0,0.0,0.0,0.0,0.0,0.0,0.0,0.0,0.0,0.0,0.0,0.0,0.0,0.0,0.0,0.0,0.0,0.0,0.0,0.0,0.0,0.0,0.0,0.0,0.0,0.0,0.0,0.0,0.0,0.0,0.0,0.0,0.0,0.0,0.0,0.0,0.0,0.0,0.0,0.0,0.0,0.0,0.0,0.0,0.0,0.0,0.0,0.0,0.0,0.0,0.0,0.0,0.0,0.0,0.0,0.0,0.0,0.0,0.0,0.0,0.0,0.0,0.0,0.0,0.0,0.0,0.0,0.0,0.0,0.0,0.0,0.0,0.0,0.0,0.0,0.0,0.0,0.0,0.0,0.0,0.0,0.0,0.0,0.0,0.0,0.0,0.0,0.0,0.0,0.0,0.0,0.0,0.0,0.0,0.0,0.0,0.0,0.0,0.0,0.0,0.0,0.0,0.0,0.0,0.0,0.0,0.0,0.0,0.0,0.0,0.0,0.0,0.0,0.0,0.0,0.0,0.0,0.0,0.0,0.0,0.0,0.0,0.0,0.0,0.0,0.0,0.0,0.0,0.0,0.0,0.0,0.0,0.0,0.0,0.0,0.0,0.0,0.0,0.0,0.0,0.0,0.0,0.0,0.0,0.0,0.0,0.0,0.0,0.0,0.0,0.0,0.0,0.0,0.0,0.0,0.0,0.0,0.0,0.0,0.0,0.0,0.0,0.0,0.0,0.0,0.0,0.0,0.0,0.0,0.0,0.0,0.0,0.0,0.0,0.0,0.0,0.0,0.0,0.0,0.0,0.0,0.0,0.0,0.0,0.0,0.0,0.0,0.0,0.0,0.0,0.0,0.0,0.0,0.0,0.0,0.0,0.0,0.0,0.0,0.0,0.0,0.0,0.0,0.0,0.0,0.0,0.0,0.0,0.0,0.0,0.0,0.0,0.0,0.0,0.0,0.0,0.0,0.0,0.0,0.0,0.0,0.0,0.0,0.0,0.0,0.0,0.0,0.0,0.0,0.0,0.0,0.0,0.0,-0.9801,0.0,0.0,0.0,0.0,0.0,0.0,0.0,0.0,0.0,0.0,0.0,0.0,0.0,0.0,0.0,0.0,0.0,0.0,0.0,0.0,0.0,0.0,0.0,0.0,0.0,0.0,0.0,0.0,0.0,0.0,0.0,0.0,0.0,0.0,0.0,0.0,0.0,0.0,0.0,0.0,0.0,0.0,0.0,0.0,0.0,0.0,0.0,0.0,0.0,0.0,0.0,0.0,0.0,0.0,0.0,0.0,0.0,0.0,0.0,0.0,0.0,0.0,0.0,0.0,0.0,0.0,0.0,0.0,0.0,0.0,0.0,0.0,0.0,0.0,0.0,0.0,0.0,0.0,0.0,0.0,0.0,0.0,0.0,0.0,0.0,0.0,0.0,0.0,0.0,0.0,0.0,0.0,0.0,0.0,0.0,0.0,0.0,0.0,0.0,0.0,0.0,0.0,0.0,0.0,0.0,0.0,0.0,0.0,0.0,0.0,-0.9801,-0.9801,-0.9801,-0.9801,-0.9801,0.0,0.0,0.0,0.0,0.0,0.0,0.0,0.0,0.0,0.0,0.0,0.0,0.0,0.0,0.0,0.0,0.0,0.0,0.0,0.0,0.0,0.0,0.0,0.0,0.0,0.0,0.0,0.0,0.0,0.0,0.0,0.0,0.0,0.0,0.0,0.0,0.0,0.0,0.0,0.0,0.0,0.0,0.0,0.0,0.0,0.0,0.0,0.0,0.0,0.0,0.0,0.0,0.0,0.0,0.0,0.0,0.0,0.0,0.0,0.0,0.0,0.0,0.0,0.0,0.0,0.0,0.0,0.0,0.0,0.0,0.0,0.0,0.0,0.0,0.0,0.0,0.0,0.0,0.0,0.0,0.0,0.0,0.0,0.0,0.0,0.0,0.0,0.0,0.0,0.0,0.0,0.0,0.0,0.0,0.0,0.0,0.0,0.0,0.0,0.0,0.0,0.0,0.0,0.0,0.0,0.0,0.0,0.0,0.0,0.0,0.0,0.0,-0.9711,-0.9801,-0.9801,0.0,0.0,0.0,0.0,0.0,0.0,0.0,0.0,0.0,0.0,0.0,0.0,0.0,0.0,0.0,0.0,0.0,0.0,0.0,0.0,0.0,0.0,0.0,0.0,0.0,0.0,0.0,0.0,0.0,0.0,0.0,0.0,0.0,0.0,0.0,0.0,0.0,0.0,0.0,0.0,0.0,0.0,0.0,0.0,0.0,0.0,0.0,0.0,0.0,0.0,0.0,0.0,0.0,0.0,0.0,0.0,0.0,0.0,0.0,0.0,0.0,0.0,0.0,0.0,0.0,0.0,0.0,0.0,0.0,0.0,0.0,0.0,0.0,0.0,0.0,0.0,0.0,0.0,0.0,0.0,0.0,0.0,0.0,0.0,0.0,0.0,0.0,0.0,0.0,0.0,0.0,0.0,0.0,0.0,0.0,0.0,0.0,0.0,0.0,0.0,0.0,0.0,0.0,0.0,0.0,0.0,0.0,0.0,0.0,0.0,-0.8709,-0.873,-0.9433,0.0,-0.9801,0.0,0.0,0.0,0.0,0.0,0.0,0.0,0.0,0.0,0.0,0.0,0.0,0.0,0.0,0.0,0.0,0.0,0.0,0.0,0.0,0.0,0.0,0.0,0.0,0.0,0.0,0.0,0.0,0.0,0.0,0.0,0.0,0.0,0.0,0.0,0.0,0.0,0.0,0.0,0.0,0.0,0.0,0.0,0.0,0.0,0.0,0.0,0.0,0.0,0.0,0.0,0.0,0.0,0.0,0.0,0.0,0.0,0.0,0.0,0.0,0.0,0.0,0.0,0.0,0.0,0.0,0.0,0.0,0.0,0.0,0.0,0.0,0.0,0.0,0.0,0.0,0.0,0.0,0.0,0.0,0.0,0.0,0.0,0.0,0.0,0.0,0.0,0.0,0.0,0.0,0.0,0.0,0.0,0.0,0.0,0.0,0.0,0.0,0.0,0.0,0.0,0.0,0.0,0.0,0.0,0.0,0.0,0.0,0.0,0.0,-0.8761,-0.9242,-1.0028,-1.0231,0.0,0.0,0.0,0.0,0.0,0.0,0.0,0.0,0.0,0.0,0.0,0.0,0.0,0.0,0.0,0.0,0.0,0.0,0.0,0.0,0.0,0.0,0.0,0.0,0.0,0.0,0.0,0.0,0.0,0.0,0.0,0.0,0.0,0.0,0.0,0.0,0.0,0.0,0.0,0.0,0.0,0.0,0.0,0.0,0.0,0.0,0.0,0.0,0.0,0.0,0.0,0.0,0.0,0.0,0.0,0.0,0.0,0.0,0.0,0.0,0.0,0.0,0.0,0.0,0.0,0.0,0.0,0.0,0.0,0.0,0.0,0.0,0.0,0.0,0.0,0.0,0.0,0.0,0.0,0.0,0.0,0.0,0.0,0.0,0.0,0.0,0.0,0.0,0.0,0.0,0.0,0.0,0.0,0.0,0.0,0.0,0.0,0.0,0.0,0.0,0.0,0.0,0.0,0.0,0.0,0.0,0.0,0.0,0.0,0.0,-0.8175,-0.8652,-0.9651,-1.0268,-1.0305,-0.9725,0.0,0.0,0.0,0.0,0.0,0.0,0.0,0.0,0.0,0.0,0.0,0.0,0.0,0.0,0.0,0.0,0.0,0.0,0.0,0.0,0.0,0.0,0.0,0.0,0.0,0.0,0.0,0.0,0.0,0.0,0.0,0.0,0.0,0.0,0.0,0.0,0.0,0.0,0.0,0.0,0.0,0.0,0.0,0.0,0.0,0.0,0.0,0.0,0.0,0.0,0.0,0.0,0.0,0.0,0.0,0.0,0.0,0.0,0.0,0.0,0.0,0.0,0.0,0.0,0.0,0.0,0.0,0.0,0.0,0.0,0.0,0.0,0.0,0.0,0.0,0.0,0.0,0.0,0.0,0.0,0.0,0.0,0.0,0.0,0.0,0.0,0.0,0.0,0.0,0.0,0.0,0.0,0.0,0.0,0.0,0.0,0.0,0.0,0.0,0.0,0.0,0.0,0.0,0.0,0.0,0.0,0.0,0.0,-0.7374,-0.7411,-0.8132,-0.9651,-0.9739,-0.9739,0.0,0.0,0.0,0.0,0.0,0.0,0.0,0.0,0.0,0.0,0.0,0.0,0.0,0.0,0.0,0.0,0.0,0.0,0.0,0.0,0.0,0.0,0.0,0.0,0.0,0.0,0.0,0.0,0.0,0.0,0.0,0.0,0.0,0.0,0.0,0.0,0.0,0.0,0.0,0.0,0.0,0.0,0.0,0.0,0.0,0.0,0.0,0.0,0.0,0.0,0.0,0.0,0.0,0.0,0.0,0.0,0.0,0.0,0.0,0.0,0.0,0.0,0.0,0.0,0.0,0.0,0.0,0.0,0.0,0.0,0.0,0.0,0.0,0.0,0.0,0.0,0.0,0.0,0.0,0.0,0.0,0.0,0.0,0.0,0.0,0.0,0.0,0.0,0.0,0.0,0.0,0.0,0.0,0.0,0.0,0.0,0.0,0.0,0.0,0.0,0.0,0.0,0.0,0.0,0.0,0.0,0.0,0.0,0.0,-0.8095,-0.8579,-0.9095,-0.9688,-1.0192,-1.0229,0.0,0.0,0.0,0.0,0.0,0.0,0.0,0.0,0.0,0.0,0.0,0.0,0.0,0.0,0.0,0.0,0.0,0.0,0.0,0.0,0.0,0.0,0.0,0.0,0.0,0.0,0.0,0.0,0.0,0.0,0.0,0.0,0.0,0.0,0.0,0.0,0.0,0.0,0.0,0.0,0.0,0.0,0.0,0.0,0.0,0.0,0.0,0.0,0.0,0.0,0.0,0.0,0.0,0.0,0.0,0.0,0.0,0.0,0.0,0.0,0.0,0.0,0.0,0.0,0.0,0.0,0.0,0.0,0.0,0.0,0.0,0.0,0.0,0.0,0.0,0.0,0.0,0.0,0.0,0.0,0.0,0.0,0.0,0.0,0.0,0.0,0.0,0.0,0.0,0.0,0.0,0.0,0.0,0.0,0.0,0.0,0.0,0.0,0.0,0.0,0.0,0.0,0.0,0.0,0.0,0.0,0.0,0.0,0.0,-0.8516,0.0,-0.9426,-0.972,-1.0227,-1.0264,0.0,0.0,0.0,0.0,0.0,0.0,0.0,0.0,0.0,0.0,0.0,0.0,0.0,0.0,0.0,0.0,0.0,0.0,0.0,0.0,0.0,0.0,0.0,0.0,0.0,0.0,0.0,0.0,0.0,0.0,0.0,0.0,0.0,0.0,0.0,0.0,0.0,0.0,0.0,0.0,0.0,0.0,0.0,0.0,0.0,0.0,0.0,0.0,0.0,0.0,0.0,0.0,0.0,0.0,0.0,0.0,0.0,0.0,0.0,0.0,0.0,0.0,0.0,0.0,0.0,0.0,0.0,0.0,0.0,0.0,0.0,0.0,0.0,0.0,0.0,0.0,0.0,0.0,0.0,0.0,0.0,0.0,0.0,0.0,0.0,0.0,0.0,0.0,0.0,0.0,0.0,0.0,0.0,0.0,0.0,0.0,0.0,0.0,0.0,0.0,0.0,0.0,0.0,0.0,0.0,0.0,0.0,0.0,-0.8568,-0.8534,-0.8626,-0.9048,-0.9698,-0.9772,-0.9735,0.0,0.0,0.0,0.0,0.0,0.0,0.0,0.0,0.0,0.0,0.0,0.0,0.0,0.0,0.0,0.0,0.0,0.0,0.0,0.0,0.0,0.0,0.0,0.0,0.0,0.0,0.0,0.0,0.0,0.0,0.0,0.0,0.0,0.0,0.0,0.0,0.0,0.0,0.0,0.0,0.0,0.0,0.0,0.0,0.0,0.0,0.0,0.0,0.0,0.0,0.0,0.0,0.0,0.0,0.0,0.0,0.0,0.0,0.0,0.0,0.0,0.0,0.0,0.0,0.0,0.0,0.0,0.0,0.0,0.0,0.0,0.0,0.0,0.0,0.0,0.0,0.0,0.0,0.0,0.0,0.0,0.0,0.0,0.0,0.0,0.0,0.0,0.0,0.0,0.0,0.0,0.0,0.0,0.0,0.0,0.0,0.0,0.0,0.0,0.0,0.0,0.0,0.0,0.0,0.0,0.0,0.0,0.0,0.0,-1.0196,-1.0696,-1.0828,-1.0549,-1.0531,-1.026,0.0,0.0,0.0,0.0,0.0,0.0,0.0,0.0,0.0,0.0,0.0,0.0,0.0,0.0,0.0,0.0,0.0,0.0,0.0,0.0,0.0,0.0,0.0,0.0,0.0,0.0,0.0,0.0,0.0,0.0,0.0,0.0,0.0,0.0,0.0,0.0,0.0,0.0,0.0,0.0,0.0,0.0,0.0,0.0,0.0,0.0,0.0,0.0,0.0,0.0,0.0,0.0,0.0,0.0,0.0,0.0,0.0,0.0,0.0,0.0,0.0,0.0,0.0,0.0,0.0,0.0,0.0,0.0,0.0,0.0,0.0,0.0,0.0,0.0,0.0,0.0,0.0,0.0,0.0,0.0,0.0,0.0,0.0,0.0,0.0,0.0,0.0,0.0,0.0,0.0,0.0,0.0,0.0,0.0,0.0,0.0,0.0,0.0,0.0,0.0,0.0,0.0,0.0,0.0,0.0,0.0,0.0,0.0,0.0,-1.225,-1.2444,-1.2168,-1.1375,-1.1058,-1.0655,-1.0168,0.0,0.0,0.0,0.0,0.0,0.0,0.0,0.0,0.0,0.0,0.0,0.0,0.0,0.0,0.0,0.0,0.0,0.0,0.0,0.0,0.0,0.0,0.0,0.0,0.0,0.0,0.0,0.0,0.0,0.0,0.0,0.0,0.0,0.0,0.0,0.0,0.0,0.0,0.0,0.0,0.0,0.0,0.0,0.0,0.0,0.0,0.0,0.0,0.0,0.0,0.0,0.0,0.0,0.0,0.0,0.0,0.0,0.0,0.0,0.0,0.0,0.0,0.0,0.0,0.0,0.0,0.0,0.0,0.0,0.0,0.0,0.0,0.0,0.0,0.0,0.0,0.0,0.0,0.0,0.0,0.0,0.0,0.0,0.0,0.0,0.0,0.0,0.0,0.0,0.0,0.0,0.0,0.0,0.0,0.0,0.0,0.0,0.0,0.0,0.0,0.0,0.0,0.0,0.0,0.0,0.0,0.0,0.0,-1.4689,-1.4046,-1.3256,-1.2283,-1.1466,-1.0999,0.0,0.0,0.0,0.0,0.0,0.0,0.0,0.0,0.0,0.0,0.0,0.0,0.0,0.0,0.0,0.0,0.0,0.0,0.0,0.0,0.0,0.0,0.0,0.0,0.0,0.0,0.0,0.0,0.0,0.0,0.0,0.0,0.0,0.0,0.0,0.0,0.0,0.0,0.0,0.0,0.0,0.0,0.0,0.0,0.0,0.0,0.0,0.0,0.0,0.0,0.0,0.0,0.0,0.0,0.0,0.0,0.0,0.0,0.0,0.0,0.0,0.0,0.0,0.0,0.0,0.0,0.0,0.0,0.0,0.0,0.0,0.0,0.0,0.0,0.0,0.0,0.0,0.0,0.0,0.0,0.0,0.0,0.0,0.0,0.0,0.0,0.0,0.0,0.0,0.0,0.0,0.0,0.0,0.0,0.0,0.0,0.0,0.0,0.0,0.0,0.0,0.0,0.0,0.0,0.0,0.0,0.0,0.0,0.0,-1.7117,-1.8108,-1.7117,-1.4004,-1.3109,-1.2095,0.0,0.0,0.0,0.0,0.0,0.0,0.0,0.0,0.0,0.0,0.0,0.0,0.0,0.0,0.0,0.0,0.0,0.0,0.0,0.0,0.0,0.0,0.0,0.0,0.0,0.0,0.0,0.0,0.0,0.0,0.0,0.0,0.0,0.0,0.0,0.0,0.0,0.0,0.0,0.0,0.0,0.0,0.0,0.0,0.0,0.0,0.0,0.0,0.0,0.0,0.0,0.0,0.0,0.0,0.0,0.0,0.0,0.0,0.0,0.0,0.0,0.0,0.0,0.0,0.0,0.0,0.0,0.0,0.0,0.0,0.0,0.0,0.0,0.0,0.0,0.0,0.0,0.0,0.0,0.0,0.0,0.0,0.0,0.0,0.0,0.0,0.0,0.0,0.0,0.0,0.0,0.0,0.0,0.0,0.0,0.0,0.0,0.0,0.0,0.0,0.0,0.0,0.0,0.0,0.0,0.0,0.0,0.0,-1.6653,-1.8555,-2.0207,-1.9594,-1.6591,-1.4756,-1.3049,0.0,0.0,0.0,0.0,0.0,0.0,0.0,0.0,0.0,0.0,0.0,0.0,0.0,0.0,0.0,0.0,0.0,0.0,0.0,0.0,0.0,0.0,0.0,0.0,0.0,0.0,0.0,0.0,0.0,0.0,0.0,0.0,0.0,0.0,0.0,0.0,0.0,0.0,0.0,0.0,0.0,0.0,0.0,0.0,0.0,0.0,0.0,0.0,0.0,0.0,0.0,0.0,0.0,0.0,0.0,0.0,0.0,0.0,0.0,0.0,0.0,0.0,0.0,0.0,0.0,0.0,0.0,0.0,0.0,0.0,0.0,0.0,0.0,0.0,0.0,0.0,0.0,0.0,0.0,0.0,0.0,0.0,0.0,0.0,0.0,0.0,0.0,0.0,0.0,0.0,0.0,0.0,0.0,0.0,0.0,0.0,0.0,0.0,0.0,0.0,0.0,0.0,0.0,0.0,0.0,0.0,0.0,0.0,-1.7174,-1.9635,-2.1225,-2.1206,-1.9426,-1.6408,-1.395,0.0,0.0,0.0,0.0,0.0,0.0,0.0,0.0,0.0,0.0,0.0,0.0,0.0,0.0,0.0,0.0,0.0,0.0,0.0,0.0,0.0,0.0,0.0,0.0,0.0,0.0,0.0,0.0,0.0,0.0,0.0,0.0,0.0,0.0,0.0,0.0,0.0,0.0,0.0,0.0,0.0,0.0,0.0,0.0,0.0,0.0,0.0,0.0,0.0,0.0,0.0,0.0,0.0,0.0,0.0,0.0,0.0,0.0,0.0,0.0,0.0,0.0,0.0,0.0,0.0,0.0,0.0,0.0,0.0,0.0,0.0,0.0,0.0,0.0,0.0,0.0,0.0,0.0,0.0,0.0,0.0,0.0,0.0,0.0,0.0,0.0,0.0,0.0,0.0,0.0,0.0,0.0,0.0,0.0,0.0,0.0,0.0,0.0,0.0,0.0,0.0,0.0,0.0,0.0,0.0,0.0,0.0,0.0,-1.9151,-2.213,-2.3189,-2.2593,-2.0291,-1.7752,-1.5325,0.0,0.0,0.0,0.0,0.0,0.0,0.0,0.0,0.0,0.0,0.0,0.0,0.0,0.0,0.0,0.0,0.0,0.0,0.0,0.0,0.0,0.0,0.0,0.0,0.0,0.0,0.0,0.0,0.0,0.0,0.0,0.0,0.0,0.0,0.0,0.0,0.0,0.0,0.0,0.0,0.0,0.0,0.0,0.0,0.0,0.0,0.0,0.0,-0.4832,0.0,0.0,0.0,0.0,0.0,0.0,0.0,0.0,0.0,0.0,0.0,0.0,0.0,0.0,0.0,0.0,0.0,0.0,0.0,0.0,0.0,0.0,0.0,0.0,0.0,0.0,0.0,0.0,0.0,0.0,0.0,0.0,0.0,0.0,0.0,0.0,0.0,0.0,0.0,0.0,0.0,0.0,0.0,0.0,0.0,0.0,0.0,0.0,0.0,0.0,0.0,0.0,0.0,0.0,0.0,0.0,0.0,0.0,0.0,-2.0178,-2.2956,-2.3796,-2.34,-2.1703,-1.9659,-1.692,0.0,0.0,0.0,0.0,0.0,0.0,0.0,0.0,0.0,0.0,0.0,0.0,0.0,0.0,0.0,0.0,0.0,0.0,0.0,0.0,0.0,0.0,0.0,0.0,0.0,0.0,0.0,0.0,0.0,0.0,0.0,0.0,0.0,0.0,0.0,0.0,0.0,0.0,0.0,0.0,0.0,0.0,0.0,0.0,0.0,0.0,0.0,0.0,0.0,0.0,0.0,0.0,0.0,0.0,0.0,0.0,0.0,0.0,0.0,0.0,0.0,0.0,0.0,0.0,0.0,0.0,0.0,0.0,0.0,0.0,0.0,0.0,0.0,0.0,0.0,0.0,0.0,0.0,0.0,0.0,0.0,0.0,0.0,0.0,0.0,0.0,0.0,0.0,0.0,0.0,0.0,0.0,0.0,0.0,0.0,0.0,0.0,0.0,0.0,0.0,0.0,0.0,0.0,0.0,0.0,0.0,0.0,-1.8879,-2.0841,-2.3185,-2.3879,-2.3804,-2.3006,-2.1373,-1.8324,-1.3777,0.0,0.0,0.0,0.0,0.0,0.0,0.0,0.0,0.0,0.0,0.0,0.0,0.0,0.0,0.0,0.0,0.0,0.0,0.0,0.0,0.0,0.0,0.0,0.0,0.0,0.0,0.0,0.0,0.0,0.0,0.0,0.0,0.0,0.0,0.0,0.0,0.0,0.0,-0.5073,-0.6367,0.0,0.0,0.0,0.0,0.0,0.0,0.0,0.0,-0.5607,0.0,0.0,0.0,0.0,0.0,0.0,0.0,0.0,0.0,0.0,0.0,0.0,0.0,0.0,0.0,0.0,0.0,0.0,0.0,0.0,0.0,0.0,0.0,0.0,0.0,0.0,0.0,0.0,0.0,0.0,0.0,0.0,0.0,0.0,0.0,0.0,0.0,0.0,0.0,0.0,0.0,0.0,0.0,0.0,0.0,0.0,0.0,0.0,0.0,0.0,0.0,0.0,0.0,0.0,0.0,0.0,-1.8079,-1.9692,-2.1673,-2.4017,-2.4164,-2.3804,-2.3006,-2.1365,-1.8829,-1.5385,0.0,0.0,0.0,0.0,0.0,0.0,0.0,0.0,0.0,0.0,0.0,0.0,0.0,0.0,0.0,0.0,0.0,0.0,0.0,0.0,0.0,0.0,0.0,0.0,0.0,0.0,0.0,0.0,0.0,0.0,0.0,0.0,0.0,0.0,0.0,0.0,0.0,0.0,0.0,-0.6703,-0.7281,0.0,0.0,0.0,0.0,0.0,0.0,0.0,0.0,-0.5735,0.0,0.0,0.0,0.0,0.0,0.0,0.0,0.0,0.0,0.0,0.0,0.0,0.0,0.0,0.0,0.0,0.0,0.0,0.0,0.0,0.0,0.0,0.0,0.0,0.0,0.0,0.0,0.0,0.0,0.0,0.0,0.0,0.0,0.0,0.0,0.0,0.0,0.0,0.0,0.0,0.0,0.0,0.0,0.0,0.0,0.0,0.0,0.0,0.0,0.0,0.0,0.0,0.0,0.0,0.0,-1.8859,-2.0552,-2.2311,-2.422,-2.4652,-2.4254,-2.3024,-2.1365,-1.9182,0.0,0.0,0.0,0.0,0.0,0.0,0.0,0.0,0.0,0.0,0.0,0.0,0.0,0.0,0.0,0.0,0.0,0.0,0.0,0.0,0.0,0.0,0.0,0.0,0.0,0.0,0.0,0.0,0.0,0.0,0.0,0.0,0.0,0.0,0.0,0.0,0.0,0.0,0.0,0.0,-0.7524,-0.802,-0.8026,0.0,0.0,0.0,0.0,0.0,0.0,-0.6672,-0.6521,0.0,0.0,0.0,0.0,0.0,0.0,0.0,0.0,0.0,0.0,0.0,0.0,0.0,0.0,0.0,0.0,0.0,0.0,0.0,0.0,0.0,0.0,0.0,0.0,0.0,0.0,0.0,0.0,0.0,0.0,0.0,0.0,0.0,0.0,0.0,0.0,0.0,0.0,0.0,0.0,0.0,0.0,0.0,0.0,0.0,0.0,0.0,0.0,0.0,0.0,0.0,0.0,0.0,0.0,0.0,-1.9513,-2.1323,-2.2895,-2.4248,-2.501,-2.4713,-2.3263,-2.1447,-1.9366,0.0,0.0,0.0,0.0,0.0,0.0,0.0,0.0,0.0,0.0,0.0,0.0,0.0,0.0,0.0,0.0,0.0,0.0,0.0,0.0,0.0,0.0,0.0,0.0,0.0,0.0,0.0,0.0,0.0,0.0,0.0,0.0,0.0,0.0,0.0,0.0,0.0,0.0,0.0,0.0,0.0,-0.8722,-0.884,-0.9395,0.0,0.0,0.0,0.0,-0.7711,-0.7687,0.0,0.0,0.0,0.0,0.0,0.0,0.0,0.0,0.0,0.0,0.0,0.0,0.0,0.0,0.0,0.0,0.0,0.0,0.0,0.0,0.0,0.0,0.0,0.0,0.0,0.0,0.0,0.0,0.0,0.0,0.0,0.0,0.0,0.0,0.0,0.0,0.0,0.0,0.0,0.0,0.0,0.0,0.0,0.0,0.0,0.0,0.0,0.0,0.0,0.0,0.0,0.0,0.0,0.0,0.0,0.0,-1.9479,-2.1799,-2.338,-2.4192,-2.5,-2.497,-2.4061,-2.174,-1.9358,0.0,0.0,0.0,0.0,0.0,0.0,0.0,0.0,0.0,0.0,0.0,0.0,0.0,0.0,0.0,0.0,0.0,0.0,0.0,0.0,0.0,0.0,0.0,0.0,0.0,0.0,0.0,0.0,0.0,0.0,0.0,0.0,0.0,0.0,0.0,0.0,0.0,0.0,0.0,0.0,0.0,-0.8899,-0.9637,-0.9775,-0.9768,0.0,0.0,-1.0203,-0.868,-0.8993,0.0,0.0,0.0,0.0,0.0,0.0,0.0,0.0,0.0,0.0,0.0,0.0,0.0,0.0,0.0,0.0,0.0,0.0,0.0,0.0,0.0,0.0,0.0,0.0,0.0,0.0,0.0,0.0,0.0,0.0,0.0,0.0,0.0,0.0,0.0,0.0,0.0,0.0,0.0,0.0,0.0,0.0,0.0,0.0,0.0,0.0,0.0,0.0,0.0,0.0,0.0,0.0,0.0,0.0,0.0,-1.6956,-1.9368,-2.1809,-2.3419,-2.42,-2.5411,-2.5273,-2.3566,-2.2024,-1.9869,0.0,0.0,0.0,0.0,0.0,0.0,0.0,0.0,0.0,0.0,0.0,0.0,0.0,0.0,0.0,0.0,0.0,0.0,0.0,0.0,0.0,0.0,0.0,0.0,0.0,0.0,0.0,0.0,0.0,0.0,0.0,0.0,0.0,0.0,0.0,0.0,0.0,0.0,0.0,0.0,0.0,0.0,-0.9835,-0.9897,0.0,0.0,0.0,-1.101,-1.0778,0.0,0.0,0.0,0.0,0.0,0.0,0.0,0.0,0.0,0.0,0.0,0.0,0.0,0.0,0.0,0.0,0.0,0.0,0.0,0.0,0.0,0.0,0.0,0.0,0.0,0.0,0.0,0.0,0.0,0.0,0.0,0.0,0.0,0.0,0.0,0.0,0.0,0.0,0.0,0.0,0.0,0.0,0.0,0.0,0.0,0.0,0.0,0.0,0.0,0.0,0.0,0.0,0.0,0.0,0.0,0.0,0.0,-1.9297,-2.1932,-2.3602,-2.4208,-2.5566,-2.5346,-2.3354,-2.2345,0.0,0.0,0.0,0.0,0.0,0.0,0.0,0.0,0.0,0.0,0.0,0.0,0.0,0.0,0.0,0.0,0.0,0.0,0.0,0.0,0.0,0.0,0.0,0.0,0.0,0.0,0.0,-0.4885,0.0,0.0,0.0,0.0,0.0,0.0,0.0,0.0,0.0,0.0,0.0,0.0,0.0,0.0,-1.0042,-0.9924,-1.0247,-1.0765,0.0,0.0,-1.194,-1.2331,-1.1798,-1.1255,0.0,0.0,0.0,0.0,0.0,0.0,0.0,0.0,0.0,0.0,0.0,0.0,0.0,0.0,0.0,0.0,0.0,0.0,0.0,0.0,0.0,0.0,0.0,0.0,0.0,0.0,0.0,0.0,0.0,0.0,0.0,0.0,0.0,0.0,0.0,0.0,0.0,0.0,0.0,0.0,0.0,0.0,0.0,0.0,0.0,0.0,0.0,0.0,0.0,0.0,0.0,0.0,0.0,0.0,-1.7631,-1.9352,-2.2464,-2.4135,-2.4226,-2.5044,-2.5044,-2.4135,-2.262,-2.0621,0.0,0.0,0.0,0.0,0.0,0.0,0.0,0.0,0.0,0.0,0.0,0.0,0.0,0.0,0.0,0.0,0.0,0.0,0.0,0.0,0.0,0.0,0.0,0.0,0.0,0.0,0.0,0.0,0.0,0.0,0.0,0.0,0.0,0.0,0.0,0.0,0.0,0.0,0.0,0.0,0.0,-1.0677,-0.9999,-1.1184,-1.2012,0.0,-1.2647,-1.3184,-1.2519,-1.23,-1.1972,-1.1206,0.0,0.0,0.0,0.0,0.0,0.0,0.0,0.0,0.0,0.0,0.0,0.0,0.0,0.0,0.0,0.0,0.0,0.0,0.0,0.0,0.0,0.0,0.0,0.0,0.0,0.0,0.0,0.0,0.0,0.0,0.0,0.0,0.0,0.0,0.0,0.0,0.0,0.0,0.0,0.0,0.0,0.0,0.0,0.0,0.0,0.0,0.0,0.0,0.0,0.0,0.0,0.0,0.0,-1.7686,-1.9315,-2.2538,-2.4199,-2.4226,-2.4989,-2.4787,-2.3501,-2.2868,-2.1153,0.0,0.0,0.0,0.0,0.0,0.0,0.0,0.0,0.0,0.0,0.0,0.0,0.0,0.0,0.0,0.0,0.0,0.0,0.0,0.0,0.0,0.0,0.0,0.0,0.0,0.0,0.0,0.0,-0.3935,-0.4178,-0.4843,0.0,0.0,0.0,0.0,0.0,0.0,0.0,0.0,0.0,0.0,-1.106,-1.1291,-1.1878,0.0,0.0,-1.3573,-1.362,-1.3853,-1.2996,-1.2214,-1.1948,-1.0088,0.0,0.0,0.0,0.0,0.0,0.0,0.0,0.0,0.0,0.0,0.0,0.0,0.0,0.0,0.0,0.0,0.0,0.0,0.0,0.0,0.0,0.0,0.0,0.0,0.0,0.0,0.0,0.0,0.0,0.0,0.0,0.0,0.0,0.0,0.0,0.0,0.0,0.0,0.0,0.0,0.0,0.0,0.0,0.0,0.0,0.0,0.0,0.0,0.0,0.0,0.0,0.0,-1.7942,-2.0031,-2.3024,-2.4557,-2.4548,-2.5117,-2.475,-2.3419,-2.2905,-2.1327,0.0,0.0,0.0,0.0,0.0,0.0,0.0,0.0,0.0,0.0,0.0,0.0,0.0,0.0,0.0,0.0,0.0,0.0,0.0,0.0,0.0,0.0,0.0,0.0,0.0,0.0,0.0,0.0,-0.4917,-0.524,-0.4936,0.0,0.0,0.0,0.0,0.0,0.0,0.0,0.0,0.0,0.0,-1.2075,-1.2857,-1.3247,-1.3989,-1.5586,-1.493,-1.4466,-1.508,-1.3801,-1.271,-1.2768,0.0,0.0,0.0,0.0,0.0,0.0,0.0,0.0,0.0,0.0,0.0,0.0,0.0,0.0,0.0,0.0,0.0,0.0,0.0,0.0,0.0,0.0,0.0,0.0,0.0,0.0,0.0,-1.0237,0.0,0.0,-0.9304,0.0,0.0,0.0,0.0,0.0,0.0,0.0,0.0,0.0,0.0,0.0,0.0,0.0,0.0,0.0,0.0,0.0,0.0,0.0,0.0,0.0,0.0,-1.8493,-2.1711,-2.4089,-2.5374,-2.5374,-2.5403,-2.5007,-2.4153,-2.2675,-2.1023,-1.926,0.0,0.0,0.0,0.0,0.0,0.0,0.0,0.0,0.0,0.0,0.0,0.0,0.0,0.0,0.0,0.0,0.0,0.0,0.0,0.0,0.0,0.0,0.0,0.0,0.0,0.0,-0.6355,-0.6429,-0.6039,0.0,0.0,0.0,0.0,0.0,0.0,0.0,0.0,0.0,0.0,-1.2512,-1.3833,-1.463,-1.5457,-1.6464,-1.7877,-1.687,-1.5976,-1.6034,-1.4663,-1.361,0.0,0.0,0.0,0.0,0.0,0.0,0.0,0.0,0.0,0.0,0.0,0.0,0.0,0.0,0.0,0.0,0.0,0.0,0.0,0.0,0.0,0.0,0.0,0.0,0.0,0.0,0.0,-1.5322,-1.4234,0.0,0.0,0.0,0.0,0.0,0.0,0.0,0.0,0.0,0.0,0.0,-2.1607,-2.1607,0.0,0.0,0.0,0.0,0.0,0.0,0.0,0.0,0.0,0.0,0.0,0.0,-1.8511,-2.1721,-2.4163,-2.5668,-2.6172,-2.5668,-2.5007,-2.4236,-2.3162,-2.1061,-1.7796,0.0,0.0,0.0,0.0,0.0,0.0,0.0,0.0,0.0,0.0,0.0,0.0,0.0,0.0,0.0,0.0,0.0,0.0,0.0,0.0,0.0,0.0,0.0,0.0,0.0,-0.6221,0.0,0.0,0.0,0.0,0.0,0.0,0.0,0.0,0.0,0.0,0.0,-1.1589,-1.269,-1.3308,-1.4228,-1.5775,-1.6587,-1.734,0.0,0.0,0.0,0.0,0.0,0.0,0.0,0.0,0.0,0.0,0.0,0.0,0.0,0.0,-1.0517,-0.9627,-0.8574,-0.7669,-0.7175,0.0,0.0,0.0,0.0,0.0,0.0,0.0,0.0,0.0,0.0,0.0,0.0,0.0,0.0,-1.9752,0.0,-1.7914,0.0,0.0,0.0,0.0,0.0,0.0,0.0,0.0,-2.543,-2.6368,-2.5605,-2.5627,-2.5619,0.0,-2.5131,-2.2964,0.0,0.0,0.0,0.0,0.0,0.0,0.0,0.0,-1.9491,-2.2951,-2.5154,-2.6494,-2.6961,-2.6494,-2.5852,-2.5034,-2.3703,-2.1208,-1.7447,-1.5778,-1.3925,0.0,0.0,0.0,0.0,0.0,0.0,0.0,0.0,0.0,0.0,0.0,0.0,0.0,0.0,0.0,0.0,0.0,0.0,0.0,0.0,0.0,0.0,0.0,-0.7247,0.0,0.0,0.0,0.0,0.0,0.0,0.0,0.0,0.0,-1.0058,-1.149,-1.2909,-1.4011,-1.4677,-1.5627,-1.7163,0.0,0.0,0.0,0.0,0.0,0.0,0.0,-1.5518,-1.5091,-1.5734,-1.5862,-1.4513,-1.4255,-1.421,-1.4168,0.0,0.0,-1.1528,-1.0359,-0.9435,-0.8924,-0.8606,-0.8499,-0.8806,-0.8892,-0.9009,0.0,0.0,0.0,0.0,0.0,0.0,0.0,0.0,-2.4855,-2.4019,0.0,-2.1154,0.0,0.0,0.0,0.0,0.0,-2.1767,0.0,0.0,-2.877,-2.95,-2.8781,-2.882,-2.8839,-2.8833,-2.8816,-2.7964,-2.6231,-2.1771,0.0,0.0,0.0,0.0,0.0,0.0,-2.1335,-2.5227,-2.6953,-2.7842,-2.7879,-2.786,-2.7467,-2.6547,-2.429,-2.1538,-1.8346,-1.6702,-1.5056,-1.3414,-1.1828,0.0,0.0,0.0,0.0,0.0,0.0,0.0,0.0,0.0,0.0,0.0,0.0,0.0,0.0,0.0,0.0,0.0,0.0,0.0,0.0,-0.8769,0.0,0.0,0.0,0.0,0.0,0.0,0.0,0.0,0.0,0.0,-1.0541,-1.3019,-1.5065,-1.5137,0.0,0.0,0.0,0.0,-2.0161,-2.0068,-1.9941,-1.9629,-1.8819,-1.8004,-1.7507,-1.7591,0.0,0.0,-1.7892,-1.7637,-1.6968,-1.5391,-1.5049,-1.4779,-1.3947,-1.2408,-1.1298,-1.1248,-1.066,-1.0502,-1.1184,-1.127,-1.1545,-3.2961,0.0,0.0,0.0,0.0,-2.7884,-2.8671,-2.8885,-2.8954,-2.811,-2.6644,-2.6291,0.0,0.0,0.0,0.0,0.0,0.0,-2.7037,-2.8848,-3.1256,-3.2234,-3.2035,-3.2087,-3.1819,-3.127,-3.0735,-3.0008,-2.8966,-2.7065,-2.3874,-1.9497,0.0,0.0,0.0,0.0,-2.1877,-2.5293,-2.753,-2.8913,-2.9512,-2.9512,-2.8576,-2.6649,-2.4804,-2.2566,-1.9905,-1.8831,-1.6977,-1.4297,-1.3704,0.0,0.0,0.0,0.0,0.0,0.0,0.0,0.0,0.0,0.0,0.0,0.0,0.0,0.0,0.0,0.0,0.0,0.0,0.0,-0.8012,-0.9093,-0.9417,0.0,0.0,0.0,0.0,0.0,0.0,0.0,0.0,0.0,-1.4405,-1.5188,-1.6233,0.0,0.0,-1.9287,-1.962,-2.1337,-2.252,-2.2361,-2.2388,0.0,-2.0577,-2.0694,-2.0763,-2.0307,-2.0493,-2.0839,-2.118,-1.9726,-1.8138,-1.7048,-1.6361,-1.5686,-1.482,-1.3361,-1.2303,-1.2205,-1.207,-1.2031,-1.2254,-1.2361,-1.2467,-3.899,-3.4388,-3.3563,-3.2454,-3.1452,-3.2946,-3.3774,-3.4099,-3.413,-3.3439,-3.2224,-3.1299,-2.9497,-2.7091,-2.6505,0.0,0.0,0.0,-3.0477,-3.1763,-3.3538,-3.4371,-3.4371,-3.4428,-3.42,-3.3728,-3.3304,-3.2538,-3.1477,-3.1033,-2.8631,-2.4323,0.0,0.0,-2.1702,-2.2189,-2.3731,-2.6292,-2.8088,-2.9244,-2.9721,-2.9721,-2.873,-2.6675,-2.5648,-2.3841,-2.1116,-2.0225,-1.8592,-1.6034,-1.5007,-1.3833,0.0,0.0,0.0,0.0,0.0,0.0,0.0,0.0,0.0,0.0,0.0,-0.4909,-0.525,0.0,0.0,0.0,-0.7103,-0.8006,-0.9318,-1.0201,0.0,0.0,0.0,0.0,0.0,0.0,0.0,-1.3854,-1.5081,-1.6314,-1.7505,-1.7931,-1.8395,-1.9073,-2.0147,-2.0814,-2.0695,0.0,-2.372,-2.3865,-2.3716,-2.3123,-2.1884,-2.2386,-2.305,-2.3384,-2.2896,-2.2816,-2.35,-2.1628,-1.9694,-1.876,-1.7658,-1.6586,-1.5764,-1.453,-1.3618,-1.3627,-1.3682,-1.3715,-1.3747,-1.3769,-1.3791,-4.348,-4.1831,-3.8952,-3.7178,-3.6435,-3.783,-3.888,-3.955,-3.9478,-3.9043,-3.8136,-3.5965,-3.4099,-3.2488,-3.098,0.0,-3.1451,-3.2904,-3.3991,-3.4824,-3.555,-3.5912,-3.6003,-3.5973,-3.5965,-3.5875,-3.5915,-3.5122,-3.3623,-3.3625,-3.2537,-3.0246,-2.6672,-2.5136,-2.565,-2.5613,-2.6384,-2.7963,-2.8803,-2.9225,-2.9299,-2.917,-2.8308,-2.6657,-2.6484,-2.4924,-2.1849,-2.0914,-1.9759,-1.8144,-1.5924,-1.4634,-1.4457,0.0,0.0,0.0,0.0,0.0,0.0,0.0,0.0,0.0,0.0,0.0,0.0,0.0,0.0,0.0,-0.9048,0.0,-1.1015,-1.1879,0.0,0.0,0.0,-1.2418,-1.2492,-1.3847,-1.4868,-1.506,0.0,0.0,-1.9779,-2.0871,-2.1246,-2.0499,-2.1787,-2.2585,-2.2032,-2.3225,-2.4246,-2.4492,-2.4204,-2.3594,-2.2815,-2.3532,-2.4875,-2.6467,-2.5519,-2.4773,-2.5168,-2.3283,-2.1445,-2.0431,-1.8943,-1.7533,-1.6671,-1.5875,-1.5399,-1.5421,-1.5309,-1.5242,-1.5161,-1.5175,-1.517,-4.6269,-4.5309,-4.4548,-4.27,-4.0329,-4.0691,-4.0963,-4.1107,-4.051,-3.9822,-3.9061,-3.85,-3.7375,-3.5799,-3.4824,-3.448,-3.4682,-3.5059,-3.5657,-3.6433,-3.6633,-3.7015,-3.7593,-3.7076,-3.6492,-3.5893,-3.5332,-3.4575,-3.3642,-3.3657,-3.3081,-3.1929,-3.1017,-2.9776,-2.818,-2.753,-2.8007,-2.9622,-3.0411,-3.1127,-3.1702,-3.0546,-2.884,-2.6638,-2.5401,-2.3529,-2.0914,-2.0621,-1.9769,-1.8181,-1.697,-1.579,-1.4543,-1.2787,0.0,0.0,0.0,0.0,0.0,0.0,0.0,0.0,0.0,-0.6988,-0.7855,0.0,-0.8516,0.0,-1.1517,-1.2533,-1.2784,-1.3547,0.0,0.0,-1.4089,-1.4348,-1.4948,-1.5388,-1.6133,-1.7457,-1.8555,-1.9628,-2.0755,-2.2809,-2.4112,-2.3928,-2.4708,-2.4996,-2.4179,-2.5473,-2.5689,-2.3846,-2.4575,-2.5015,-2.3998,-2.5455,-2.7467,-2.9283,-2.814,-2.7172,-2.7303,-2.4698,-2.2281,-2.1371,-1.9857,-1.8509,-1.7616,-1.7287,-1.7184,-1.7152,-1.6234,-1.5293,-1.5283,-1.536,-1.5395,-4.7968,-4.7554,-4.7174,-4.5977,-4.4311,-4.3605,-4.3298,-4.3281,-4.2846,-4.2212,-4.1433,-4.0745,-3.9731,-3.8554,-3.8085,-3.7867,-3.7885,-3.7904,-3.8138,-3.8554,-3.8571,-3.8627,-3.8716,-3.8297,-3.7513,-3.6372,-3.562,-3.4836,-3.4087,-3.4124,-3.3733,-3.2967,-3.3364,-3.2747,-3.1082,-2.9953,-2.9836,-3.0723,-3.1164,-3.1623,-3.2008,-3.0852,-2.9219,-2.72,-2.5933,-2.3951,-2.118,-2.1061,-2.0335,-1.872,-1.7869,-1.6872,-1.5606,-1.4053,-1.2811,0.0,0.0,0.0,0.0,0.0,0.0,0.0,0.0,0.0,0.0,0.0,-1.038,-1.2342,-1.3642,-1.4699,-1.547,-1.6294,-1.6812,-1.6873,-1.652,-1.6483,-1.6929,-1.6984,-1.7504,-1.889,-2.0107,-2.1362,-2.2659,-2.4402,-2.586,-2.6538,-2.7023,-2.7069,-2.6569,-2.7094,-2.6909,-2.5538,-2.6123,-2.6739,-2.6179,-2.7103,-2.8362,-2.9501,-2.8568,-2.7426,-2.7348,-2.4942,-2.2743,-2.2176,-2.0455,-1.8915,-1.8423,-1.802,-1.7819,-1.774,-1.7135,-1.6532,-1.6461,-1.6478,-1.6511,-4.8981,-4.8837,-4.8152,-4.7787,-4.7569,-4.6214,-4.5562,-4.5436,-4.5345,-4.4838,-4.4005,-4.2629,-4.156,-4.0818,-4.0709,-4.0583,-4.0492,-4.0383,-4.0311,-4.0202,-4.0311,-3.9967,-3.9242,-3.9333,-3.8571,-3.6995,-3.6182,-3.5388,-3.4624,-3.4682,-3.4349,-3.3709,-3.4437,-3.4448,-3.3715,-3.2376,-3.1684,-3.1684,-3.1702,-3.1641,-3.1531,-3.0668,-2.9384,-2.7725,-2.6759,-2.4832,-2.1812,-2.1629,-2.0968,-1.951,-1.8592,-1.7777,-1.7055,-1.5539,-1.4297,0.0,-1.2894,0.0,0.0,0.0,0.0,0.0,0.0,0.0,0.0,-1.17,-1.2695,-1.4787,-1.5784,-1.693,-1.8365,-1.939,-1.9937,-1.9866,-1.9316,-1.8896,-1.8803,-1.8685,-1.8985,-1.9904,-2.1304,-2.2849,-2.4478,-2.5623,-2.6866,-2.8173,-2.8632,-2.8685,-2.8635,-2.8165,-2.786,-2.8307,-2.7886,-2.7598,-2.8461,-2.8287,-2.8227,-2.8908,-2.7907,-2.6702,-2.6571,-2.4617,-2.2951,-2.2558,-2.0827,-1.9387,-1.9323,-1.881,-1.8443,-1.8678,-1.8578,-1.8317,-1.7882,-1.7745,-1.7933,-4.9492,-4.8891,-4.8728,-4.8294,-4.7699,-4.7352,-4.6884,-4.6232,-4.558,-4.4856,-4.4095,-4.3788,-4.319,-4.2411,-4.1759,-4.1107,-4.0456,-3.9876,-3.926,-3.8663,-3.9297,-3.9188,-3.8499,-3.9115,-3.8571,-3.7013,-3.6182,-3.5369,-3.4606,-3.4664,-3.4603,-3.4491,-3.4677,-3.4721,-3.4521,0.0,0.0,0.0,-3.3273,-3.297,-3.2344,-3.0962,-2.9115,-2.6906,-2.5419,0.0,-2.0914,-2.0749,-2.0603,-2.0254,-1.8896,0.0,0.0,0.0,0.0,0.0,0.0,0.0,0.0,0.0,0.0,0.0,-1.7443,-1.672,-1.5013,-1.5998,-1.694,-1.741,-1.8731,-1.9738,-2.0131,-2.1535,-2.2167,-2.157,-2.1954,-2.2033,-2.1384,-2.0734,-2.0663,-2.1533,-2.1994,-2.2872,-2.4629,-2.6155,-2.7517,-2.8552,-2.9338,-2.9783,-2.9766,-2.9126,-2.8325,-2.7427,-2.7231,-2.7478,-2.8865,-2.8476,-2.828,-2.8758,-2.7821,-2.6566,-2.5836,-2.4644,-2.3178,-2.2255,-2.0943,-2.0402,-2.1021,-2.1066,-2.105,-2.1804,-2.1369,-2.0347,-1.8352,-1.7942,-1.7916,-4.9619,0.0,-4.8475,-4.8058,0.0,-4.7699,-4.7482,-4.7065,-4.6667,-4.6033,-4.5254,-4.4874,-4.4023,-4.2865,-4.2067,-4.1053,-3.9912,-3.9152,-3.8807,-3.8843,-3.9586,-3.9731,-3.9351,-4.0166,-3.9496,-3.7611,-3.6777,-3.5983,-3.5225,-3.5235,-3.5232,-3.525,-3.5278,-3.5293,-3.5257,-3.4509,-3.3982,-3.3703,-3.3698,-3.3524,-3.317,-3.2014,-3.0418,-2.8448,-2.72,0.0,0.0,0.0,0.0,0.0,0.0,0.0,0.0,0.0,0.0,-1.694,-1.7619,-1.8262,-1.8709,-1.9858,-2.0703,-2.1088,-2.1473,-2.0519,-1.77,-1.8225,-1.9032,-1.9885,-2.1025,-2.2088,-2.2958,-2.4137,-2.4699,-2.4321,-2.4311,-2.4042,-2.3272,-2.2483,-2.2174,-2.2585,-2.3031,-2.398,-2.5718,-2.7054,-2.8218,-2.9107,-2.9652,-3.0019,-3.0015,-2.9775,-2.927,-2.8726,-2.8543,-2.8788,-2.9448,-2.9077,-2.8632,-2.8922,-2.7807,-2.6693,-2.6184,-2.4815,-2.3561,-2.2942,-2.201,-2.1488,-2.2091,-2.2284,-2.2555,-2.3232,-2.2875,-2.2001,-2.0535,-1.9762,-1.9187,-5.0053,-4.9253,-4.846,-4.8061,-4.7916,-4.7772,-4.7699,-4.7699,0.0,0.0,0.0,-4.5816,-4.4621,-4.3063,-4.2103,-4.0926,-3.955,-3.8608,-3.8571,-3.9224,-4.0111,-4.0438,-4.0347,-4.127,-4.0564,-3.8427,-3.7611,-3.6814,-3.6037,-3.6001,-3.6019,-3.6019,-3.6019,-3.5858,-3.5569,-3.4917,-3.4298,-3.3698,-3.3675,-3.3698,-3.3748,-3.2978,-3.1878,-3.0442,-2.9477,-2.76,-2.4759,-2.4483,-2.374,-2.2326,-2.2216,-2.1849,-2.1006,-2.108,-2.0804,-2.006,-2.0823,-2.1675,-2.2382,-2.3199,-2.3905,-2.4593,-2.463,-2.3364,-2.038,-2.0307,-2.0949,-2.2326,-2.318,-2.4218,-2.5563,-2.6428,-2.6843,-2.6708,-2.6239,-2.5604,-2.469,-2.3894,-2.3375,-2.3483,-2.3869,-2.4925,-2.654,-2.7554,-2.8561,-2.9382,-2.9756,-2.995,-3.0034,-3.0115,-3.0158,-3.0143,-3.0052,-3.0288,-3.0275,-2.9663,-2.9247,-2.9138,-2.7952,-2.6932,-2.6481,-2.5256,-2.4257,-2.4064,-2.3464,-2.3383,-2.3387,-2.3577,-2.3867,-2.4702,-2.4172,-2.354,-2.3276,-2.2064,-2.0835,-5.1665,-5.0886,-5.009,-4.9383,-4.8656,-4.7986,-4.7699,-4.7699,-4.7699,-4.7246,-4.6504,-4.6377,-4.5454,-4.3842,-4.2356,-4.1198,-4.0274,-3.8844,-3.8263,-3.8444,-3.984,-4.0148,-3.9641,-4.1017,-4.0818,-3.926,-3.8409,-3.7611,-3.6904,-3.685,-3.6832,-3.6832,-3.6832,-3.6146,-3.4878,-3.4661,-3.4253,-3.3538,-3.3538,-3.3563,-3.3597,-3.2835,-3.2004,-3.1131,-2.971,-2.8093,-2.6345,-2.5603,-2.4805,-2.3914,-2.3859,-2.3492,-2.2731,-2.3281,-2.3318,-2.2648,-2.3887,-2.4787,-2.4907,-2.564,-2.6143,-2.6235,-2.6264,-2.5456,-2.3731,-2.4144,-2.465,-2.4907,-2.5566,-2.6172,-2.6494,-2.7235,-2.7477,-2.6906,-2.728,-2.7044,-2.5577,-2.4718,-2.4246,-2.4227,-2.3705,-2.4099,-2.5775,-2.6885,-2.784,-2.8696,-2.955,-3.0098,-3.0159,-3.0253,-3.0305,-3.0367,-3.0404,-3.0404,-3.0327,-2.9721,-2.9338,-2.9203,-2.8478,-2.7599,-2.7028,-2.606,-2.5182,-2.4389,-2.5646,-2.6289,-2.5472,-2.572,-2.6304,-2.7024,-2.6559,-2.5863,-2.5225,-2.3721,-2.21,-5.1375,-5.0633,-5.0275,-4.9637,-4.8837,-4.8061,-4.7699,-4.7699,-4.7699,-4.7497,-4.7174,-4.7135,-4.6269,-4.4711,-4.3534,-4.2085,-4.0438,-3.9351,-3.8844,-3.8934,-3.9985,-4.0582,-4.0745,-4.1832,-4.1778,-4.0673,-4.0274,-3.9496,-3.8408,-3.8282,-3.8082,-3.7683,-3.7647,-3.7085,-3.5946,-3.5476,-3.4857,-3.4108,-3.3713,-3.3538,-3.3605,-3.3259,-3.2703,-3.1965,-3.1185,-2.9905,-2.7996,-2.7548,-2.6778,-2.5548,-2.5511,-2.5318,-2.4987,-2.5299,-2.5336,-2.5034,-2.6043,-2.6888,-2.7328,-2.8099,-2.8363,-2.797,-2.8319,-2.8264,-2.753,-2.6576,-2.6227,-2.666,-2.7053,-2.7438,-2.7849,-2.8257,-2.8342,-2.7974,-2.8327,-2.8047,-2.6993,-2.612,-2.5485,-2.507,-2.4338,-2.4352,-2.5645,-2.6652,-2.756,-2.8445,-2.9414,-3.0068,-3.0173,-3.0272,-3.0331,-3.0386,-3.0404,-3.0404,-3.0385,-3.0127,-2.9875,-2.9853,-2.9181,-2.8575,-2.8097,-2.7428,-2.6768,-2.6385,-2.731,-2.7585,-2.6904,-2.7136,-2.7755,-2.8373,-2.8006,-2.729,-2.6675,-2.481,-2.2462,-5.1235,-5.0655,-5.0434,-4.9908,-4.913,-4.8514,-4.8152,-4.7968,-4.7989,-4.7859,-4.7717,-4.7699,-4.692,-4.5562,-4.4729,-4.3262,-4.1379,-4.0347,-3.993,-3.9985,-4.0492,-4.1107,-4.1723,-4.252,-4.2484,-4.1759,-4.1687,-4.0908,-3.955,-3.9387,-3.9006,-3.8299,-3.8209,-3.7701,-3.6741,-3.6109,-3.5315,-3.4371,-3.3778,-3.3509,-3.3567,-3.3563,-3.3285,-3.2771,-3.2534,-3.1696,-3.0161,-2.9715,-2.8865,-2.7519,-2.7409,-2.7255,-2.6906,-2.7042,-2.7134,-2.7207,-2.7897,-2.8705,-2.9494,-3.0099,-3.021,-2.9629,-3.0099,-3.0467,-3.032,-2.8778,-2.7934,-2.8503,-2.8679,-2.8906,-2.942,-2.9567,-2.9537,-2.9537,-2.9372,-2.8936,-2.8198,-2.7301,-2.6403,-2.5643,-2.4894,-2.4688,-2.5478,-2.6478,-2.7698,-2.8967,-2.9772,-3.0281,-3.0581,-3.0748,-3.0835,-3.0848,-3.0667,-3.0404,-3.0404,-3.0385,-3.0358,-3.0406,-2.9891,-2.9527,-2.9356,-2.8926,-2.8485,-2.8311,-2.8431,-2.8533,-2.8397,-2.8513,-2.8881,-2.9422,-2.9089,-2.8436,-2.7488,-2.5499,-2.2959,-5.2317,-5.2154,-5.1466,-5.0705,-5.0021,-4.9876,-4.942,-4.8818,-4.8804,-4.8366,-4.779,-4.7699,-4.7207,-4.6359,-4.5562,-4.4657,-4.3643,-4.2175,-4.1506,-4.1488,-4.156,-4.1632,-4.1795,-4.252,-4.2484,-4.1795,-4.1741,-4.0999,-3.9586,-3.9423,-3.9024,-3.8299,-3.8209,-3.7449,-3.6109,-3.5858,-3.5062,-3.3538,-3.3429,-3.3426,-3.3408,-3.3408,-3.3415,-3.3415,-3.2692,-3.2652,-3.2948,-3.1863,-3.0717,-2.9959,-2.9824,-2.9182,-2.797,-2.8381,-2.8785,-2.881,-2.9537,-3.0338,-3.1054,-3.125,-3.1231,-3.1195,-3.1201,-3.1305,-3.1292,-3.1085,-3.0962,-3.0999,-3.1029,-3.0938,-3.1164,-3.1109,-3.1017,-3.0925,-3.0448,-2.9787,-2.8918,-2.7592,-2.6393,-2.5586,-2.506,-2.4494,-2.5016,-2.625,-2.8069,-3.018,-3.06,-3.1102,-3.1838,-3.2053,-3.2191,-3.2204,-3.1462,-3.0533,-3.0462,-3.0404,-3.039,-3.039,-3.0356,-3.0205,-3.0111,-3.0177,-3.0129,-2.9332,-2.9694,-2.9843,-2.9596,-2.9747,-3.025,-3.0211,-3.0017,-2.9611,-2.7518,-2.5956,-2.4341,-5.2498,-5.2462,-5.2136,-5.1538,-5.0796,-5.0311,-4.993,-4.9582,-4.9112,-4.8692,-4.8366,-4.7935,-4.7497,-4.721,-4.6848,-4.6287,-4.549,-4.4838,-4.3985,-4.319,-4.3118,-4.2864,-4.2484,-4.2719,-4.2701,-4.2429,-4.2411,-4.185,-4.0782,-3.9858,-3.9441,-3.9441,-3.8698,-3.7629,-3.6596,-3.6508,-3.5494,-3.3502,-3.3882,-3.4117,-3.4063,-3.3628,-3.3441,-3.3459,-3.3182,-3.2966,-3.2939,-3.2331,-3.1657,-3.0986,-3.0907,-3.0595,-2.9983,-3.0246,-3.0411,-3.0467,-3.1182,-3.1549,-3.1403,-3.1825,-3.1898,-3.1439,-3.1843,-3.2118,-3.2155,-3.254,-3.2816,-3.2724,-3.1984,-3.1403,-3.1421,-3.1403,-3.1403,-3.1347,-3.1091,-3.0595,-2.9787,-2.8723,-2.7768,-2.7042,-2.627,-2.5773,-2.6033,-2.6935,-2.8492,-3.0277,-3.0824,-3.1337,-3.2128,-3.238,-3.2542,-3.2538,-3.1743,-3.1188,-3.1084,-3.0692,-3.0481,-3.0385,-3.0396,-3.0389,-3.0417,-3.0436,-3.0334,-3.0023,-3.0347,-3.0482,-3.0133,-3.0269,-3.0617,-3.0656,-3.054,-2.994,-2.7871,-2.6803,-2.5259,-5.2498,-5.2498,-5.2498,-5.2172,-5.1574,-5.1013,-5.0637,-5.0383,-4.9818,-4.9347,-4.8837,-4.8275,-4.7898,-4.7717,-4.7699,-4.7352,-4.6866,-4.6613,-4.5888,-4.4765,-4.4331,-4.3807,-4.3263,-4.2973,-4.2919,-4.2919,-4.2901,-4.2484,-4.1596,-4.013,-3.9677,-3.993,-3.8844,-3.7792,-3.7067,-3.6995,-3.6035,-3.4317,-3.4661,-3.4935,-3.4844,-3.4371,-3.3969,-3.3793,-3.359,-3.3338,-3.3122,-3.2899,-3.2542,-3.2017,-3.181,-3.1585,-3.1378,-3.1378,-3.1482,-3.1733,-3.2265,-3.2436,-3.2063,-3.2596,-3.2687,-3.2205,-3.2632,-3.2944,-3.3023,-3.3476,-3.3788,-3.3678,-3.2724,-3.2131,-3.2076,-3.2058,-3.2045,-3.2058,-3.1911,-3.1403,-3.0613,-2.9666,-2.8672,-2.8054,-2.7052,-2.6844,-2.722,-2.7926,-2.9047,-3.0531,-3.1176,-3.1696,-3.2523,-3.2995,-3.3155,-3.3201,-3.2657,-3.2074,-3.1731,-3.0942,-3.05,-3.0404,-3.0404,-3.039,-3.0394,-3.0396,-3.0408,-3.0272,-3.0492,-3.0728,-3.0888,-3.0946,-3.0946,-3.0946,-3.0868,-3.025,-2.8281,-2.7484,-2.5925,-5.2498,-5.2498,-5.2498,-5.2439,-5.2408,-5.2312,-5.1919,-5.1208,-5.1122,-5.0325,-4.9036,-4.8837,-4.8402,-4.7735,-4.7699,-4.7681,-4.7536,-4.6884,-4.6468,-4.6124,-4.4856,-4.4095,-4.4024,-4.3281,-4.2919,-4.2919,-4.2919,-4.252,-4.1687,-4.022,-3.9405,-3.9441,-3.8717,-3.7846,-3.7176,-3.7085,-3.6562,-3.5675,-3.5677,-3.5731,-3.5731,-3.5695,-3.5258,-3.4624,-3.3828,-3.3796,-3.4302,-3.3847,-3.3425,-3.3492,-3.2748,-3.2077,-3.1448,-3.1388,-3.1761,-3.2436,-3.2601,-3.2944,-3.3495,-3.3642,-3.3642,-3.3623,-3.3587,-3.3715,-3.3642,-3.3733,-3.3807,-3.3807,-3.3623,-3.3532,-3.3532,-3.3403,-3.3476,-3.3458,-3.2963,-3.2228,-3.1378,-3.0063,-2.8801,-2.8047,-2.7393,-2.7352,-2.7939,-2.8638,-2.9839,-3.1272,-3.2324,-3.3115,-3.3852,-3.4331,-3.446,-3.4452,-3.4023,-3.3299,-3.1994,-3.1148,-3.0629,-3.0519,-3.0596,-3.0404,-3.0404,-3.041,-3.0431,-3.0565,-3.0854,-3.1168,-3.1579,-3.1734,-3.1695,-3.1657,-3.1579,-3.0675,-2.8745,-2.8204,-2.6703,-5.1987,-5.1987,-5.1987,-5.1987,-5.2005,-5.1987,-5.1874,-5.1658,-5.1249,-5.0506,-4.9581,-4.9104,-4.8438,-4.7699,-4.7699,-4.7699,-4.7681,-4.7391,-4.7011,-4.6504,-4.5888,-4.5091,-4.4114,-4.3769,-4.3372,-4.2955,-4.2919,-4.2755,-4.2411,-4.1379,-4.089,-4.0637,-3.9568,-3.8571,-3.7901,-3.7774,-3.7142,-3.5985,-3.629,-3.6562,-3.6508,-3.6073,-3.5874,-3.6055,-3.4842,-3.4075,-3.3927,-3.3637,-3.352,-3.3605,-3.3313,-3.3068,-3.2861,-3.2878,-3.301,-3.3316,-3.3366,-3.3495,-3.3752,-3.3807,-3.3807,-3.3807,-3.3807,-3.3807,-3.3807,-3.3807,-3.3807,-3.3807,-3.3807,-3.3807,-3.3807,-3.3807,-3.3807,-3.377,-3.355,-3.2816,-3.169,-3.0834,-3.0068,-2.8949,-2.8426,-2.8642,-2.9138,-2.9765,-3.0577,-3.2016,-3.2686,-3.33,-3.4003,-3.4404,-3.4575,-3.4571,-3.416,-3.3591,-3.3314,-3.1968,-3.1162,-3.1032,-3.0929,-3.0596,-3.0442,-3.0423,-3.0433,-3.0656,-3.1003,-3.1787,-3.2256,-3.2662,-3.2585,-3.2101,-3.2043,-3.1371,-2.9224,-2.8765,-2.726,-5.1383,-5.1365,-5.1383,-5.1365,-5.1365,-5.1383,-5.1503,-5.1601,-5.1274,-5.0802,-5.0204,-4.982,-4.9094,-4.8224,-4.8098,-4.7895,-4.7717,-4.7699,-4.7428,-4.6884,-4.6631,-4.5924,-4.4947,-4.4331,-4.3806,-4.3318,-4.301,-4.2919,-4.2792,-4.2085,-4.1705,-4.1578,-4.0166,-3.9152,-3.8644,-3.8337,-3.7594,-3.6852,-3.7105,-3.7393,-3.7357,-3.7123,-3.6924,-3.6886,-3.6164,-3.5144,-3.3938,-3.3611,-3.3495,-3.352,-3.3553,-3.3563,-3.3629,-3.3716,-3.3739,-3.3739,-3.3753,-3.3766,-3.3762,-3.3775,-3.3807,-3.3807,-3.3807,-3.3807,-3.3807,-3.3807,-3.3807,-3.3807,-3.3807,-3.3807,-3.3807,-3.3807,-3.3807,-3.3807,-3.3807,-3.3128,-3.1654,-3.1403,-3.065,-2.9428,-2.9027,-2.9351,-2.9837,-3.0132,-3.0751,-3.1857,-3.2403,-3.313,-3.3629,-3.4127,-3.4278,-3.4194,-3.4154,-3.3951,-3.3707,-3.2863,-3.2211,-3.2039,-3.1436,-3.0994,-3.0673,-3.0596,-3.0581,-3.081,-3.1413,-3.2294,-3.2966,-3.3455,-3.3247,-3.2701,-3.2687,-3.2435,-3.0752,-2.936,-2.7744,-5.0697,-5.0697,-5.0697,-5.0697,-5.0715,-5.0715,-5.0893,-5.1192,-5.1414,-5.1164,-5.0742,-5.1004,-5.0136,-4.9054,-4.8764,-4.842,-4.7808,-4.7699,-4.7681,-4.7536,-4.692,-4.654,-4.6232,-4.4965,-4.4204,-4.3932,-4.3263,-4.2919,-4.2865,-4.2212,-4.1813,-4.1488,-4.0347,-3.9604,-3.9387,-3.8716,-3.8227,-3.8046,-3.8064,-3.8118,-3.8281,-3.8663,-3.8354,-3.7321,-3.7557,-3.6832,-3.4751,-3.3918,-3.3535,-3.3498,-3.3498,-3.3459,-3.3706,-3.3796,-3.3729,-3.3834,-3.3799,-3.379,-3.3767,-3.384,-3.3935,-3.3825,-3.3844,-3.3954,-3.3972,-3.4027,-3.4082,-3.4119,-3.4064,-3.3972,-3.4027,-3.4064,-3.3972,-3.3807,-3.3807,-3.3128,-3.1935,-3.1378,-3.0797,-2.9471,-2.9062,-2.9069,-2.9276,-2.9828,-3.0446,-3.0953,-3.1849,-3.2766,-3.3054,-3.3557,-3.381,-3.3668,-3.3767,-3.3968,-3.3893,-3.3764,-3.3421,-3.3023,-3.225,-3.1616,-3.1296,-3.1129,-3.0922,-3.1122,-3.2116,-3.3004,-3.4044,-3.4455,-3.4427,-3.404,-3.393,-3.3151,-3.1565,-2.9901,-2.8412,-5.0159,-5.0131,-5.0148,-5.0159,-5.0148,-5.0131,-5.0345,-5.0657,-5.0937,-5.0811,-5.0602,-5.085,-5.0177,-4.9053,-4.8829,-4.8456,-4.7753,-4.7699,-4.7699,-4.7645,-4.7428,-4.7029,-4.6486,-4.5979,-4.5164,-4.4133,-4.3281,-4.2919,-4.2865,-4.2629,-4.252,-4.2303,-4.1488,-4.0709,-4.013,-3.9405,-3.8807,-3.8263,-3.8209,-3.8209,-3.8209,-3.8444,-3.8301,-3.7865,-3.7557,-3.6941,-3.6252,-3.4969,-3.428,-3.4244,-3.4244,-3.4492,-3.5003,-3.5205,-3.525,-3.5264,-3.5319,-3.507,-3.4595,-3.4559,-3.4344,-3.4064,-3.4289,-3.4601,-3.4711,-3.5147,-3.544,-3.5459,-3.5514,-3.5532,-3.5532,-3.5514,-3.5018,-3.3949,-3.3788,-3.3476,-3.2357,-3.1274,-3.0191,-2.9285,-2.9017,-2.9219,-2.9719,-3.019,-3.044,-3.0911,-3.1628,-3.2124,-3.2555,-3.2655,-3.2746,-3.2814,-3.3309,-3.3709,-3.3505,-3.3771,-3.4089,-3.3688,-3.3008,-3.2403,-3.2039,-3.1706,-3.1468,-3.1804,-3.28,-3.3721,-3.4787,-3.5204,-3.5118,-3.4582,-3.3866,-3.2822,-3.1603,-3.023,-2.876,-4.9984,-4.9937,-4.9663,-4.9573,-4.9543,-4.9543,-4.9767,-5.0086,-5.0335,-5.0468,-5.0565,-5.0972,-5.0563,-4.9645,-4.9404,-4.8894,-4.8167,-4.7859,-4.7699,-4.7699,-4.7699,-4.7391,-4.6848,-4.6269,-4.5417,-4.4168,-4.3281,-4.2919,-4.2919,-4.2919,-4.2919,-4.2755,-4.2085,-4.1451,-4.0854,-3.9912,-3.9097,-3.868,-3.8372,-3.8209,-3.8281,-3.8499,-3.85,-3.821,-3.794,-3.7671,-3.7294,-3.6067,-3.527,-3.5116,-3.5044,-3.5328,-3.581,-3.5875,-3.5924,-3.5939,-3.5964,-3.5772,-3.5316,-3.5042,-3.492,-3.47,-3.4838,-3.509,-3.5398,-3.6036,-3.6266,-3.6285,-3.6248,-3.6285,-3.6266,-3.6266,-3.5771,-3.489,-3.4798,-3.4211,-3.3164,-3.1623,-3.0595,-3.0081,-2.9953,-3.0044,-3.0148,-3.0252,-3.0311,-3.069,-3.0981,-3.1376,-3.1777,-3.1878,-3.1975,-3.2232,-3.2788,-3.2983,-3.2947,-3.3604,-3.4552,-3.4263,-3.3777,-3.328,-3.2857,-3.2472,-3.2212,-3.2781,-3.3631,-3.4181,-3.5131,-3.5405,-3.5397,-3.4591,-3.3895,-3.3035,-3.201,-3.0617,-2.9224,-5.0118,-4.9999,-4.9357,-4.9131,-4.9063,-4.9063,-4.9229,-4.95,-4.9791,-5.0198,-5.0733,-5.1181,-5.1176,-5.0742,-5.0172,-4.9545,-4.8851,-4.8142,-4.7766,-4.7693,-4.7678,-4.7627,-4.7428,-4.6269,-4.5273,-4.444,-4.3498,-4.3064,-4.3118,-4.2973,-4.2919,-4.281,-4.223,-4.1795,-4.1488,-4.0274,-3.9514,-3.9387,-3.8645,-3.8227,-3.8245,-3.8843,-3.8916,-3.8246,-3.8595,-3.8491,-3.7737,-3.7001,-3.6402,-3.5953,-3.5858,-3.5931,-3.5967,-3.5931,-3.6077,-3.6132,-3.603,-3.6077,-3.5854,-3.553,-3.5319,-3.5669,-3.5451,-3.5326,-3.608,-3.6472,-3.6714,-3.6674,-3.6655,-3.6597,-3.6615,-3.6615,-3.6541,-3.645,-3.6156,-3.5385,-3.4027,-3.2559,-3.188,-3.1599,-3.1488,-3.1182,-3.0485,-3.0332,-2.9987,-2.9791,-3.0076,-3.0465,-3.0791,-3.101,-3.1262,-3.163,-3.2017,-3.2415,-3.2438,-3.3582,-3.4456,-3.4381,-3.4083,-3.3852,-3.3532,-3.319,-3.3227,-3.3827,-3.4225,-3.4782,-3.5173,-3.543,-3.5415,-3.4886,-3.4163,-3.3469,-3.2391,-3.1052,-2.9805,-5.0608,-5.0067,-4.9881,-4.9509,-4.9052,-4.9018,-4.9094,-4.929,-4.95,-4.9884,-5.038,-5.083,-5.0769,-5.0357,-5.0354,-4.9697,-4.869,-4.8331,-4.7991,-4.7626,-4.7675,-4.7699,-4.7536,-4.6703,-4.6051,-4.5635,-4.4385,-4.3789,-4.3734,-4.3154,-4.2937,-4.2919,-4.2665,-4.2556,-4.2339,-4.0981,-4.0274,-4.0021,-3.8861,-3.8227,-3.8245,-3.8391,-3.8426,-3.8264,-3.8237,-3.8061,-3.7632,-3.7399,-3.7075,-3.6612,-3.6638,-3.6928,-3.7259,-3.7264,-3.7212,-3.7212,-3.7315,-3.7163,-3.6723,-3.656,-3.6385,-3.6015,-3.623,-3.6607,-3.6807,-3.745,-3.7802,-3.7918,-3.8001,-3.801,-3.8046,-3.801,-3.801,-3.7918,-3.711,-3.6009,-3.4968,-3.4344,-3.3848,-3.3275,-3.2687,-3.2008,-3.125,-3.0686,-3.0274,-3.0008,-2.9869,-2.9765,-3.0213,-3.0327,-3.0639,-3.062,-3.0961,-3.1604,-3.2296,-3.348,-3.4193,-3.4272,-3.4217,-3.4231,-3.3994,-3.3785,-3.417,-3.4765,-3.478,-3.518,-3.5283,-3.5437,-3.5194,-3.4899,-3.4453,-3.3726,-3.2805,-3.1617,-3.0438,-5.1234,-5.0541,-5.0219,-4.9661,-4.9052,-4.9018,-4.9032,-4.9107,-4.9246,-4.95,-4.9913,-5.0268,-5.034,-5.0198,-5.0089,-4.9536,-4.8621,-4.8358,-4.7967,-4.7537,-4.7615,-4.7678,-4.7518,-4.6902,-4.6504,-4.6323,-4.4892,-4.4168,-4.3932,-4.3281,-4.2955,-4.2919,-4.2919,-4.2919,-4.2774,-4.1705,-4.08,-4.0347,-3.9297,-3.8589,-3.8245,-3.8209,-3.8227,-3.814,-3.7969,-3.7667,-3.7376,-3.7266,-3.7201,-3.727,-3.7421,-3.767,-3.7896,-3.7792,-3.7757,-3.7757,-3.7792,-3.7593,-3.7387,-3.7227,-3.7023,-3.6765,-3.6949,-3.7006,-3.7312,-3.7866,-3.8183,-3.8261,-3.8478,-3.8609,-3.8624,-3.8658,-3.8707,-3.8524,-3.7845,-3.6945,-3.6119,-3.5716,-3.5385,-3.4816,-3.4105,-3.3133,-3.21,-3.1513,-3.0962,-3.0525,-3.0376,-3.0219,-3.0165,-3.0128,-3.0472,-3.1017,-3.1444,-3.2291,-3.3143,-3.4215,-3.5045,-3.5045,-3.5048,-3.4955,-3.4632,-3.4465,-3.4695,-3.5124,-3.527,-3.5342,-3.5308,-3.5178,-3.4875,-3.4606,-3.4377,-3.391,-3.3008,-3.2427,-3.1231,-5.1826,-5.1031,-5.0355,-4.9661,-4.9052,-4.9018,-4.9001,-4.9018,-4.9032,-4.9216,-4.95,-4.9762,-4.9982,-5.023,-4.9823,-4.9302,-4.8763,-4.8322,-4.7793,-4.7483,-4.7446,-4.7551,-4.7478,-4.706,-4.6773,-4.654,-4.5055,-4.4584,-4.4367,-4.3625,-4.31,-4.31,-4.3046,-4.301,-4.29,-4.2139,-4.1379,-4.0872,-4.0021,-3.926,-3.8843,-3.8717,-3.8735,-3.8666,-3.8026,-3.7554,-3.7163,-3.6974,-3.7039,-3.7703,-3.7985,-3.7932,-3.7828,-3.7577,-3.7468,-3.7485,-3.7468,-3.7506,-3.7667,-3.7319,-3.7279,-3.7468,-3.6968,-3.688,-3.747,-3.7738,-3.7896,-3.8086,-3.83,-3.843,-3.851,-3.8593,-3.8548,-3.8453,-3.8395,-3.8138,-3.7511,-3.6886,-3.6541,-3.645,-3.5738,-3.4454,-3.339,-3.2596,-3.2149,-3.174,-3.155,-3.1575,-3.163,-3.1881,-3.2324,-3.2859,-3.3185,-3.3468,-3.4253,-3.507,-3.5751,-3.6173,-3.6205,-3.6056,-3.5509,-3.5315,-3.5249,-3.5313,-3.5218,-3.5155,-3.5075,-3.4878,-3.4625,-3.4579,-3.4512,-3.3944,-3.3256,-3.2989,-3.2166,-5.1522,-5.0321,-5.0152,-4.9678,-4.9086,-4.9018,-4.9018,-4.9001,-4.9001,-4.9094,-4.929,-4.9483,-4.9661,-4.9849,-4.9717,-4.9278,-4.8408,-4.8238,-4.7935,-4.7155,-4.7093,-4.7138,-4.7209,-4.7155,-4.7386,-4.7096,-4.6429,-4.594,-4.5596,-4.4455,-4.3824,-4.3732,-4.3133,-4.319,-4.3479,-4.2391,-4.1994,-4.2013,-4.0963,-4.0148,-3.9931,-3.9805,-3.9805,-3.9698,-3.8661,-3.7611,-3.6913,-3.655,-3.6574,-3.6935,-3.7374,-3.7577,-3.7411,-3.7186,-3.7091,-3.7108,-3.7054,-3.715,-3.7356,-3.7416,-3.7471,-3.7433,-3.7289,-3.7271,-3.7414,-3.7559,-3.7721,-3.7898,-3.8053,-3.8152,-3.8348,-3.8478,-3.8227,-3.7903,-3.7786,-3.7456,-3.6909,-3.7459,-3.7826,-3.7679,-3.6707,-3.5591,-3.4509,-3.3243,-3.2889,-3.2865,-3.3025,-3.3123,-3.3332,-3.3556,-3.3779,-3.4113,-3.4029,-3.4222,-3.5156,-3.5973,-3.676,-3.7201,-3.7247,-3.7044,-3.6517,-3.613,-3.6036,-3.5589,-3.5035,-3.4953,-3.4879,-3.4794,-3.4565,-3.4623,-3.4653,-3.4276,-3.3887,-3.3583,-3.3453,-5.1209,-4.9912,-4.9878,-4.9441,-4.8851,-4.8863,-4.8894,-4.8925,-4.897,-4.9032,-4.9124,-4.9246,-4.9307,-4.935,-4.9436,-4.898,-4.8273,-4.7831,-4.7309,-4.6701,-4.656,-4.656,-4.6602,-4.6817,-4.7044,-4.7168,-4.6532,-4.6208,-4.5741,-4.4695,-4.3704,-4.3726,-4.3007,-4.2771,-4.3188,-4.2377,-4.198,-4.1818,-4.128,-4.0614,-4.0308,-4.0217,-4.0105,-3.9917,-3.8997,-3.8018,-3.7186,-3.6827,-3.662,-3.6568,-3.6774,-3.7011,-3.6952,-3.6774,-3.6673,-3.6652,-3.6655,-3.6719,-3.6935,-3.7147,-3.7226,-3.7186,-3.7167,-3.7185,-3.7204,-3.7261,-3.73,-3.7412,-3.7505,-3.7685,-3.808,-3.7845,-3.7518,-3.7154,-3.7165,-3.6721,-3.5789,-3.6578,-3.7588,-3.7367,-3.6321,-3.5349,-3.438,-3.3812,-3.3647,-3.3673,-3.472,-3.4867,-3.4702,-3.4839,-3.4664,-3.4741,-3.4573,-3.4897,-3.5932,-3.6875,-3.7819,-3.8135,-3.8199,-3.788,-3.7412,-3.7099,-3.6826,-3.6115,-3.5342,-3.4781,-3.4672,-3.4588,-3.462,-3.4555,-3.4574,-3.4575,-3.4526,-3.4313,-3.428,-5.066,-4.9438,-4.9421,-4.9053,-4.8582,-4.869,-4.8801,-4.8832,-4.894,-4.9001,-4.9018,-4.9018,-4.9063,-4.9032,-4.9032,-4.8744,-4.8162,-4.7269,-4.6595,-4.6345,-4.608,-4.6027,-4.6035,-4.6109,-4.6255,-4.6642,-4.6219,-4.5939,-4.5508,-4.4493,-4.3938,-4.3568,-4.2753,-4.254,-4.2415,-4.2187,-4.1884,-4.1401,-4.1258,-4.0778,-4.0277,-4.0168,-4.0134,-3.962,-3.9272,-3.8529,-3.7757,-3.7329,-3.6961,-3.6358,-3.6341,-3.6383,-3.6364,-3.6346,-3.6259,-3.6259,-3.628,-3.6385,-3.6533,-3.6716,-3.6818,-3.6838,-3.6878,-3.6895,-3.695,-3.6933,-3.6935,-3.7007,-3.7177,-3.7675,-3.8043,-3.791,-3.7326,-3.6873,-3.6966,-3.6021,-3.477,-3.5133,-3.5495,-3.6046,-3.5518,-3.4724,-3.4761,-3.4564,-3.4504,-3.4669,-3.5752,-3.6486,-3.6303,-3.6005,-3.5758,-3.551,-3.5344,-3.5697,-3.6697,-3.7131,-3.8169,-3.8599,-3.8767,-3.8492,-3.8085,-3.7735,-3.7239,-3.6415,-3.5705,-3.5274,-3.4956,-3.4969,-3.4909,-3.464,-3.4513,-3.4572,-3.4747,-3.4961,-3.4933,-4.9454,-4.8668,-4.8668,-4.8584,-4.8532,-4.8707,-4.8769,-4.8832,-4.8909,-4.9001,-4.8987,-4.9001,-4.9001,-4.9001,-4.9018,-4.8731,-4.8097,-4.7174,-4.649,-4.6254,-4.5883,-4.5589,-4.5511,-4.5511,-4.5606,-4.5726,-4.5775,-4.5901,-4.5798,-4.514,-4.4413,-4.4255,-4.317,-4.2519,-4.2308,-4.1978,-4.1595,-4.1331,-4.1225,-4.0799,-4.0468,-4.0567,-4.06,-3.9953,-3.969,-3.9066,-3.8282,-3.7863,-3.7435,-3.6803,-3.6724,-3.639,-3.6173,-3.6129,-3.616,-3.6041,-3.6023,-3.6105,-3.6233,-3.6343,-3.6447,-3.6547,-3.665,-3.671,-3.6728,-3.6725,-3.6705,-3.6934,-3.7478,-3.8269,-3.9279,-3.8578,-3.8222,-3.776,-3.6958,-3.6128,-3.4801,-3.4202,-3.4179,-3.5114,-3.4711,-3.4417,-3.4789,-3.5233,-3.5453,-3.5765,-3.6696,-3.7463,-3.7643,-3.7165,-3.6666,-3.6401,-3.6154,-3.6722,-3.7475,-3.7655,-3.8164,-3.8609,-3.879,-3.8711,-3.8366,-3.8125,-3.7608,-3.7106,-3.665,-3.6283,-3.5975,-3.556,-3.5311,-3.5118,-3.4873,-3.4602,-3.4672,-3.4774,-3.4908,-4.8927,-4.8261,-4.8244,-4.8244,-4.8293,-4.8405,-4.85,-4.8532,-4.8642,-4.8736,-4.8784,-4.8863,-4.8894,-4.8925,-4.897,-4.8687,-4.7997,-4.7525,-4.6743,-4.6214,-4.5719,-4.532,-4.5073,-4.5022,-4.4978,-4.5042,-4.5222,-4.552,-4.5639,-4.4908,-4.4622,-4.4188,-4.304,-4.231,-4.2119,-4.1551,-4.1261,-4.1157,-4.0826,-4.0461,-4.01,-4.0443,-4.0313,-4.0395,-4.0139,-3.9624,-3.8887,-3.8567,-3.8108,-3.7533,-3.7388,-3.7161,-3.6914,-3.678,-3.6616,-3.6021,-3.5868,-3.5856,-3.5883,-3.5932,-3.6041,-3.6233,-3.6433,-3.6482,-3.6502,-3.6499,-3.6623,-3.6926,-3.7542,-3.8412,-3.8972,-3.8637,-3.8095,-3.7506,-3.6781,-3.5824,-3.4867,-3.4414,-3.4692,-3.4976,-3.4417,-3.4476,-3.508,-3.5593,-3.6197,-3.6908,-3.7674,-3.8181,-3.8655,-3.7991,-3.718,-3.6552,-3.6213,-3.6689,-3.7405,-3.7877,-3.8201,-3.8642,-3.8739,-3.8679,-3.8748,-3.8539,-3.8478,-3.8234,-3.7795,-3.7162,-3.6509,-3.595,-3.5758,-3.5547,-3.5055,-3.4689,-3.4581,-3.4596,-3.49,-4.8531,-4.8001,-4.8001,-4.8001,-4.8033,-4.8147,-4.8195,-4.8227,-4.842,-4.8515,-4.8515,-4.8707,-4.8801,-4.8832,-4.8858,-4.868,-4.8091,-4.7986,-4.7221,-4.6455,-4.5845,-4.5359,-4.4987,-4.4666,-4.4654,-4.4692,-4.4692,-4.4831,-4.5064,-4.4671,-4.4379,-4.4027,-4.2911,-4.2276,-4.2224,-4.1768,-4.1278,-4.0779,-4.0401,-3.9948,-3.9628,-3.9456,-3.9667,-4.0343,-4.04,-4.0039,-3.944,-3.9257,-3.8819,-3.8345,-3.8108,-3.8024,-3.7939,-3.7905,-3.733,-3.6332,-3.6096,-3.6056,-3.6129,-3.6203,-3.6475,-3.6693,-3.6663,-3.6694,-3.675,-3.6947,-3.6935,-3.7267,-3.7904,-3.8557,-3.8879,-3.8313,-3.7815,-3.7345,-3.679,-3.6103,-3.5625,-3.5432,-3.5769,-3.5528,-3.457,-3.4787,-3.5693,-3.6079,-3.672,-3.7268,-3.8011,-3.8261,-3.8551,-3.7973,-3.7199,-3.6423,-3.6125,-3.6481,-3.7122,-3.788,-3.8307,-3.8803,-3.8697,-3.8521,-3.879,-3.899,-3.891,-3.8775,-3.8348,-3.7687,-3.6996,-3.6588,-3.6601,-3.6266,-3.5324,-3.502,-3.5364,-3.5441,-3.5578,-4.8084,-4.8001,-4.8001,-4.8001,-4.8033,-4.8147,-4.8195,-4.8227,-4.8388,-4.8483,-4.8452,-4.8675,-4.8769,-4.8801,-4.8925,-4.892,-4.8666,-4.8227,-4.7787,-4.7229,-4.6346,-4.5691,-4.5415,-4.4869,-4.4604,-4.4542,-4.457,-4.4626,-4.4714,-4.4623,-4.4533,-4.4279,-4.3661,-4.3206,-4.2947,-4.2141,-4.1816,-4.1256,-4.1011,-4.0298,-3.9253,-3.8591,-3.8761,-3.9331,-3.9832,-4.012,-3.9926,-3.9808,-3.9537,-3.8971,-3.887,-3.8548,-3.8041,-3.7898,-3.7848,-3.7686,-3.7635,-3.7635,-3.7516,-3.7358,-3.7371,-3.7483,-3.7689,-3.7912,-3.7741,-3.7757,-3.7965,-3.8698,-3.8982,-3.9047,-3.9112,-3.8802,-3.8282,-3.8009,-3.7728,-3.7145,-3.6612,-3.6912,-3.723,-3.6785,-3.6023,-3.6188,-3.6752,-3.6957,-3.7235,-3.7778,-3.8247,-3.8519,-3.8554,-3.8123,-3.7474,-3.6721,-3.6387,-3.6691,-3.6793,-3.7583,-3.812,-3.8742,-3.8581,-3.8382,-3.8799,-3.9073,-3.9082,-3.8892,-3.8544,-3.8451,-3.8116,-3.7838,-3.7671,-3.7076,-3.624,-3.6242,-3.6565,-3.6497,-3.6224,-4.8001,-4.8001,-4.8001,-4.8001,-4.8001,-4.8066,-4.8082,-4.8115,-4.8179,-4.8212,-4.8244,-4.8373,-4.8532,-4.8627,-4.869,-4.8784,-4.8796,-4.854,-4.8183,-4.7787,-4.6807,-4.6034,-4.5424,-4.4817,-4.444,-4.444,-4.444,-4.4497,-4.4542,-4.4598,-4.4598,-4.4479,-4.3842,-4.3352,-4.3386,-4.2252,-4.161,-4.1044,-4.0409,-3.9631,-3.9073,-3.8751,-3.8853,-3.9588,-3.9926,-4.0079,-4.0113,-4.0096,-3.9994,-3.9639,-3.9622,-3.952,-3.9225,-3.9157,-3.9157,-3.914,-3.914,-3.8734,-3.8041,-3.7973,-3.8014,-3.7953,-3.8024,-3.7963,-3.8082,-3.8398,-3.8638,-3.8945,-3.9443,-3.9549,-3.9282,-3.899,-3.848,-3.8203,-3.8007,-3.7741,-3.7479,-3.8439,-3.8634,-3.8061,-3.7578,-3.7632,-3.7524,-3.7273,-3.7611,-3.8345,-3.8791,-3.9122,-3.9102,-3.882,-3.8065,-3.7199,-3.6997,-3.6993,-3.6948,-3.7231,-3.7606,-3.8065,-3.8183,-3.8188,-3.8776,-3.9045,-3.9073,-3.9101,-3.8897,-3.8897,-3.9045,-3.8599,-3.7949,-3.7559,-3.7225,-3.719,-3.7141,-3.6844,-3.6528,-4.8001,-4.8001,-4.8001,-4.8001,-4.8001,-4.8001,-4.8001,-4.8001,-4.8001,-4.8017,-4.8033,-4.8179,-4.8324,-4.8483,-4.8515,-4.8658,-4.8801,-4.8801,-4.8543,-4.7994,-4.72,-4.638,-4.5635,-4.4887,-4.4298,-4.431,-4.4338,-4.444,-4.4542,-4.4598,-4.4598,-4.4581,-4.4113,-4.3809,-4.3453,-4.2895,-4.2236,-4.1508,-4.0189,-3.9377,-3.9046,-3.8971,-3.9266,-3.9673,-3.9977,-4.0113,-4.0113,-4.0113,-4.0079,-4.0062,-4.0028,-3.996,-3.9926,-3.9876,-3.9893,-3.9893,-3.9876,-3.9529,-3.8903,-3.8633,-3.8464,-3.8447,-3.8447,-3.8698,-3.8657,-3.9005,-3.93,-3.9385,-3.9706,-3.9622,-3.9182,-3.8843,-3.8221,-3.7678,-3.7356,-3.7386,-3.7486,-3.8053,-3.8591,-3.839,-3.8121,-3.8563,-3.8316,-3.7665,-3.7925,-3.8792,-3.9337,-3.9714,-3.9718,-3.9582,-3.9261,-3.8545,-3.8193,-3.7991,-3.7547,-3.7518,-3.764,-3.7462,-3.7595,-3.7924,-3.847,-3.8887,-3.9064,-3.9073,-3.9101,-3.9082,-3.9064,-3.8599,-3.8191,-3.8154,-3.8042,-3.7708,-3.7498,-3.7257,-3.7023,-4.8001,-4.8001,-4.7984,-4.7984,-4.8001,-4.8001,-4.8001,-4.8001,-4.8001,-4.8001,-4.8033,-4.8147,-4.8308,-4.842,-4.8452,-4.8564,-4.8769,-4.8801,-4.8731,-4.8287,-4.7396,-4.6666,-4.5937,-4.5123,-4.4267,-4.432,-4.4286,-4.4355,-4.4514,-4.4514,-4.4542,-4.4547,-4.4367,-4.4451,-4.4282,-4.3792,-4.298,-4.2066,-4.0696,-3.9774,-3.936,-3.9157,-3.9157,-3.9309,-3.9757,-4.0113,-4.0113,-4.0113,-4.0113,-4.0113,-4.0113,-4.0113,-4.0113,-4.0113,-4.0113,-4.0113,-4.0113,-3.9893,-3.9639,-3.9605,-3.9842,-3.9893,-3.9808,-3.9639,-3.9588,-3.9825,-3.9994,-3.991,-4.0028,-3.9706,-3.9056,-3.8413,-3.8024,-3.7229,-3.6818,-3.657,-3.6715,-3.7074,-3.7624,-3.8166,-3.8617,-3.9073,-3.9425,-3.886,-3.8608,-3.9398,-4.0228,-4.0654,-4.0652,-4.0583,-4.0681,-4.0274,-3.9758,-3.9261,-3.849,-3.812,-3.7327,-3.7132,-3.7237,-3.7595,-3.8067,-3.8465,-3.9064,-3.9073,-3.9101,-3.9101,-3.9082,-3.8804,-3.8711,-3.8934,-3.8841,-3.8395,-3.8316,-3.8292,-3.8027,-4.7736,-4.7338,-4.7322,-4.7587,-4.8001,-4.8001,-4.8001,-4.8001,-4.8001,-4.8001,-4.8001,-4.8049,-4.8131,-4.8179,-4.8228,-4.8276,-4.8405,-4.8436,-4.8564,-4.8325,-4.7637,-4.7074,-4.6427,-4.5547,-4.4649,-4.4545,-4.4323,-4.4126,-4.427,-4.4344,-4.4298,-4.4327,-4.4485,-4.457,-4.4513,-4.4164,-4.3335,-4.2455,-4.1407,-4.0595,-4.0392,-3.9851,-3.9665,-3.974,-3.9817,-4.0096,-4.0113,-4.0113,-4.0113,-4.0113,-4.0096,-4.0113,-4.0113,-4.0113,-4.0113,-4.0113,-4.0113,-4.0113,-4.0113,-4.0113,-4.0113,-4.0113,-4.0079,-4.0113,-4.0113,-4.0113,-4.0113,-4.0096,-4.0146,-3.9876,-3.914,-3.8734,-3.8244,-3.706,-3.6384,-3.6111,-3.6185,-3.6668,-3.7141,-3.7881,-3.8795,-3.9541,-3.9882,-4.0107,-3.9956,-4.0026,-4.0836,-4.1474,-4.136,-4.1342,-4.1357,-4.1081,-4.0481,-3.9599,-3.8777,-3.782,-3.6853,-3.682,-3.6897,-3.7432,-3.7951,-3.8605,-3.9087,-3.9101,-3.9101,-3.9087,-3.9087,-3.9101,-3.9101,-3.9101,-3.9101,-3.899,-3.904,-3.9129,-3.8752,-4.7587,-4.6924,-4.6908,-4.7057,-4.7338,-4.7338,-4.7338,-4.7388,-4.757,-4.7835,-4.8001,-4.8001,-4.8001,-4.8001,-4.8001,-4.8082,-4.8195,-4.8227,-4.8356,-4.8119,-4.7749,-4.7354,-4.671,-4.5815,-4.4753,-4.472,-4.4297,-4.3969,-4.4126,-4.4097,-4.4126,-4.4184,-4.4315,-4.4429,-4.4378,-4.4045,-4.3386,-4.2658,-4.2219,-4.1837,-4.1762,-4.117,-4.1018,-4.1035,-4.1026,-4.0628,-4.0561,-4.0434,-4.0248,-4.0138,-4.0045,-4.0096,-4.0113,-4.0113,-4.0113,-4.0113,-4.0113,-4.0113,-4.0113,-4.0113,-4.0113,-4.0113,-4.0113,-4.0113,-4.0113,-4.0113,-4.0163,-4.0493,-4.0443,-4.024,-3.9732,-3.9698,-3.9225,-3.8261,-3.7178,-3.6786,-3.6548,-3.6801,-3.7182,-3.77,-3.8534,-3.9284,-3.9962,-4.029,-4.0545,-4.0515,-4.101,-4.1555,-4.1694,-4.1676,-4.1756,-4.1342,-4.0763,-3.9768,-3.8767,-3.7962,-3.7187,-3.6607,-3.6791,-3.7429,-3.8005,-3.8655,-3.9055,-3.9101,-3.9087,-3.9092,-3.9092,-3.9073,-3.9087,-3.9101,-3.9101,-3.9101,-3.9101,-3.9078,-3.8929,-4.7487,-4.6924,-4.6825,-4.6427,-4.5881,-4.5864,-4.593,-4.6179,-4.6742,-4.7388,-4.7968,-4.8001,-4.8001,-4.8001,-4.8001,-4.8049,-4.8147,-4.8163,-4.826,-4.8189,-4.7758,-4.7328,-4.6733,-4.5906,-4.5244,-4.4787,-4.4517,-4.431,-4.4257,-4.4394,-4.4323,-4.4152,-4.4198,-4.4212,-4.4327,-4.4497,-4.413,-4.3504,-4.3318,-4.3122,-4.2902,-4.2303,-4.2269,-4.2301,-4.2018,-4.1435,-4.1096,-4.0819,-4.0583,-4.0255,-4.0113,-4.0113,-4.0113,-4.0113,-4.0113,-4.0113,-4.0113,-4.0113,-4.0113,-4.0113,-4.0113,-4.0113,-4.0113,-4.0113,-4.0113,-4.0146,-4.0383,-4.0781,-4.1001,-4.139,-4.1271,-4.1001,-4.0307,-3.9512,-3.8413,-3.7658,-3.7458,-3.7029,-3.7432,-3.7767,-3.8099,-3.8625,-3.9553,-4.0313,-4.0781,-4.1059,-4.1326,-4.1573,-4.1768,-4.1889,-4.1912,-4.1592,-4.0983,-4.0143,-3.9175,-3.8308,-3.754,-3.6862,-3.6665,-3.7221,-3.789,-3.8563,-3.8872,-3.9027,-3.9021,-3.8968,-3.8993,-3.9031,-3.9003,-3.8974,-3.9073,-3.9101,-3.9101,-3.9064,-3.8934,-4.6113,-4.5433,-4.5433,-4.5019,-4.4539,-4.54,-4.5798,-4.593,-4.6576,-4.7305,-4.7885,-4.8001,-4.8001,-4.8001,-4.8001,-4.8033,-4.8066,-4.8066,-4.8164,-4.8114,-4.7766,-4.7783,-4.7287,-4.654,-4.6028,-4.6009,-4.5559,-4.5042,-4.5288,-4.5116,-4.482,-4.4604,-4.4206,-4.4114,-4.4298,-4.4468,-4.4367,-4.4113,-4.3741,-4.3369,-4.3308,-4.2784,-4.2469,-4.2682,-4.2391,-4.2017,-4.16,-4.1325,-4.0985,-4.0624,-4.0484,-4.0282,-4.0265,-4.0265,-4.0214,-4.0163,-4.0146,-4.0113,-4.0113,-4.0113,-4.0113,-4.0146,-4.0113,-4.0113,-4.0113,-4.0113,-4.0493,-4.1052,-4.1373,-4.1745,-4.1813,-4.1863,-4.1373,-4.0713,-3.98,-3.9056,-3.8597,-3.7919,-3.779,-3.8058,-3.8326,-3.918,-4.0065,-4.0521,-4.0957,-4.1053,-4.1232,-4.1413,-4.1591,-4.1789,-4.1872,-4.1641,-4.1161,-4.0402,-3.9572,-3.8454,-3.7737,-3.7133,-3.6799,-3.6906,-3.7613,-3.8245,-3.8773,-3.898,-3.8895,-3.8825,-3.8966,-3.9032,-3.887,-3.8829,-3.8855,-3.8984,-3.9073,-3.9087,-3.9064,-4.5351,-4.4735,-4.4718,-4.4274,-4.3797,-4.4655,-4.5168,-4.545,-4.5947,-4.6676,-4.7454,-4.762,-4.7785,-4.7918,-4.8001,-4.8001,-4.8001,-4.8001,-4.8001,-4.7968,-4.7669,-4.7537,-4.7255,-4.6742,-4.6046,-4.6212,-4.5897,-4.5431,-4.5663,-4.5779,-4.5348,-4.4716,-4.4391,-4.4252,-4.4306,-4.4298,-4.4384,-4.417,-4.3884,-4.3867,-4.3799,-4.3496,-4.3126,-4.3166,-4.2993,-4.2574,-4.2228,-4.1881,-4.157,-4.1305,-4.104,-4.084,-4.084,-4.0857,-4.0832,-4.0857,-4.0874,-4.0908,-4.0959,-4.0976,-4.106,-4.101,-4.0485,-4.013,-4.0197,-4.04,-4.0916,-4.1407,-4.1711,-4.2337,-4.2844,-4.2912,-4.2422,-4.1762,-4.1221,-4.0476,-3.958,-3.892,-3.8362,-3.8597,-3.8756,-3.9664,-4.0534,-4.0803,-4.1181,-4.1125,-4.1059,-4.1244,-4.1398,-4.1525,-4.1644,-4.1446,-4.1108,-4.0387,-3.9435,-3.8343,-3.7753,-3.7381,-3.6922,-3.6445,-3.6933,-3.7493,-3.8198,-3.8941,-3.9056,-3.9129,-3.9082,-3.9043,-3.893,-3.8695,-3.8486,-3.8688,-3.8956,-3.9031,-3.9031,-4.5301,-4.4705,-4.4655,-4.4241,-4.3681,-4.3747,-4.4125,-4.4705,-4.4754,-4.5599,-4.6924,-4.699,-4.7371,-4.7918,-4.8001,-4.8001,-4.8001,-4.8001,-4.8001,-4.7802,-4.7404,-4.7173,-4.6593,-4.5798,-4.5847,-4.5649,-4.5566,-4.5814,-4.5881,-4.6013,-4.5599,-4.5083,-4.4992,-4.4734,-4.449,-4.4445,-4.4398,-4.4205,-4.4083,-4.4184,-4.4279,-4.4188,-4.4054,-4.4047,-4.3877,-4.3339,-4.2956,-4.2702,-4.2406,-4.2198,-4.2058,-4.2148,-4.2219,-4.2269,-4.2269,-4.2236,-4.2134,-4.2049,-4.1999,-4.1931,-4.1982,-4.1728,-4.0993,-4.0451,-4.0485,-4.1001,-4.1559,-4.2202,-4.2692,-4.3521,-4.4181,-4.3809,-4.3409,-4.2963,-4.2557,-4.1711,-4.0704,-3.9978,-3.9394,-3.9242,-3.9242,-3.9857,-4.0805,-4.1237,-4.1584,-4.1253,-4.1168,-4.1032,-4.1157,-4.1059,-4.118,-4.114,-4.077,-4.0278,-3.9321,-3.8286,-3.7341,-3.686,-3.6096,-3.5676,-3.6197,-3.6894,-3.7694,-3.8479,-3.9218,-3.9487,-3.9504,-3.9309,-3.9026,-3.879,-3.8683,-3.8558,-3.8897,-3.891,-3.8935,-4.4095,-4.3926,-4.3943,-4.378,-4.3615,-4.3615,-4.4026,-4.4638,-4.4735,-4.5516,-4.6908,-4.6891,-4.7156,-4.7968,-4.8001,-4.7951,-4.7968,-4.8001,-4.8001,-4.7669,-4.7023,-4.6924,-4.6477,-4.5847,-4.598,-4.6179,-4.6311,-4.6245,-4.6957,-4.6858,-4.6493,-4.6278,-4.5711,-4.5393,-4.5244,-4.5258,-4.4777,-4.4361,-4.4206,-4.4336,-4.442,-4.4236,-4.4261,-4.4156,-4.4027,-4.3523,-4.3394,-4.3079,-4.2813,-4.278,-4.2456,-4.2337,-4.2303,-4.2303,-4.2286,-4.2286,-4.2269,-4.2269,-4.2303,-4.232,-4.2405,-4.2472,-4.1897,-4.1822,-4.1745,-4.1931,-4.2354,-4.2828,-4.3318,-4.3961,-4.4412,-4.4231,-4.4045,-4.3792,-4.3386,-4.2726,-4.1803,-4.1296,-4.073,-4.0375,-4.0341,-4.0697,-4.1537,-4.1912,-4.2142,-4.1655,-4.1285,-4.1136,-4.0968,-4.092,-4.0888,-4.0912,-4.0722,-4.0343,-3.9349,-3.8265,-3.7206,-3.6276,-3.5454,-3.5084,-3.5794,-3.6524,-3.731,-3.8277,-3.9336,-3.9823,-3.9987,-3.9715,-3.9403,-3.9362,-3.9274,-3.8957,-3.88,-3.8944,-3.9078,-4.3615,-4.3615,-4.3615,-4.3615,-4.3615,-4.3615,-4.391,-4.4241,-4.4274,-4.497,-4.5947,-4.598,-4.6427,-4.699,-4.704,-4.704,-4.704,-4.6974,-4.699,-4.6808,-4.646,-4.6046,-4.5748,-4.545,-4.5301,-4.5781,-4.6146,-4.603,-4.6941,-4.7123,-4.6792,-4.6311,-4.6113,-4.6063,-4.5846,-4.5645,-4.5424,-4.4933,-4.456,-4.439,-4.424,-4.4073,-4.3868,-4.3772,-4.361,-4.3485,-4.3558,-4.3177,-4.3108,-4.3304,-4.3026,-4.3052,-4.3025,-4.3025,-4.3042,-4.3109,-4.3126,-4.317,-4.3225,-4.3202,-4.3145,-4.3149,-4.3132,-4.3227,-4.3031,-4.3031,-4.3115,-4.3301,-4.369,-4.4062,-4.4361,-4.4581,-4.4581,-4.4547,-4.4079,-4.3656,-4.3149,-4.2692,-4.2236,-4.1779,-4.1822,-4.2042,-4.2417,-4.2751,-4.2685,-4.2133,-4.169,-4.1406,-4.118,-4.0944,-4.0927,-4.0888,-4.0774,-4.0504,-3.9425,-3.8365,-3.7307,-3.6048,-3.4603,-3.4524,-3.5318,-3.5867,-3.64,-3.7946,-3.9733,-4.0064,-4.0323,-4.0126,-3.9873,-3.977,-3.9573,-3.9276,-3.9193,-3.9476,-3.9556,-4.3615,-4.3615,-4.3615,-4.3615,-4.3615,-4.3615,-4.3615,-4.3615,-4.3664,-4.4059,-4.4705,-4.4785,-4.5268,-4.603,-4.6129,-4.6096,-4.6146,-4.6162,-4.6195,-4.5781,-4.5351,-4.5069,-4.4787,-4.4108,-4.4522,-4.4638,-4.4937,-4.5516,-4.598,-4.6427,-4.6609,-4.593,-4.6643,-4.6775,-4.6411,-4.6328,-4.6258,-4.6076,-4.546,-4.5012,-4.455,-4.4092,-4.3631,-4.3529,-4.323,-4.2936,-4.3326,-4.3331,-4.321,-4.3689,-4.3977,-4.3975,-4.3925,-4.3937,-4.3942,-4.3942,-4.382,-4.3888,-4.3923,-4.3962,-4.4136,-4.4322,-4.4581,-4.4344,-4.3978,-4.3758,-4.3741,-4.3775,-4.4113,-4.4265,-4.453,-4.4598,-4.4598,-4.4598,-4.4333,-4.4045,-4.3758,-4.3453,-4.3267,-4.2946,-4.3014,-4.321,-4.3142,-4.3444,-4.3325,-4.2709,-4.232,-4.1989,-4.163,-4.1336,-4.1081,-4.1064,-4.106,-4.0784,-3.9692,-3.8614,-3.7469,-3.607,-3.4555,-3.4229,-3.522,-3.5402,-3.5402,-3.7547,-3.9779,-4.0334,-4.0588,-4.0442,-4.0206,-3.9787,-3.9595,-3.9446,-3.96,-3.999,-3.9895,-4.3615,-4.3615,-4.3615,-4.3615,-4.3615,-4.3615,-4.3615,-4.3615,-4.3615,-4.4009,-4.4589,-4.4752,-4.5019,-4.5533,-4.5599,-4.5599,-4.5649,-4.5483,-4.5748,-4.5467,-4.4903,-4.4556,-4.4522,-4.3976,-4.4045,-4.4473,-4.4835,-4.4953,-4.5582,-4.6278,-4.6858,-4.6692,-4.7272,-4.7421,-4.7272,-4.7255,-4.7222,-4.7123,-4.6609,-4.5698,-4.492,-4.4589,-4.4241,-4.383,-4.3416,-4.34,-4.3658,-4.3693,-4.3668,-4.391,-4.401,-4.408,-4.408,-4.4097,-4.4097,-4.4097,-4.4068,-4.4126,-4.4196,-4.4281,-4.4355,-4.4485,-4.457,-4.457,-4.4513,-4.4395,-4.4344,-4.4378,-4.4429,-4.453,-4.4598,-4.4598,-4.4598,-4.4598,-4.4598,-4.4429,-4.4276,-4.4225,-4.4141,-4.413,-4.4164,-4.4096,-4.4005,-4.3921,-4.383,-4.3576,-4.3227,-4.2901,-4.2481,-4.2108,-4.1535,-4.1496,-4.1616,-4.1198,-3.9991,-3.8888,-3.7767,-3.6663,-3.529,-3.5114,-3.5163,-3.598,-3.6748,-3.8157,-3.9733,-4.0319,-4.0764,-4.0936,-4.0643,-4.0135,-4.0049,-4.008,-4.0354,-4.0754,-4.0344,-4.3615,-4.3615,-4.3615,-4.3615,-4.3615,-4.3615,-4.3615,-4.3615,-4.3615,-4.3813,-4.4175,-4.4241,-4.4473,-4.4837,-4.4837,-4.492,-4.4903,-4.4804,-4.4688,-4.4589,-4.4589,-4.4274,-4.4009,-4.3813,-4.3847,-4.4175,-4.4224,-4.4489,-4.5102,-4.5864,-4.6394,-4.6643,-4.7355,-4.8001,-4.8001,-4.8001,-4.8001,-4.7951,-4.752,-4.6742,-4.5616,-4.5317,-4.5069,-4.4622,-4.4307,-4.4191,-4.3989,-4.3999,-4.3979,-4.4158,-4.4351,-4.4081,-4.3981,-4.3835,-4.3864,-4.3864,-4.3864,-4.3952,-4.4068,-4.4155,-4.4212,-4.4344,-4.44,-4.4327,-4.444,-4.4322,-4.4406,-4.444,-4.4485,-4.4598,-4.4598,-4.4598,-4.4598,-4.4598,-4.4598,-4.4513,-4.4462,-4.4445,-4.4412,-4.4412,-4.4429,-4.4412,-4.4327,-4.4327,-4.4209,-4.409,-4.3809,-4.3453,-4.3095,-4.2971,-4.2389,-4.1988,-4.2148,-4.1357,-3.9957,-3.9008,-3.8129,-3.7025,-3.6008,-3.5439,-3.5318,-3.6934,-3.8308,-3.9086,-3.9783,-4.0331,-4.0735,-4.099,-4.1029,-4.0607,-4.07,-4.088,-4.1134,-4.1186,-4.0774,-4.3615,-4.3615,-4.3615,-4.3615,-4.3615,-4.3615,-4.3615,-4.3615,-4.3615,-4.3615,-4.3664,-4.3664,-4.3615,-4.3615,-4.3615,-4.3615,-4.3714,-4.3979,-4.3813,-4.3764,-4.3747,-4.378,-4.3764,-4.3631,-4.3698,-4.378,-4.3926,-4.3976,-4.4208,-4.5384,-4.6295,-4.6278,-4.7023,-4.8001,-4.8001,-4.8001,-4.8001,-4.8001,-4.7785,-4.7587,-4.6957,-4.6311,-4.5914,-4.5549,-4.5218,-4.4854,-4.4622,-4.4473,-4.4373,-4.447,-4.4716,-4.4367,-4.4003,-4.3803,-4.3658,-4.3658,-4.3687,-4.3793,-4.3881,-4.3939,-4.4027,-4.4068,-4.4085,-4.4188,-4.432,-4.4372,-4.4429,-4.453,-4.4587,-4.4598,-4.4598,-4.4598,-4.4598,-4.4598,-4.4598,-4.4598,-4.4598,-4.4598,-4.4598,-4.4598,-4.4598,-4.4598,-4.4598,-4.4598,-4.453,-4.4429,-4.4198,-4.3826,-4.3582,-4.362,-4.3379,-4.2925,-4.2765,-4.1652,-4.03,-3.937,-3.8698,-3.7771,-3.6801,-3.5835,-3.5576,-3.7189,-3.8432,-3.9174,-3.9819,-4.0447,-4.0723,-4.0907,-4.0894,-4.0894,-4.0918,-4.0982,-4.0965,-4.1035,-4.0965,-4.3615,-4.3615,-4.3615,-4.3615,-4.3615,-4.3615,-4.3615,-4.3615,-4.3615,-4.3615,-4.3615,-4.3615,-4.3615,-4.3615,-4.3615,-4.3615,-4.3615,-4.3615,-4.3615,-4.3631,-4.3615,-4.3615,-4.3615,-4.3615,-4.3615,-4.3764,-4.4075,-4.4423,-4.4506,-4.5765,-4.6659,-4.6709,-4.7421,-4.7984,-4.8001,-4.8001,-4.8001,-4.8001,-4.8001,-4.7835,-4.7669,-4.704,-4.6361,-4.5997,-4.5665,-4.5582,-4.5516,-4.5467,-4.5467,-4.5367,-4.5102,-4.4787,-4.4456,-4.4125,-4.3946,-4.3979,-4.3946,-4.4019,-4.4158,-4.4201,-4.431,-4.4344,-4.439,-4.4382,-4.4435,-4.4421,-4.4507,-4.4603,-4.4643,-4.4587,-4.457,-4.4598,-4.4598,-4.4598,-4.4598,-4.4598,-4.4598,-4.4598,-4.4598,-4.4598,-4.4598,-4.4598,-4.4598,-4.4598,-4.4598,-4.4513,-4.4513,-4.4181,-4.413,-4.4236,-4.4281,-4.3871,-4.3408,-4.2663,-4.1599,-4.0283,-3.9434,-3.8508,-3.7581,-3.6559,-3.6439,-3.7491,-3.8525,-3.91,-3.9963,-4.0728,-4.0894,-4.0894,-4.0894,-4.0894,-4.0894,-4.0894,-4.0894,-4.0894,-4.0894]},{"header":{"parameterUnit":"m.s-1","parameterCategory":1,"la1":31.0,"la2":29.5877,"lo1":-88.7671,"lo2":-86.6584,"dy":0.0162,"dx":0.0185,"nx":115,"ny":88,"refTime":"2026-04-10T12:00:00:Z","depth":0,"parameterNumber":3,"parameterNumberName":"V-component_of_WINDS"},"data":[0.0,0.0,0.0,0.0,0.0,0.0,0.0,0.0,0.0,0.0,0.0,0.0,0.0,0.0,0.0,0.0,0.0,0.0,0.0,0.0,0.0,0.0,0.0,0.0,0.0,0.0,0.0,0.0,0.0,0.0,0.0,0.0,0.0,0.0,0.0,0.0,0.0,0.0,0.0,0.0,0.0,0.0,0.0,0.0,0.0,0.0,0.0,0.0,0.0,0.0,0.0,0.0,0.0,0.0,0.0,0.0,0.0,0.0,0.0,0.0,0.0,0.0,0.0,0.0,0.0,0.0,0.0,0.0,0.0,0.0,0.0,0.0,0.0,0.0,0.0,0.0,0.0,0.0,0.0,0.0,0.0,0.0,0.0,0.0,0.0,0.0,0.0,0.0,0.0,0.0,0.0,0.0,0.0,0.0,0.0,0.0,0.0,0.0,0.0,0.0,0.0,0.0,0.0,0.0,0.0,0.0,0.0,0.0,0.0,0.0,0.0,0.0,0.0,0.0,0.0,0.0,0.0,0.0,0.0,0.0,0.0,0.0,0.0,0.0,0.0,0.0,0.0,0.0,0.0,0.0,0.0,0.0,0.0,0.0,0.0,0.0,0.0,0.0,0.0,0.0,0.0,0.0,0.0,0.0,0.0,0.0,0.0,0.0,0.0,0.0,0.0,0.0,0.0,0.0,0.0,0.0,0.0,0.0,0.0,0.0,0.0,0.0,0.0,0.0,0.0,0.0,0.0,0.0,0.0,0.0,0.0,0.0,0.0,0.0,0.0,0.0,0.0,0.0,0.0,0.0,0.0,0.0,0.0,0.0,0.0,0.0,0.0,0.0,0.0,0.0,0.0,0.0,0.0,0.0,0.0,0.0,0.0,0.0,0.0,0.0,0.0,0.0,0.0,0.0,0.0,0.0,0.0,0.0,0.0,0.0,0.0,0.0,0.0,0.0,0.0,0.0,0.0,0.0,0.0,0.0,0.0,0.0,0.0,0.0,0.0,0.0,0.0,0.0,0.0,0.0,0.0,0.0,0.0,0.0,0.0,0.0,0.0,0.0,0.0,0.0,0.0,0.0,0.0,0.0,0.0,0.0,0.0,0.0,0.0,0.0,0.0,0.0,0.0,0.0,0.0,0.0,0.0,0.0,0.0,0.0,0.0,0.0,0.0,0.0,0.0,0.0,0.0,0.0,0.0,0.0,0.0,0.0,0.0,0.0,0.0,0.0,0.0,0.0,0.0,0.0,0.0,0.0,0.0,0.0,0.0,0.0,0.0,0.0,0.0,0.0,0.0,0.0,0.0,0.0,0.0,0.0,0.0,0.0,0.0,0.0,0.0,0.0,0.0,0.0,0.0,0.0,0.0,0.0,0.0,0.0,0.0,0.0,0.0,0.0,0.0,0.0,0.0,0.0,0.0,0.0,0.0,0.0,0.0,0.0,0.0,0.0,0.0,0.0,0.0,0.0,0.0,0.0,0.0,0.0,0.0,0.0,0.0,0.0,0.0,0.0,0.0,0.0,0.0,0.0,0.0,0.0,0.0,0.0,0.0,0.0,0.0,0.0,0.0,0.0,0.0,0.0,0.0,0.0,0.0,0.0,0.0,0.0,0.0,0.0,0.0,0.0,0.0,0.0,0.0,0.0,0.0,0.0,0.0,0.0,0.0,0.0,0.0,0.0,0.0,0.0,0.0,0.0,0.0,0.0,0.0,0.0,0.0,0.0,0.0,0.0,0.0,0.0,0.0,0.0,0.0,0.0,0.0,0.0,0.0,0.0,0.0,0.0,0.0,0.0,0.0,0.0,0.0,0.0,0.0,0.0,0.0,0.0,0.0,0.0,0.0,0.0,0.0,0.0,0.0,0.0,0.0,0.0,0.0,0.0,0.0,0.0,0.0,0.0,0.0,0.0,0.0,0.0,0.0,0.0,0.0,0.0,0.0,0.0,0.0,0.0,0.0,0.0,0.0,0.0,0.0,0.0,0.0,0.0,0.0,0.0,0.0,0.0,0.0,0.0,0.0,0.0,0.0,0.0,0.0,0.0,0.0,0.0,0.0,0.0,0.0,0.0,0.0,0.0,0.0,0.0,0.0,0.0,0.0,0.0,0.0,0.0,0.0,0.0,0.0,0.0,0.0,0.0,0.0,0.0,0.0,0.0,0.0,0.0,0.0,0.0,0.0,0.0,0.0,0.0,0.0,0.0,0.0,0.0,0.0,0.0,0.0,0.0,0.0,0.0,0.0,0.0,0.0,0.0,0.0,0.0,0.0,0.0,0.0,0.0,0.0,0.0,0.0,0.0,0.0,0.0,0.0,0.0,0.0,0.0,0.0,0.0,0.0,0.0,0.0,0.0,0.0,0.0,0.0,0.0,0.0,0.0,0.0,0.0,0.0,0.0,0.0,0.0,0.0,0.0,0.0,0.0,0.0,0.0,0.0,0.0,0.0,0.0,0.0,0.0,0.0,0.0,0.0,0.0,0.0,0.0,0.0,0.0,0.0,0.0,0.0,0.0,0.0,0.0,0.0,0.0,0.0,0.0,0.0,0.0,0.0,0.0,0.0,0.0,0.0,0.0,0.0,0.0,0.0,0.0,0.0,0.0,0.0,0.0,0.0,0.0,0.0,0.0,0.0,0.0,0.0,0.0,0.0,0.0,0.0,0.0,0.0,0.0,0.0,0.0,0.0,0.0,0.0,0.0,0.0,0.0,0.0,0.0,0.0,0.0,0.0,0.0,0.0,0.0,0.0,0.0,0.0,0.0,0.0,0.0,0.0,0.0,0.0,0.0,0.0,0.0,0.0,0.0,0.0,0.0,0.0,0.0,0.0,0.0,0.0,0.0,0.0,0.0,0.0,0.0,0.0,0.0,0.0,0.0,0.0,0.0,0.0,0.0,0.0,0.0,0.0,0.0,0.0,0.0,0.0,0.0,0.0,0.0,0.0,0.0,0.0,0.0,0.0,0.0,0.0,0.0,0.0,0.0,0.0,0.0,0.0,0.0,0.0,0.0,0.0,0.0,0.0,0.0,0.0,0.0,0.0,0.0,0.0,0.0,0.0,0.0,0.0,0.0,0.0,0.0,0.0,0.0,0.0,0.0,0.0,0.0,0.0,0.0,0.0,0.0,0.0,0.0,0.0,0.0,0.0,0.0,0.0,0.0,0.0,0.0,0.0,0.0,0.0,0.0,0.0,0.0,0.0,0.0,0.0,0.0,0.0,0.0,0.0,0.0,0.0,0.0,0.0,0.0,0.0,0.0,0.0,0.0,0.0,0.0,0.0,0.0,0.0,0.0,0.0,0.0,0.0,0.0,0.0,0.0,0.0,0.0,0.0,0.0,0.0,0.0,0.0,0.0,0.0,0.0,0.0,0.0,0.0,0.0,0.0,0.0,0.0,0.0,0.0,0.0,0.0,0.0,0.0,0.0,0.0,0.0,0.0,0.0,0.0,0.0,0.0,0.0,0.0,0.0,0.0,0.0,0.0,0.0,0.0,0.0,0.0,0.0,0.0,0.0,0.0,0.0,0.0,0.0,0.0,0.0,0.0,0.0,0.0,0.0,0.0,0.0,0.0,0.0,0.0,0.0,0.0,0.0,0.0,0.0,0.0,0.0,0.0,0.0,0.0,0.0,0.0,0.0,0.0,0.0,0.0,0.0,0.0,0.0,0.0,0.0,0.0,0.0,0.0,0.0,0.0,0.0,0.0,0.0,0.0,0.0,0.0,0.0,0.0,0.0,0.0,0.0,0.0,0.0,0.0,0.0,0.0,0.0,0.0,0.0,0.0,0.0,0.0,0.0,0.0,0.0,0.0,0.0,0.0,0.0,0.0,0.0,0.0,0.0,0.0,0.0,0.0,0.0,0.0,0.0,0.0,0.0,0.0,0.0,0.0,0.0,0.0,0.0,0.0,0.0,0.0,0.0,0.0,0.0,0.0,0.0,0.0,0.0,0.0,0.0,0.0,0.0,0.0,0.0,0.0,0.0,0.0,0.0,0.0,0.0,0.0,0.0,0.0,0.0,0.0,0.0,0.0,0.0,0.0,0.0,0.0,0.0,0.0,0.0,0.0,0.0,0.0,0.0,0.0,0.0,0.0,0.0,0.0,0.0,0.0,0.0,0.0,0.0,0.0,0.0,0.0,0.0,0.0,0.0,0.0,0.0,0.0,0.0,0.0,0.0,0.0,0.0,0.0,0.0,0.0,0.0,0.0,0.0,0.0,0.0,0.0,0.0,0.0,0.0,0.0,0.0,0.0,0.0,0.0,0.0,0.0,0.0,0.0,0.0,0.3208,0.0,0.0,0.0,0.0,0.0,0.0,0.0,0.0,0.0,0.0,0.0,0.0,0.0,0.0,0.0,0.0,0.0,0.0,0.0,0.0,0.0,0.0,0.0,0.0,0.0,0.0,0.0,0.0,0.0,0.0,0.0,0.0,0.0,0.0,0.0,0.0,0.0,0.0,0.0,0.0,0.0,0.0,0.0,0.0,0.0,0.0,0.0,0.0,0.0,0.0,0.0,0.0,0.0,0.0,0.0,0.0,0.0,0.0,0.0,0.0,0.0,0.0,0.0,0.0,0.0,0.0,0.0,0.0,0.0,0.0,0.0,0.0,0.0,0.0,0.0,0.0,0.0,0.0,0.0,0.0,0.0,0.0,0.0,0.0,0.0,0.0,0.0,0.0,0.0,0.0,0.0,0.0,0.0,0.0,0.0,0.0,0.0,0.0,0.0,0.0,0.0,0.0,0.0,0.0,0.0,0.0,0.0,0.0,0.0,0.0,0.3208,0.3208,0.3208,0.3208,0.3208,0.0,0.0,0.0,0.0,0.0,0.0,0.0,0.0,0.0,0.0,0.0,0.0,0.0,0.0,0.0,0.0,0.0,0.0,0.0,0.0,0.0,0.0,0.0,0.0,0.0,0.0,0.0,0.0,0.0,0.0,0.0,0.0,0.0,0.0,0.0,0.0,0.0,0.0,0.0,0.0,0.0,0.0,0.0,0.0,0.0,0.0,0.0,0.0,0.0,0.0,0.0,0.0,0.0,0.0,0.0,0.0,0.0,0.0,0.0,0.0,0.0,0.0,0.0,0.0,0.0,0.0,0.0,0.0,0.0,0.0,0.0,0.0,0.0,0.0,0.0,0.0,0.0,0.0,0.0,0.0,0.0,0.0,0.0,0.0,0.0,0.0,0.0,0.0,0.0,0.0,0.0,0.0,0.0,0.0,0.0,0.0,0.0,0.0,0.0,0.0,0.0,0.0,0.0,0.0,0.0,0.0,0.0,0.0,0.0,0.0,0.0,0.0,0.3167,0.3208,0.3208,0.0,0.0,0.0,0.0,0.0,0.0,0.0,0.0,0.0,0.0,0.0,0.0,0.0,0.0,0.0,0.0,0.0,0.0,0.0,0.0,0.0,0.0,0.0,0.0,0.0,0.0,0.0,0.0,0.0,0.0,0.0,0.0,0.0,0.0,0.0,0.0,0.0,0.0,0.0,0.0,0.0,0.0,0.0,0.0,0.0,0.0,0.0,0.0,0.0,0.0,0.0,0.0,0.0,0.0,0.0,0.0,0.0,0.0,0.0,0.0,0.0,0.0,0.0,0.0,0.0,0.0,0.0,0.0,0.0,0.0,0.0,0.0,0.0,0.0,0.0,0.0,0.0,0.0,0.0,0.0,0.0,0.0,0.0,0.0,0.0,0.0,0.0,0.0,0.0,0.0,0.0,0.0,0.0,0.0,0.0,0.0,0.0,0.0,0.0,0.0,0.0,0.0,0.0,0.0,0.0,0.0,0.0,0.0,0.0,0.0,0.284,0.2837,0.3076,0.0,0.3208,0.0,0.0,0.0,0.0,0.0,0.0,0.0,0.0,0.0,0.0,0.0,0.0,0.0,0.0,0.0,0.0,0.0,0.0,0.0,0.0,0.0,0.0,0.0,0.0,0.0,0.0,0.0,0.0,0.0,0.0,0.0,0.0,0.0,0.0,0.0,0.0,0.0,0.0,0.0,0.0,0.0,0.0,0.0,0.0,0.0,0.0,0.0,0.0,0.0,0.0,0.0,0.0,0.0,0.0,0.0,0.0,0.0,0.0,0.0,0.0,0.0,0.0,0.0,0.0,0.0,0.0,0.0,0.0,0.0,0.0,0.0,0.0,0.0,0.0,0.0,0.0,0.0,0.0,0.0,0.0,0.0,0.0,0.0,0.0,0.0,0.0,0.0,0.0,0.0,0.0,0.0,0.0,0.0,0.0,0.0,0.0,0.0,0.0,0.0,0.0,0.0,0.0,0.0,0.0,0.0,0.0,0.0,0.0,0.0,0.0,0.2931,0.3092,0.3392,0.3461,0.0,0.0,0.0,0.0,0.0,0.0,0.0,0.0,0.0,0.0,0.0,0.0,0.0,0.0,0.0,0.0,0.0,0.0,0.0,0.0,0.0,0.0,0.0,0.0,0.0,0.0,0.0,0.0,0.0,0.0,0.0,0.0,0.0,0.0,0.0,0.0,0.0,0.0,0.0,0.0,0.0,0.0,0.0,0.0,0.0,0.0,0.0,0.0,0.0,0.0,0.0,0.0,0.0,0.0,0.0,0.0,0.0,0.0,0.0,0.0,0.0,0.0,0.0,0.0,0.0,0.0,0.0,0.0,0.0,0.0,0.0,0.0,0.0,0.0,0.0,0.0,0.0,0.0,0.0,0.0,0.0,0.0,0.0,0.0,0.0,0.0,0.0,0.0,0.0,0.0,0.0,0.0,0.0,0.0,0.0,0.0,0.0,0.0,0.0,0.0,0.0,0.0,0.0,0.0,0.0,0.0,0.0,0.0,0.0,0.0,0.2775,0.2948,0.3288,0.3535,0.3548,0.3313,0.0,0.0,0.0,0.0,0.0,0.0,0.0,0.0,0.0,0.0,0.0,0.0,0.0,0.0,0.0,0.0,0.0,0.0,0.0,0.0,0.0,0.0,0.0,0.0,0.0,0.0,0.0,0.0,0.0,0.0,0.0,0.0,0.0,0.0,0.0,0.0,0.0,0.0,0.0,0.0,0.0,0.0,0.0,0.0,0.0,0.0,0.0,0.0,0.0,0.0,0.0,0.0,0.0,0.0,0.0,0.0,0.0,0.0,0.0,0.0,0.0,0.0,0.0,0.0,0.0,0.0,0.0,0.0,0.0,0.0,0.0,0.0,0.0,0.0,0.0,0.0,0.0,0.0,0.0,0.0,0.0,0.0,0.0,0.0,0.0,0.0,0.0,0.0,0.0,0.0,0.0,0.0,0.0,0.0,0.0,0.0,0.0,0.0,0.0,0.0,0.0,0.0,0.0,0.0,0.0,0.0,0.0,0.0,0.2521,0.2534,0.278,0.3288,0.333,0.333,0.0,0.0,0.0,0.0,0.0,0.0,0.0,0.0,0.0,0.0,0.0,0.0,0.0,0.0,0.0,0.0,0.0,0.0,0.0,0.0,0.0,0.0,0.0,0.0,0.0,0.0,0.0,0.0,0.0,0.0,0.0,0.0,0.0,0.0,0.0,0.0,0.0,0.0,0.0,0.0,0.0,0.0,0.0,0.0,0.0,0.0,0.0,0.0,0.0,0.0,0.0,0.0,0.0,0.0,0.0,0.0,0.0,0.0,0.0,0.0,0.0,0.0,0.0,0.0,0.0,0.0,0.0,0.0,0.0,0.0,0.0,0.0,0.0,0.0,0.0,0.0,0.0,0.0,0.0,0.0,0.0,0.0,0.0,0.0,0.0,0.0,0.0,0.0,0.0,0.0,0.0,0.0,0.0,0.0,0.0,0.0,0.0,0.0,0.0,0.0,0.0,0.0,0.0,0.0,0.0,0.0,0.0,0.0,0.0,0.2886,0.3038,0.3221,0.3419,0.3634,0.3647,0.0,0.0,0.0,0.0,0.0,0.0,0.0,0.0,0.0,0.0,0.0,0.0,0.0,0.0,0.0,0.0,0.0,0.0,0.0,0.0,0.0,0.0,0.0,0.0,0.0,0.0,0.0,0.0,0.0,0.0,0.0,0.0,0.0,0.0,0.0,0.0,0.0,0.0,0.0,0.0,0.0,0.0,0.0,0.0,0.0,0.0,0.0,0.0,0.0,0.0,0.0,0.0,0.0,0.0,0.0,0.0,0.0,0.0,0.0,0.0,0.0,0.0,0.0,0.0,0.0,0.0,0.0,0.0,0.0,0.0,0.0,0.0,0.0,0.0,0.0,0.0,0.0,0.0,0.0,0.0,0.0,0.0,0.0,0.0,0.0,0.0,0.0,0.0,0.0,0.0,0.0,0.0,0.0,0.0,0.0,0.0,0.0,0.0,0.0,0.0,0.0,0.0,0.0,0.0,0.0,0.0,0.0,0.0,0.0,0.31,0.0,0.3396,0.3502,0.371,0.3723,0.0,0.0,0.0,0.0,0.0,0.0,0.0,0.0,0.0,0.0,0.0,0.0,0.0,0.0,0.0,0.0,0.0,0.0,0.0,0.0,0.0,0.0,0.0,0.0,0.0,0.0,0.0,0.0,0.0,0.0,0.0,0.0,0.0,0.0,0.0,0.0,0.0,0.0,0.0,0.0,0.0,0.0,0.0,0.0,0.0,0.0,0.0,0.0,0.0,0.0,0.0,0.0,0.0,0.0,0.0,0.0,0.0,0.0,0.0,0.0,0.0,0.0,0.0,0.0,0.0,0.0,0.0,0.0,0.0,0.0,0.0,0.0,0.0,0.0,0.0,0.0,0.0,0.0,0.0,0.0,0.0,0.0,0.0,0.0,0.0,0.0,0.0,0.0,0.0,0.0,0.0,0.0,0.0,0.0,0.0,0.0,0.0,0.0,0.0,0.0,0.0,0.0,0.0,0.0,0.0,0.0,0.0,0.0,0.3129,0.3106,0.314,0.3293,0.3506,0.3532,0.3519,0.0,0.0,0.0,0.0,0.0,0.0,0.0,0.0,0.0,0.0,0.0,0.0,0.0,0.0,0.0,0.0,0.0,0.0,0.0,0.0,0.0,0.0,0.0,0.0,0.0,0.0,0.0,0.0,0.0,0.0,0.0,0.0,0.0,0.0,0.0,0.0,0.0,0.0,0.0,0.0,0.0,0.0,0.0,0.0,0.0,0.0,0.0,0.0,0.0,0.0,0.0,0.0,0.0,0.0,0.0,0.0,0.0,0.0,0.0,0.0,0.0,0.0,0.0,0.0,0.0,0.0,0.0,0.0,0.0,0.0,0.0,0.0,0.0,0.0,0.0,0.0,0.0,0.0,0.0,0.0,0.0,0.0,0.0,0.0,0.0,0.0,0.0,0.0,0.0,0.0,0.0,0.0,0.0,0.0,0.0,0.0,0.0,0.0,0.0,0.0,0.0,0.0,0.0,0.0,0.0,0.0,0.0,0.0,0.0,0.3736,0.3906,0.3941,0.3853,0.3846,0.3734,0.0,0.0,0.0,0.0,0.0,0.0,0.0,0.0,0.0,0.0,0.0,0.0,0.0,0.0,0.0,0.0,0.0,0.0,0.0,0.0,0.0,0.0,0.0,0.0,0.0,0.0,0.0,0.0,0.0,0.0,0.0,0.0,0.0,0.0,0.0,0.0,0.0,0.0,0.0,0.0,0.0,0.0,0.0,0.0,0.0,0.0,0.0,0.0,0.0,0.0,0.0,0.0,0.0,0.0,0.0,0.0,0.0,0.0,0.0,0.0,0.0,0.0,0.0,0.0,0.0,0.0,0.0,0.0,0.0,0.0,0.0,0.0,0.0,0.0,0.0,0.0,0.0,0.0,0.0,0.0,0.0,0.0,0.0,0.0,0.0,0.0,0.0,0.0,0.0,0.0,0.0,0.0,0.0,0.0,0.0,0.0,0.0,0.0,0.0,0.0,0.0,0.0,0.0,0.0,0.0,0.0,0.0,0.0,0.0,0.4489,0.4529,0.4429,0.4154,0.4052,0.3904,0.3701,0.0,0.0,0.0,0.0,0.0,0.0,0.0,0.0,0.0,0.0,0.0,0.0,0.0,0.0,0.0,0.0,0.0,0.0,0.0,0.0,0.0,0.0,0.0,0.0,0.0,0.0,0.0,0.0,0.0,0.0,0.0,0.0,0.0,0.0,0.0,0.0,0.0,0.0,0.0,0.0,0.0,0.0,0.0,0.0,0.0,0.0,0.0,0.0,0.0,0.0,0.0,0.0,0.0,0.0,0.0,0.0,0.0,0.0,0.0,0.0,0.0,0.0,0.0,0.0,0.0,0.0,0.0,0.0,0.0,0.0,0.0,0.0,0.0,0.0,0.0,0.0,0.0,0.0,0.0,0.0,0.0,0.0,0.0,0.0,0.0,0.0,0.0,0.0,0.0,0.0,0.0,0.0,0.0,0.0,0.0,0.0,0.0,0.0,0.0,0.0,0.0,0.0,0.0,0.0,0.0,0.0,0.0,0.0,0.5383,0.5095,0.4809,0.4456,0.4188,0.4044,0.0,0.0,0.0,0.0,0.0,0.0,0.0,0.0,0.0,0.0,0.0,0.0,0.0,0.0,0.0,0.0,0.0,0.0,0.0,0.0,0.0,0.0,0.0,0.0,0.0,0.0,0.0,0.0,0.0,0.0,0.0,0.0,0.0,0.0,0.0,0.0,0.0,0.0,0.0,0.0,0.0,0.0,0.0,0.0,0.0,0.0,0.0,0.0,0.0,0.0,0.0,0.0,0.0,0.0,0.0,0.0,0.0,0.0,0.0,0.0,0.0,0.0,0.0,0.0,0.0,0.0,0.0,0.0,0.0,0.0,0.0,0.0,0.0,0.0,0.0,0.0,0.0,0.0,0.0,0.0,0.0,0.0,0.0,0.0,0.0,0.0,0.0,0.0,0.0,0.0,0.0,0.0,0.0,0.0,0.0,0.0,0.0,0.0,0.0,0.0,0.0,0.0,0.0,0.0,0.0,0.0,0.0,0.0,0.0,0.6251,0.6613,0.6251,0.5097,0.4755,0.4402,0.0,0.0,0.0,0.0,0.0,0.0,0.0,0.0,0.0,0.0,0.0,0.0,0.0,0.0,0.0,0.0,0.0,0.0,0.0,0.0,0.0,0.0,0.0,0.0,0.0,0.0,0.0,0.0,0.0,0.0,0.0,0.0,0.0,0.0,0.0,0.0,0.0,0.0,0.0,0.0,0.0,0.0,0.0,0.0,0.0,0.0,0.0,0.0,0.0,0.0,0.0,0.0,0.0,0.0,0.0,0.0,0.0,0.0,0.0,0.0,0.0,0.0,0.0,0.0,0.0,0.0,0.0,0.0,0.0,0.0,0.0,0.0,0.0,0.0,0.0,0.0,0.0,0.0,0.0,0.0,0.0,0.0,0.0,0.0,0.0,0.0,0.0,0.0,0.0,0.0,0.0,0.0,0.0,0.0,0.0,0.0,0.0,0.0,0.0,0.0,0.0,0.0,0.0,0.0,0.0,0.0,0.0,0.0,0.6041,0.6754,0.7355,0.7156,0.6039,0.5371,0.475,0.0,0.0,0.0,0.0,0.0,0.0,0.0,0.0,0.0,0.0,0.0,0.0,0.0,0.0,0.0,0.0,0.0,0.0,0.0,0.0,0.0,0.0,0.0,0.0,0.0,0.0,0.0,0.0,0.0,0.0,0.0,0.0,0.0,0.0,0.0,0.0,0.0,0.0,0.0,0.0,0.0,0.0,0.0,0.0,0.0,0.0,0.0,0.0,0.0,0.0,0.0,0.0,0.0,0.0,0.0,0.0,0.0,0.0,0.0,0.0,0.0,0.0,0.0,0.0,0.0,0.0,0.0,0.0,0.0,0.0,0.0,0.0,0.0,0.0,0.0,0.0,0.0,0.0,0.0,0.0,0.0,0.0,0.0,0.0,0.0,0.0,0.0,0.0,0.0,0.0,0.0,0.0,0.0,0.0,0.0,0.0,0.0,0.0,0.0,0.0,0.0,0.0,0.0,0.0,0.0,0.0,0.0,0.0,0.6208,0.7098,0.7699,0.7692,0.7046,0.5972,0.5129,0.0,0.0,0.0,0.0,0.0,0.0,0.0,0.0,0.0,0.0,0.0,0.0,0.0,0.0,0.0,0.0,0.0,0.0,0.0,0.0,0.0,0.0,0.0,0.0,0.0,0.0,0.0,0.0,0.0,0.0,0.0,0.0,0.0,0.0,0.0,0.0,0.0,0.0,0.0,0.0,0.0,0.0,0.0,0.0,0.0,0.0,0.0,0.0,0.0,0.0,0.0,0.0,0.0,0.0,0.0,0.0,0.0,0.0,0.0,0.0,0.0,0.0,0.0,0.0,0.0,0.0,0.0,0.0,0.0,0.0,0.0,0.0,0.0,0.0,0.0,0.0,0.0,0.0,0.0,0.0,0.0,0.0,0.0,0.0,0.0,0.0,0.0,0.0,0.0,0.0,0.0,0.0,0.0,0.0,0.0,0.0,0.0,0.0,0.0,0.0,0.0,0.0,0.0,0.0,0.0,0.0,0.0,0.0,0.6711,0.7837,0.8354,0.8223,0.741,0.6505,0.5635,0.0,0.0,0.0,0.0,0.0,0.0,0.0,0.0,0.0,0.0,0.0,0.0,0.0,0.0,0.0,0.0,0.0,0.0,0.0,0.0,0.0,0.0,0.0,0.0,0.0,0.0,0.0,0.0,0.0,0.0,0.0,0.0,0.0,0.0,0.0,0.0,0.0,0.0,0.0,0.0,0.0,0.0,0.0,0.0,0.0,0.0,0.0,0.0,0.18,0.0,0.0,0.0,0.0,0.0,0.0,0.0,0.0,0.0,0.0,0.0,0.0,0.0,0.0,0.0,0.0,0.0,0.0,0.0,0.0,0.0,0.0,0.0,0.0,0.0,0.0,0.0,0.0,0.0,0.0,0.0,0.0,0.0,0.0,0.0,0.0,0.0,0.0,0.0,0.0,0.0,0.0,0.0,0.0,0.0,0.0,0.0,0.0,0.0,0.0,0.0,0.0,0.0,0.0,0.0,0.0,0.0,0.0,0.0,0.6849,0.796,0.8514,0.8517,0.7926,0.7204,0.6221,0.0,0.0,0.0,0.0,0.0,0.0,0.0,0.0,0.0,0.0,0.0,0.0,0.0,0.0,0.0,0.0,0.0,0.0,0.0,0.0,0.0,0.0,0.0,0.0,0.0,0.0,0.0,0.0,0.0,0.0,0.0,0.0,0.0,0.0,0.0,0.0,0.0,0.0,0.0,0.0,0.0,0.0,0.0,0.0,0.0,0.0,0.0,0.0,0.0,0.0,0.0,0.0,0.0,0.0,0.0,0.0,0.0,0.0,0.0,0.0,0.0,0.0,0.0,0.0,0.0,0.0,0.0,0.0,0.0,0.0,0.0,0.0,0.0,0.0,0.0,0.0,0.0,0.0,0.0,0.0,0.0,0.0,0.0,0.0,0.0,0.0,0.0,0.0,0.0,0.0,0.0,0.0,0.0,0.0,0.0,0.0,0.0,0.0,0.0,0.0,0.0,0.0,0.0,0.0,0.0,0.0,0.0,0.6111,0.6898,0.7955,0.8515,0.8664,0.8402,0.7806,0.676,0.5202,0.0,0.0,0.0,0.0,0.0,0.0,0.0,0.0,0.0,0.0,0.0,0.0,0.0,0.0,0.0,0.0,0.0,0.0,0.0,0.0,0.0,0.0,0.0,0.0,0.0,0.0,0.0,0.0,0.0,0.0,0.0,0.0,0.0,0.0,0.0,0.0,0.0,0.0,0.1642,0.2084,0.0,0.0,0.0,0.0,0.0,0.0,0.0,0.0,0.2013,0.0,0.0,0.0,0.0,0.0,0.0,0.0,0.0,0.0,0.0,0.0,0.0,0.0,0.0,0.0,0.0,0.0,0.0,0.0,0.0,0.0,0.0,0.0,0.0,0.0,0.0,0.0,0.0,0.0,0.0,0.0,0.0,0.0,0.0,0.0,0.0,0.0,0.0,0.0,0.0,0.0,0.0,0.0,0.0,0.0,0.0,0.0,0.0,0.0,0.0,0.0,0.0,0.0,0.0,0.0,0.0,0.5918,0.6517,0.7304,0.8299,0.8646,0.8664,0.8402,0.7829,0.697,0.581,0.0,0.0,0.0,0.0,0.0,0.0,0.0,0.0,0.0,0.0,0.0,0.0,0.0,0.0,0.0,0.0,0.0,0.0,0.0,0.0,0.0,0.0,0.0,0.0,0.0,0.0,0.0,0.0,0.0,0.0,0.0,0.0,0.0,0.0,0.0,0.0,0.0,0.0,0.0,0.2122,0.2304,0.0,0.0,0.0,0.0,0.0,0.0,0.0,0.0,0.2116,0.0,0.0,0.0,0.0,0.0,0.0,0.0,0.0,0.0,0.0,0.0,0.0,0.0,0.0,0.0,0.0,0.0,0.0,0.0,0.0,0.0,0.0,0.0,0.0,0.0,0.0,0.0,0.0,0.0,0.0,0.0,0.0,0.0,0.0,0.0,0.0,0.0,0.0,0.0,0.0,0.0,0.0,0.0,0.0,0.0,0.0,0.0,0.0,0.0,0.0,0.0,0.0,0.0,0.0,0.0,0.6173,0.6777,0.7492,0.8369,0.879,0.8798,0.8409,0.7829,0.7029,0.0,0.0,0.0,0.0,0.0,0.0,0.0,0.0,0.0,0.0,0.0,0.0,0.0,0.0,0.0,0.0,0.0,0.0,0.0,0.0,0.0,0.0,0.0,0.0,0.0,0.0,0.0,0.0,0.0,0.0,0.0,0.0,0.0,0.0,0.0,0.0,0.0,0.0,0.0,0.0,0.2175,0.2357,0.2406,0.0,0.0,0.0,0.0,0.0,0.0,0.2338,0.2357,0.0,0.0,0.0,0.0,0.0,0.0,0.0,0.0,0.0,0.0,0.0,0.0,0.0,0.0,0.0,0.0,0.0,0.0,0.0,0.0,0.0,0.0,0.0,0.0,0.0,0.0,0.0,0.0,0.0,0.0,0.0,0.0,0.0,0.0,0.0,0.0,0.0,0.0,0.0,0.0,0.0,0.0,0.0,0.0,0.0,0.0,0.0,0.0,0.0,0.0,0.0,0.0,0.0,0.0,0.0,0.6435,0.7057,0.7716,0.8408,0.8949,0.8964,0.8496,0.7832,0.7096,0.0,0.0,0.0,0.0,0.0,0.0,0.0,0.0,0.0,0.0,0.0,0.0,0.0,0.0,0.0,0.0,0.0,0.0,0.0,0.0,0.0,0.0,0.0,0.0,0.0,0.0,0.0,0.0,0.0,0.0,0.0,0.0,0.0,0.0,0.0,0.0,0.0,0.0,0.0,0.0,0.0,0.246,0.2545,0.2805,0.0,0.0,0.0,0.0,0.2496,0.2572,0.0,0.0,0.0,0.0,0.0,0.0,0.0,0.0,0.0,0.0,0.0,0.0,0.0,0.0,0.0,0.0,0.0,0.0,0.0,0.0,0.0,0.0,0.0,0.0,0.0,0.0,0.0,0.0,0.0,0.0,0.0,0.0,0.0,0.0,0.0,0.0,0.0,0.0,0.0,0.0,0.0,0.0,0.0,0.0,0.0,0.0,0.0,0.0,0.0,0.0,0.0,0.0,0.0,0.0,0.0,0.0,0.666,0.748,0.8108,0.8567,0.8976,0.9058,0.8758,0.794,0.7118,0.0,0.0,0.0,0.0,0.0,0.0,0.0,0.0,0.0,0.0,0.0,0.0,0.0,0.0,0.0,0.0,0.0,0.0,0.0,0.0,0.0,0.0,0.0,0.0,0.0,0.0,0.0,0.0,0.0,0.0,0.0,0.0,0.0,0.0,0.0,0.0,0.0,0.0,0.0,0.0,0.0,0.2552,0.2741,0.2896,0.2987,0.0,0.0,0.3168,0.2737,0.2976,0.0,0.0,0.0,0.0,0.0,0.0,0.0,0.0,0.0,0.0,0.0,0.0,0.0,0.0,0.0,0.0,0.0,0.0,0.0,0.0,0.0,0.0,0.0,0.0,0.0,0.0,0.0,0.0,0.0,0.0,0.0,0.0,0.0,0.0,0.0,0.0,0.0,0.0,0.0,0.0,0.0,0.0,0.0,0.0,0.0,0.0,0.0,0.0,0.0,0.0,0.0,0.0,0.0,0.0,0.0,0.6005,0.6859,0.775,0.8408,0.8718,0.9217,0.9198,0.8577,0.8016,0.7256,0.0,0.0,0.0,0.0,0.0,0.0,0.0,0.0,0.0,0.0,0.0,0.0,0.0,0.0,0.0,0.0,0.0,0.0,0.0,0.0,0.0,0.0,0.0,0.0,0.0,0.0,0.0,0.0,0.0,0.0,0.0,0.0,0.0,0.0,0.0,0.0,0.0,0.0,0.0,0.0,0.0,0.0,0.2902,0.2897,0.0,0.0,0.0,0.3196,0.3154,0.0,0.0,0.0,0.0,0.0,0.0,0.0,0.0,0.0,0.0,0.0,0.0,0.0,0.0,0.0,0.0,0.0,0.0,0.0,0.0,0.0,0.0,0.0,0.0,0.0,0.0,0.0,0.0,0.0,0.0,0.0,0.0,0.0,0.0,0.0,0.0,0.0,0.0,0.0,0.0,0.0,0.0,0.0,0.0,0.0,0.0,0.0,0.0,0.0,0.0,0.0,0.0,0.0,0.0,0.0,0.0,0.0,0.7,0.7983,0.8591,0.8811,0.9305,0.9225,0.8529,0.8105,0.0,0.0,0.0,0.0,0.0,0.0,0.0,0.0,0.0,0.0,0.0,0.0,0.0,0.0,0.0,0.0,0.0,0.0,0.0,0.0,0.0,0.0,0.0,0.0,0.0,0.0,0.0,0.1712,0.0,0.0,0.0,0.0,0.0,0.0,0.0,0.0,0.0,0.0,0.0,0.0,0.0,0.0,0.3094,0.3011,0.3023,0.3061,0.0,0.0,0.3353,0.3478,0.3495,0.3468,0.0,0.0,0.0,0.0,0.0,0.0,0.0,0.0,0.0,0.0,0.0,0.0,0.0,0.0,0.0,0.0,0.0,0.0,0.0,0.0,0.0,0.0,0.0,0.0,0.0,0.0,0.0,0.0,0.0,0.0,0.0,0.0,0.0,0.0,0.0,0.0,0.0,0.0,0.0,0.0,0.0,0.0,0.0,0.0,0.0,0.0,0.0,0.0,0.0,0.0,0.0,0.0,0.0,0.0,0.6439,0.702,0.8176,0.8784,0.8818,0.9084,0.9084,0.8784,0.8205,0.7531,0.0,0.0,0.0,0.0,0.0,0.0,0.0,0.0,0.0,0.0,0.0,0.0,0.0,0.0,0.0,0.0,0.0,0.0,0.0,0.0,0.0,0.0,0.0,0.0,0.0,0.0,0.0,0.0,0.0,0.0,0.0,0.0,0.0,0.0,0.0,0.0,0.0,0.0,0.0,0.0,0.0,0.3354,0.3033,0.3366,0.353,0.0,0.3582,0.3765,0.3531,0.3658,0.366,0.3359,0.0,0.0,0.0,0.0,0.0,0.0,0.0,0.0,0.0,0.0,0.0,0.0,0.0,0.0,0.0,0.0,0.0,0.0,0.0,0.0,0.0,0.0,0.0,0.0,0.0,0.0,0.0,0.0,0.0,0.0,0.0,0.0,0.0,0.0,0.0,0.0,0.0,0.0,0.0,0.0,0.0,0.0,0.0,0.0,0.0,0.0,0.0,0.0,0.0,0.0,0.0,0.0,0.0,0.6459,0.7006,0.8203,0.8778,0.8818,0.9064,0.8991,0.8583,0.8323,0.7725,0.0,0.0,0.0,0.0,0.0,0.0,0.0,0.0,0.0,0.0,0.0,0.0,0.0,0.0,0.0,0.0,0.0,0.0,0.0,0.0,0.0,0.0,0.0,0.0,0.0,0.0,0.0,0.0,0.1288,0.1363,0.1591,0.0,0.0,0.0,0.0,0.0,0.0,0.0,0.0,0.0,0.0,0.3567,0.3614,0.3702,0.0,0.0,0.4037,0.4083,0.4054,0.385,0.3603,0.3398,0.2798,0.0,0.0,0.0,0.0,0.0,0.0,0.0,0.0,0.0,0.0,0.0,0.0,0.0,0.0,0.0,0.0,0.0,0.0,0.0,0.0,0.0,0.0,0.0,0.0,0.0,0.0,0.0,0.0,0.0,0.0,0.0,0.0,0.0,0.0,0.0,0.0,0.0,0.0,0.0,0.0,0.0,0.0,0.0,0.0,0.0,0.0,0.0,0.0,0.0,0.0,0.0,0.0,0.6553,0.7266,0.8352,0.8938,0.8904,0.9111,0.8978,0.8524,0.8337,0.7762,0.0,0.0,0.0,0.0,0.0,0.0,0.0,0.0,0.0,0.0,0.0,0.0,0.0,0.0,0.0,0.0,0.0,0.0,0.0,0.0,0.0,0.0,0.0,0.0,0.0,0.0,0.0,0.0,0.1616,0.1696,0.1622,0.0,0.0,0.0,0.0,0.0,0.0,0.0,0.0,0.0,0.0,0.3793,0.4038,0.4034,0.4144,0.4598,0.4476,0.4388,0.4449,0.4023,0.3645,0.3511,0.0,0.0,0.0,0.0,0.0,0.0,0.0,0.0,0.0,0.0,0.0,0.0,0.0,0.0,0.0,0.0,0.0,0.0,0.0,0.0,0.0,0.0,0.0,0.0,0.0,0.0,0.0,0.55,0.0,0.0,0.4538,0.0,0.0,0.0,0.0,0.0,0.0,0.0,0.0,0.0,0.0,0.0,0.0,0.0,0.0,0.0,0.0,0.0,0.0,0.0,0.0,0.0,0.0,0.6754,0.7848,0.8738,0.9204,0.9204,0.9183,0.9071,0.8791,0.8225,0.7626,0.6986,0.0,0.0,0.0,0.0,0.0,0.0,0.0,0.0,0.0,0.0,0.0,0.0,0.0,0.0,0.0,0.0,0.0,0.0,0.0,0.0,0.0,0.0,0.0,0.0,0.0,0.0,0.2057,0.2081,0.1955,0.0,0.0,0.0,0.0,0.0,0.0,0.0,0.0,0.0,0.0,0.3558,0.3983,0.4247,0.4341,0.4508,0.4895,0.4798,0.4657,0.4598,0.4205,0.3838,0.0,0.0,0.0,0.0,0.0,0.0,0.0,0.0,0.0,0.0,0.0,0.0,0.0,0.0,0.0,0.0,0.0,0.0,0.0,0.0,0.0,0.0,0.0,0.0,0.0,0.0,0.0,0.7744,0.7039,0.0,0.0,0.0,0.0,0.0,0.0,0.0,0.0,0.0,0.0,0.0,0.8403,0.8403,0.0,0.0,0.0,0.0,0.0,0.0,0.0,0.0,0.0,0.0,0.0,0.0,0.676,0.7879,0.8765,0.9311,0.9526,0.9311,0.9071,0.8791,0.843,0.7692,0.6499,0.0,0.0,0.0,0.0,0.0,0.0,0.0,0.0,0.0,0.0,0.0,0.0,0.0,0.0,0.0,0.0,0.0,0.0,0.0,0.0,0.0,0.0,0.0,0.0,0.0,0.2029,0.0,0.0,0.0,0.0,0.0,0.0,0.0,0.0,0.0,0.0,0.0,0.293,0.3193,0.338,0.3646,0.4061,0.4193,0.4323,0.0,0.0,0.0,0.0,0.0,0.0,0.0,0.0,0.0,0.0,0.0,0.0,0.0,0.0,0.2781,0.2704,0.2408,0.2091,0.1897,0.0,0.0,0.0,0.0,0.0,0.0,0.0,0.0,0.0,0.0,0.0,0.0,0.0,0.0,0.9263,0.0,0.7976,0.0,0.0,0.0,0.0,0.0,0.0,0.0,0.0,1.0049,1.0387,1.0086,1.003,0.9995,0.0,0.9741,0.8901,0.0,0.0,0.0,0.0,0.0,0.0,0.0,0.0,0.7094,0.8325,0.9124,0.961,0.9813,0.961,0.9377,0.9112,0.8657,0.7745,0.6372,0.5762,0.5085,0.0,0.0,0.0,0.0,0.0,0.0,0.0,0.0,0.0,0.0,0.0,0.0,0.0,0.0,0.0,0.0,0.0,0.0,0.0,0.0,0.0,0.0,0.0,0.2407,0.0,0.0,0.0,0.0,0.0,0.0,0.0,0.0,0.0,0.2531,0.2758,0.304,0.3299,0.3456,0.368,0.4061,0.0,0.0,0.0,0.0,0.0,0.0,0.0,0.434,0.3973,0.3905,0.379,0.3468,0.3455,0.3477,0.3483,0.0,0.0,0.3008,0.2691,0.2363,0.2153,0.1967,0.1816,0.1782,0.1648,0.1548,0.0,0.0,0.0,0.0,0.0,0.0,0.0,0.0,1.0969,1.0444,0.0,0.8898,0.0,0.0,0.0,0.0,0.0,0.8794,0.0,0.0,1.1587,1.1919,1.1665,1.1462,1.136,1.1321,1.1097,1.07,1.0036,0.8303,0.0,0.0,0.0,0.0,0.0,0.0,0.7739,0.9151,0.9777,1.0134,1.0147,1.014,0.9963,0.9695,0.8871,0.7866,0.67,0.6079,0.5461,0.4833,0.4334,0.0,0.0,0.0,0.0,0.0,0.0,0.0,0.0,0.0,0.0,0.0,0.0,0.0,0.0,0.0,0.0,0.0,0.0,0.0,0.0,0.303,0.0,0.0,0.0,0.0,0.0,0.0,0.0,0.0,0.0,0.0,0.2689,0.3081,0.3426,0.346,0.0,0.0,0.0,0.0,0.4794,0.5167,0.5343,0.5374,0.5153,0.4951,0.4691,0.4366,0.0,0.0,0.4028,0.4092,0.4035,0.366,0.3578,0.3531,0.3316,0.295,0.2634,0.2506,0.2266,0.2065,0.1922,0.176,0.1635,1.3569,0.0,0.0,0.0,0.0,1.2233,1.2578,1.2672,1.2515,1.2005,1.131,1.0991,0.0,0.0,0.0,0.0,0.0,0.0,1.0924,1.1655,1.2628,1.3023,1.2943,1.2761,1.2534,1.2278,1.1875,1.1369,1.0866,1.0153,0.8926,0.7193,0.0,0.0,0.0,0.0,0.7963,0.9143,1.002,1.0559,1.0742,1.0742,1.0401,0.9699,0.9059,0.8241,0.727,0.6854,0.6179,0.5204,0.5005,0.0,0.0,0.0,0.0,0.0,0.0,0.0,0.0,0.0,0.0,0.0,0.0,0.0,0.0,0.0,0.0,0.0,0.0,0.0,0.2768,0.3109,0.3185,0.0,0.0,0.0,0.0,0.0,0.0,0.0,0.0,0.0,0.3742,0.391,0.416,0.0,0.0,0.4831,0.462,0.5246,0.5667,0.5498,0.5946,0.0,0.561,0.54,0.5129,0.4595,0.4193,0.3956,0.4045,0.3946,0.3814,0.3682,0.3627,0.3513,0.3268,0.2901,0.2615,0.2511,0.2291,0.2067,0.1913,0.1723,0.1517,1.5852,1.4156,1.3902,1.3567,1.3229,1.3858,1.4206,1.4342,1.4268,1.3894,1.3306,1.2885,1.203,1.0946,1.0675,0.0,0.0,0.0,1.2314,1.2833,1.355,1.3887,1.3887,1.3692,1.3472,1.3286,1.2868,1.2409,1.1847,1.1641,1.0705,0.9064,0.0,0.0,0.7872,0.8076,0.8637,0.9537,1.0258,1.068,1.0854,1.0854,1.0492,0.9742,0.9367,0.8677,0.7712,0.7361,0.6767,0.5856,0.5481,0.5052,0.0,0.0,0.0,0.0,0.0,0.0,0.0,0.0,0.0,0.0,0.0,0.1927,0.1963,0.0,0.0,0.0,0.2585,0.2845,0.3174,0.3488,0.0,0.0,0.0,0.0,0.0,0.0,0.0,0.4186,0.4307,0.439,0.4547,0.4616,0.4693,0.48,0.5093,0.5165,0.4825,0.0,0.5942,0.6006,0.6272,0.6223,0.5634,0.5478,0.5216,0.4678,0.4218,0.3998,0.417,0.3984,0.3806,0.3796,0.3633,0.3412,0.3243,0.2841,0.2509,0.2464,0.2259,0.205,0.1825,0.1645,0.145,1.7567,1.6954,1.5738,1.5021,1.4721,1.5284,1.5709,1.5979,1.595,1.5774,1.536,1.4531,1.3777,1.3126,1.2477,0.0,1.2667,1.3294,1.3733,1.407,1.4408,1.4555,1.4592,1.4352,1.4212,1.4177,1.3967,1.3526,1.2907,1.2739,1.2246,1.1346,0.9807,0.9118,0.9304,0.9291,0.957,1.0143,1.0519,1.0673,1.07,1.0653,1.0338,0.9735,0.9639,0.9072,0.7925,0.7638,0.7216,0.6626,0.5816,0.5363,0.528,0.0,0.0,0.0,0.0,0.0,0.0,0.0,0.0,0.0,0.0,0.0,0.0,0.0,0.0,0.0,0.3237,0.0,0.3766,0.4076,0.0,0.0,0.0,0.4065,0.4089,0.4533,0.4741,0.4515,0.0,0.0,0.5115,0.5179,0.5125,0.4803,0.513,0.5318,0.5112,0.5415,0.5849,0.6391,0.6259,0.5883,0.5451,0.5298,0.5089,0.4667,0.4299,0.4146,0.4268,0.4053,0.3902,0.3902,0.3575,0.325,0.3184,0.2763,0.2405,0.2391,0.222,0.199,0.1677,0.1545,0.1394,1.8694,1.8306,1.7999,1.7306,1.6345,1.6492,1.6602,1.6608,1.6367,1.6089,1.5782,1.5555,1.5053,1.4418,1.407,1.3931,1.4056,1.4165,1.4406,1.4674,1.4754,1.4955,1.5141,1.4698,1.4421,1.4184,1.374,1.3316,1.2914,1.2709,1.241,1.1977,1.1404,1.0874,1.0291,1.002,1.0194,1.0782,1.1069,1.1329,1.1578,1.1156,1.0533,0.9729,0.9245,0.8564,0.7638,0.7531,0.7244,0.664,0.6198,0.5786,0.5329,0.467,0.0,0.0,0.0,0.0,0.0,0.0,0.0,0.0,0.0,0.2613,0.2859,0.0,0.31,0.0,0.4163,0.4454,0.4386,0.4631,0.0,0.0,0.4612,0.4697,0.4875,0.5037,0.5145,0.5295,0.5299,0.5305,0.5319,0.5476,0.5567,0.5497,0.5846,0.6232,0.6507,0.6499,0.6197,0.5588,0.5985,0.6237,0.5623,0.5179,0.4843,0.4638,0.4237,0.397,0.402,0.3746,0.3529,0.3528,0.3345,0.3118,0.3007,0.2719,0.2491,0.2296,0.2083,0.1895,0.164,0.1462,0.1296,1.9441,1.9213,1.906,1.8634,1.7959,1.7673,1.7548,1.7486,1.7311,1.7055,1.674,1.6462,1.6052,1.5577,1.5436,1.5347,1.5355,1.5362,1.5409,1.5577,1.5535,1.5606,1.5593,1.5327,1.4919,1.4511,1.4076,1.3722,1.3384,1.3184,1.2949,1.2655,1.2599,1.2244,1.1621,1.1013,1.0823,1.1182,1.1343,1.151,1.165,1.1229,1.0635,0.99,0.9439,0.8717,0.7709,0.7692,0.7402,0.6814,0.6526,0.6182,0.5719,0.5132,0.4663,0.0,0.0,0.0,0.0,0.0,0.0,0.0,0.0,0.0,0.0,0.0,0.3804,0.4523,0.4948,0.5241,0.5346,0.5591,0.5707,0.5523,0.5408,0.5395,0.5541,0.556,0.5603,0.5753,0.5837,0.5924,0.5992,0.6112,0.6238,0.6341,0.6581,0.6718,0.6624,0.6536,0.6213,0.5545,0.5881,0.6081,0.5535,0.4993,0.4587,0.4508,0.4142,0.3854,0.3844,0.3561,0.3348,0.3438,0.3194,0.2932,0.2918,0.2713,0.2465,0.2316,0.2123,0.1902,0.1639,0.146,0.1299,1.9852,1.9793,1.9455,1.9368,1.928,1.8672,1.8408,1.8357,1.8321,1.8116,1.7779,1.7223,1.6844,1.6491,1.6448,1.6448,1.6411,1.6367,1.6338,1.6294,1.6287,1.6148,1.5855,1.5891,1.5535,1.49,1.4618,1.4342,1.3989,1.3793,1.3574,1.3278,1.3349,1.3266,1.2942,1.2065,1.1571,1.1571,1.1578,1.1516,1.1476,1.1162,1.0695,1.0057,0.974,0.9038,0.7912,0.7846,0.7606,0.7101,0.6767,0.6492,0.625,0.5675,0.5204,0.0,0.4661,0.0,0.0,0.0,0.0,0.0,0.0,0.0,0.0,0.4287,0.4636,0.54,0.5745,0.6079,0.6413,0.6677,0.6768,0.6551,0.6346,0.6185,0.6155,0.6139,0.61,0.6109,0.6336,0.6552,0.6673,0.6776,0.6886,0.7057,0.7072,0.6854,0.6283,0.6147,0.6081,0.5952,0.5769,0.5521,0.5275,0.4797,0.4439,0.4385,0.4077,0.3812,0.3764,0.3487,0.3277,0.3397,0.3089,0.2811,0.2974,0.2706,0.251,0.2521,0.2384,0.2107,0.1761,0.1552,0.1411,1.9996,1.9815,1.9749,1.9573,1.9272,1.9192,1.8942,1.8679,1.8416,1.8123,1.7816,1.7691,1.745,1.7135,1.6925,1.6661,1.6397,1.6111,1.5862,1.5621,1.5877,1.5833,1.5506,1.5754,1.5535,1.4907,1.4618,1.4335,1.3982,1.3786,1.3674,1.3586,1.3485,1.3372,1.3294,0.0,0.0,0.0,1.2399,1.2204,1.1812,1.1269,1.0633,0.9793,0.9252,0.0,0.7638,0.7578,0.7524,0.7397,0.6901,0.0,0.0,0.0,0.0,0.0,0.0,0.0,0.0,0.0,0.0,0.0,0.6327,0.6086,0.5464,0.5842,0.6166,0.6358,0.6841,0.716,0.7104,0.7468,0.7552,0.7243,0.7266,0.7212,0.7,0.6787,0.6689,0.6789,0.6619,0.6612,0.6859,0.6825,0.6861,0.6987,0.6976,0.6876,0.6599,0.6324,0.6053,0.5674,0.5262,0.5,0.5122,0.4733,0.4479,0.4458,0.4127,0.3793,0.366,0.3436,0.3206,0.3177,0.2967,0.289,0.2978,0.2937,0.2912,0.3016,0.2884,0.2566,0.1969,0.1747,0.1607,2.0047,0.0,1.9647,1.9478,0.0,1.9272,1.9184,1.9016,1.8855,1.8599,1.8284,1.813,1.7786,1.7264,1.6996,1.6639,1.6126,1.5818,1.563,1.5644,1.5994,1.6052,1.5899,1.6228,1.5957,1.5148,1.4812,1.4538,1.4276,1.4146,1.4101,1.4108,1.3985,1.3947,1.3933,1.3593,1.3172,1.2643,1.2599,1.2451,1.2114,1.1692,1.1109,1.0354,0.99,0.0,0.0,0.0,0.0,0.0,0.0,0.0,0.0,0.0,0.0,0.6166,0.6413,0.6647,0.6787,0.7228,0.7535,0.7675,0.7816,0.7468,0.642,0.6633,0.6927,0.7213,0.7678,0.8012,0.813,0.8488,0.8595,0.8374,0.8282,0.8103,0.7758,0.7468,0.7285,0.7284,0.7234,0.7274,0.7527,0.7471,0.7429,0.7426,0.7256,0.7068,0.6826,0.6465,0.6022,0.5551,0.5258,0.5109,0.5192,0.4931,0.4631,0.4548,0.4218,0.387,0.3709,0.3487,0.3285,0.3199,0.3093,0.302,0.308,0.3107,0.3145,0.3239,0.3113,0.2872,0.2476,0.2186,0.1869,2.0223,1.9962,1.9579,1.9418,1.936,1.9301,1.9272,1.9272,0.0,0.0,0.0,1.8511,1.8028,1.7399,1.7064,1.6587,1.5979,1.5599,1.5535,1.5848,1.6206,1.6389,1.6353,1.6727,1.6389,1.5526,1.5148,1.4827,1.456,1.4545,1.4553,1.4553,1.4553,1.4533,1.4416,1.4152,1.3597,1.2767,1.2716,1.2599,1.2409,1.2125,1.1721,1.1155,1.0838,1.0114,0.9011,0.8911,0.8611,0.8099,0.8059,0.7925,0.7672,0.7698,0.7598,0.7301,0.7605,0.7889,0.8119,0.8444,0.873,0.8951,0.8965,0.8504,0.7393,0.7366,0.7599,0.8099,0.8437,0.8785,0.9084,0.9391,0.9506,0.936,0.9163,0.8848,0.8381,0.8053,0.7821,0.7743,0.7756,0.7919,0.8051,0.7999,0.7954,0.7839,0.7488,0.719,0.683,0.6367,0.5965,0.5519,0.5367,0.5375,0.5338,0.5097,0.4861,0.468,0.4302,0.3995,0.384,0.3578,0.3382,0.3355,0.3272,0.3286,0.3261,0.3314,0.3354,0.3444,0.329,0.3151,0.3064,0.2685,0.2259,2.0874,2.0559,2.0237,1.9952,1.972,1.9448,1.9272,1.9272,1.9272,1.9089,1.8789,1.8738,1.8364,1.7713,1.7167,1.6697,1.6272,1.5694,1.5411,1.5484,1.6096,1.6272,1.6016,1.6624,1.6543,1.5812,1.5518,1.5148,1.4863,1.4842,1.4834,1.4834,1.4834,1.4604,1.4092,1.4004,1.3709,1.3127,1.3127,1.301,1.2813,1.2563,1.2165,1.1601,1.1108,1.0469,0.9621,0.9319,0.8998,0.8704,0.8684,0.855,0.8301,0.8502,0.8516,0.8243,0.8665,0.8991,0.9004,0.9332,0.9548,0.9581,0.9559,0.9265,0.8637,0.8758,0.8911,0.9004,0.9305,0.9526,0.961,0.9745,0.9764,0.9561,0.956,0.9345,0.8807,0.8421,0.8171,0.8106,0.7817,0.7743,0.788,0.7709,0.7557,0.7455,0.7265,0.6811,0.6445,0.6086,0.5822,0.5491,0.5395,0.5395,0.5382,0.5107,0.491,0.4887,0.4479,0.4155,0.4009,0.3749,0.3539,0.3428,0.3604,0.3665,0.358,0.3643,0.3697,0.3768,0.3703,0.3606,0.3517,0.3123,0.2713,2.0757,2.0457,2.0249,2.0055,1.9793,1.9418,1.9272,1.9272,1.9272,1.925,1.906,1.9104,1.8694,1.8064,1.7589,1.7004,1.6389,1.5899,1.5694,1.5731,1.6155,1.6396,1.6462,1.6901,1.6879,1.6433,1.6272,1.5957,1.5469,1.5467,1.5338,1.5177,1.5163,1.4936,1.4523,1.4333,1.4039,1.3651,1.3322,1.3127,1.29,1.2767,1.2472,1.1991,1.1737,1.1144,1.0224,1.0027,0.9746,0.9299,0.9285,0.9246,0.9126,0.9239,0.9253,0.9112,0.9479,0.9786,0.9947,1.0227,1.0358,1.018,1.0307,1.0287,1.002,0.9673,0.9546,0.967,0.9846,0.9987,1.0171,1.025,1.0246,1.0113,1.017,0.9967,0.9492,0.9089,0.8775,0.8479,0.8143,0.7913,0.784,0.7674,0.7546,0.7489,0.7163,0.6769,0.6379,0.609,0.5793,0.5495,0.5395,0.5395,0.5392,0.5278,0.5133,0.5029,0.4785,0.4494,0.4262,0.3977,0.3762,0.3679,0.3838,0.3846,0.3781,0.3814,0.3901,0.3988,0.3936,0.3835,0.3719,0.3377,0.2808,2.0635,2.0402,2.0377,2.0164,1.985,1.9601,1.9455,1.9441,1.9389,1.9397,1.9279,1.9272,1.8957,1.8408,1.8072,1.7479,1.6718,1.6301,1.6133,1.6155,1.6411,1.6661,1.691,1.7179,1.7165,1.6925,1.6895,1.658,1.5979,1.5913,1.571,1.5425,1.5389,1.5185,1.4798,1.4589,1.4313,1.3887,1.3476,1.32,1.3053,1.301,1.286,1.2457,1.2366,1.193,1.1127,1.0926,1.0577,1.005,1.001,0.992,0.9793,0.9876,0.9909,0.9936,1.0154,1.0448,1.0735,1.0955,1.0995,1.0821,1.0955,1.1089,1.1035,1.0474,1.0167,1.0374,1.0403,1.0521,1.0708,1.0762,1.0787,1.0787,1.0727,1.0496,1.0124,0.9735,0.9285,0.8736,0.839,0.8081,0.785,0.778,0.7779,0.7728,0.7423,0.7061,0.671,0.6396,0.6064,0.5683,0.5476,0.5395,0.5395,0.5392,0.5319,0.5156,0.5036,0.4842,0.4551,0.4259,0.4035,0.401,0.3996,0.3978,0.3959,0.3976,0.4027,0.4102,0.4088,0.3965,0.3833,0.3527,0.2921,2.1137,2.1072,2.0794,2.0486,2.0146,2.0088,1.9967,1.9786,1.9718,1.9603,1.9308,1.9272,1.9133,1.873,1.8408,1.8043,1.7633,1.7094,1.6822,1.6815,1.6844,1.6873,1.6939,1.7179,1.7165,1.6939,1.6917,1.6565,1.5994,1.5928,1.5717,1.5425,1.5389,1.5131,1.4589,1.4533,1.421,1.355,1.3506,1.3463,1.3455,1.3455,1.3331,1.312,1.2878,1.2657,1.2319,1.1874,1.137,1.0941,1.0855,1.0621,1.018,1.0365,1.0512,1.0557,1.0787,1.1042,1.1303,1.1335,1.1329,1.1315,1.1356,1.1355,1.139,1.1275,1.1269,1.1283,1.1255,1.1222,1.1343,1.1323,1.1289,1.1256,1.1082,1.0842,1.049,0.9906,0.9314,0.8841,0.8507,0.8107,0.7888,0.7932,0.8115,0.8405,0.8199,0.7899,0.7607,0.729,0.6842,0.6187,0.5689,0.5452,0.5405,0.5395,0.5359,0.5359,0.5216,0.5055,0.4904,0.4611,0.4268,0.4318,0.4272,0.4194,0.4127,0.4181,0.4251,0.4246,0.4219,0.4162,0.3898,0.3648,0.3205,2.1211,2.1196,2.1064,2.0823,2.0523,2.0263,2.011,2.0033,1.9842,1.9735,1.9603,1.9367,1.925,1.9074,1.8928,1.8701,1.8379,1.8116,1.7827,1.745,1.7421,1.7318,1.7165,1.726,1.7252,1.7143,1.7135,1.6908,1.6477,1.6104,1.5935,1.5935,1.5586,1.5155,1.4739,1.475,1.434,1.3536,1.3689,1.3784,1.3762,1.3587,1.3426,1.3222,1.3071,1.282,1.2398,1.2128,1.1757,1.1316,1.1249,1.1136,1.0876,1.1009,1.1069,1.1089,1.1349,1.1483,1.143,1.1583,1.161,1.1443,1.159,1.169,1.1703,1.1844,1.1944,1.1911,1.1602,1.143,1.1436,1.143,1.143,1.141,1.1316,1.1136,1.0842,1.0454,0.9936,0.941,0.9013,0.8655,0.8427,0.8493,0.8881,0.9257,0.9131,0.8764,0.8609,0.8186,0.7513,0.6805,0.6206,0.578,0.5586,0.5446,0.5409,0.5392,0.5326,0.5256,0.509,0.5093,0.4872,0.4587,0.44,0.4284,0.4235,0.4254,0.4303,0.4308,0.4292,0.4208,0.3917,0.3797,0.341,2.1211,2.1211,2.1211,2.1079,2.0837,2.0611,2.0394,2.0292,2.0128,1.9938,1.9793,1.9566,1.9352,1.9279,1.9272,1.9192,1.8935,1.8833,1.854,1.8086,1.7911,1.7644,1.7425,1.7308,1.7286,1.7286,1.7279,1.7165,1.6859,1.6213,1.603,1.6133,1.5694,1.5221,1.4929,1.49,1.4513,1.3865,1.4004,1.4159,1.4122,1.3887,1.3681,1.3439,1.3316,1.3048,1.2632,1.2505,1.2289,1.1852,1.1736,1.1613,1.1498,1.1498,1.1497,1.155,1.1744,1.1846,1.167,1.1864,1.1897,1.1682,1.1877,1.1991,1.206,1.2184,1.2298,1.2258,1.1911,1.1655,1.1635,1.1628,1.1663,1.1628,1.1575,1.143,1.1142,1.0834,1.0365,0.9831,0.9381,0.9145,0.9009,0.9175,0.9578,1.0068,0.998,0.9691,0.9518,0.8995,0.8305,0.7436,0.6904,0.6344,0.5738,0.5491,0.5412,0.5395,0.5395,0.5359,0.5223,0.5326,0.5259,0.4761,0.4489,0.4353,0.4341,0.4349,0.4349,0.4349,0.4338,0.4251,0.3943,0.3863,0.3586,2.1211,2.1211,2.1211,2.1253,2.1174,2.1202,2.0976,2.0754,2.0655,2.0333,1.9874,1.9793,1.9617,1.9286,1.9272,1.9264,1.9206,1.8942,1.8774,1.8635,1.8123,1.7816,1.7731,1.7432,1.7286,1.7286,1.7286,1.7179,1.6895,1.625,1.5921,1.5935,1.5643,1.5243,1.4973,1.4936,1.4772,1.4414,1.446,1.4482,1.4482,1.4467,1.4245,1.3989,1.3667,1.3483,1.3426,1.3248,1.304,1.2814,1.2571,1.2193,1.1758,1.1696,1.1757,1.1846,1.1906,1.1991,1.2191,1.2245,1.2245,1.2238,1.2225,1.2271,1.2245,1.2278,1.2305,1.2305,1.2238,1.2204,1.2204,1.2158,1.2184,1.2178,1.1997,1.173,1.1382,1.0942,1.0412,0.9967,0.9532,0.9351,0.9382,0.9756,1.0165,1.0501,1.062,1.0521,1.0188,0.9804,0.9113,0.8351,0.7699,0.7078,0.593,0.5562,0.547,0.5416,0.5429,0.5395,0.5395,0.5362,0.5126,0.4909,0.4577,0.445,0.4473,0.4495,0.449,0.4484,0.4473,0.4311,0.4008,0.3932,0.3664,2.2335,2.2335,2.2335,2.2335,2.2343,2.2335,2.2153,2.1861,2.1425,2.092,2.0347,1.9964,1.9632,1.9272,1.9272,1.9272,1.9264,1.9147,1.8994,1.8789,1.854,1.8218,1.7823,1.7684,1.7468,1.7301,1.7286,1.7274,1.7135,1.6718,1.6521,1.647,1.5987,1.5535,1.5265,1.5214,1.5006,1.4585,1.4662,1.4772,1.475,1.4575,1.4494,1.4567,1.4077,1.3681,1.3364,1.325,1.3119,1.29,1.2788,1.2611,1.2327,1.217,1.2096,1.2167,1.2144,1.2191,1.2285,1.2305,1.2305,1.2305,1.2305,1.2305,1.2305,1.2305,1.2305,1.2305,1.2305,1.2305,1.2305,1.2305,1.2305,1.2291,1.2211,1.1944,1.1495,1.1223,1.087,1.0287,0.9892,0.9862,1.0104,1.0322,1.0603,1.1102,1.1016,1.09,1.0885,1.0519,0.9873,0.9304,0.8636,0.7832,0.6816,0.6069,0.5705,0.5542,0.5454,0.5429,0.5402,0.5399,0.5229,0.4958,0.4633,0.4538,0.4569,0.4627,0.4616,0.4547,0.4539,0.4409,0.4107,0.4011,0.3771,2.3552,2.3544,2.3552,2.3544,2.3544,2.3552,2.3336,2.2974,2.2361,2.163,2.0988,2.0382,1.9835,1.9484,1.9433,1.9412,1.9279,1.9272,1.9162,1.8942,1.884,1.8555,1.816,1.7911,1.7699,1.7447,1.7323,1.7286,1.7289,1.7057,1.6903,1.6851,1.6228,1.5818,1.5564,1.5489,1.5189,1.4889,1.4992,1.5061,1.5046,1.4999,1.4918,1.4856,1.4611,1.411,1.3497,1.3367,1.3236,1.3119,1.309,1.301,1.2783,1.2606,1.2489,1.2489,1.2452,1.2415,1.2372,1.2335,1.2305,1.2305,1.2305,1.2305,1.2305,1.2305,1.2305,1.2305,1.2305,1.2305,1.2305,1.2305,1.2305,1.2305,1.2305,1.2058,1.1482,1.143,1.1042,1.0457,1.0243,1.0322,1.0529,1.0633,1.0814,1.1203,1.1118,1.1166,1.1089,1.0883,1.0398,0.9926,0.9272,0.8425,0.7588,0.6873,0.6152,0.5902,0.5614,0.5535,0.5443,0.5429,0.5289,0.4983,0.48,0.4718,0.4706,0.4739,0.4673,0.4632,0.4594,0.4558,0.4322,0.4126,0.3837,2.4727,2.4727,2.4727,2.4727,2.4735,2.4735,2.4411,2.3871,2.3295,2.2513,2.167,2.0996,2.0383,1.9881,1.9764,1.9625,1.9316,1.9272,1.9264,1.9206,1.8957,1.8803,1.8679,1.8167,1.786,1.775,1.7425,1.7286,1.7264,1.7055,1.6947,1.6815,1.6301,1.6001,1.5913,1.5593,1.5396,1.5323,1.533,1.5352,1.5418,1.5621,1.5447,1.5031,1.5126,1.4834,1.404,1.3704,1.3506,1.3492,1.3492,1.3433,1.3235,1.3058,1.2905,1.2903,1.2721,1.2633,1.2583,1.2442,1.2351,1.2311,1.2318,1.2358,1.2365,1.2385,1.2405,1.2418,1.2398,1.2365,1.2385,1.2398,1.2365,1.2305,1.2305,1.2058,1.1623,1.1382,1.1095,1.0509,1.0434,1.0473,1.0475,1.0673,1.0856,1.0771,1.0928,1.1083,1.09,1.0742,1.0458,1.0053,0.9643,0.9062,0.8333,0.7601,0.6876,0.627,0.5941,0.5717,0.5624,0.5559,0.5383,0.5138,0.4979,0.4859,0.4898,0.4919,0.4838,0.4784,0.4731,0.4659,0.4436,0.4202,0.3993,2.5972,2.6027,2.6036,2.5972,2.6036,2.6027,2.5652,2.5119,2.4501,2.3626,2.2529,2.1716,2.0848,2.0193,1.9915,1.9639,1.9294,1.9272,1.9272,1.925,1.9162,1.9001,1.8782,1.8577,1.8247,1.7775,1.7486,1.7286,1.7264,1.7223,1.7179,1.7091,1.6762,1.6448,1.6265,1.5921,1.563,1.5411,1.5389,1.5389,1.5389,1.5484,1.5474,1.525,1.5126,1.4878,1.4601,1.4128,1.385,1.3836,1.3836,1.3848,1.3832,1.369,1.3575,1.3537,1.3337,1.3112,1.2934,1.275,1.2543,1.2398,1.2522,1.2636,1.2677,1.2792,1.2899,1.2906,1.2926,1.2933,1.2933,1.2926,1.2746,1.2314,1.2298,1.2184,1.1777,1.1383,1.0989,1.0623,1.0561,1.0635,1.0744,1.0877,1.0817,1.0832,1.0852,1.0787,1.0853,1.061,1.0521,1.0307,1.0025,0.9706,0.8978,0.8498,0.8105,0.7314,0.6753,0.6188,0.601,0.5769,0.5549,0.5322,0.5158,0.5077,0.5083,0.5065,0.4975,0.486,0.476,0.4613,0.4442,0.4249,0.4042,2.7422,2.7467,2.7316,2.7196,2.7251,2.7251,2.6881,2.6282,2.5716,2.4751,2.3646,2.2561,2.1593,2.0754,2.0212,1.9755,1.9522,1.9397,1.9272,1.9272,1.9272,1.9147,1.8928,1.8694,1.835,1.7845,1.7432,1.7286,1.7286,1.7286,1.7286,1.7274,1.7057,1.68,1.6558,1.6126,1.5796,1.5579,1.5455,1.5389,1.5418,1.5506,1.5555,1.5438,1.5377,1.5364,1.5305,1.4847,1.4474,1.4232,1.4203,1.4229,1.4287,1.4177,1.4105,1.4066,1.3895,1.3687,1.3512,1.3189,1.3013,1.2931,1.2896,1.2946,1.3015,1.3205,1.32,1.3206,1.3193,1.3206,1.32,1.32,1.3019,1.2699,1.2665,1.2452,1.2071,1.151,1.1136,1.0949,1.0902,1.0935,1.0936,1.0936,1.0771,1.0755,1.063,1.0498,1.0594,1.0473,1.0428,1.0395,1.0259,0.9888,0.9525,0.9359,0.9299,0.8543,0.7721,0.7074,0.661,0.6239,0.5934,0.5633,0.5402,0.5299,0.529,0.5173,0.5093,0.4938,0.4839,0.4643,0.4499,0.4303,0.4107,2.8935,2.8867,2.8496,2.8223,2.8184,2.8184,2.7853,2.7368,2.6754,2.5854,2.4744,2.3663,2.2584,2.167,2.091,2.0332,1.9861,1.9634,1.942,1.939,1.9324,1.9242,1.9162,1.8694,1.8291,1.7955,1.7574,1.7344,1.7366,1.7308,1.7286,1.7296,1.7062,1.6939,1.6815,1.6272,1.5965,1.5913,1.5613,1.5396,1.5403,1.5644,1.5723,1.5452,1.5839,1.6091,1.6018,1.5754,1.5264,1.4663,1.4533,1.4562,1.4577,1.4562,1.4668,1.469,1.442,1.4302,1.4123,1.3772,1.3558,1.3737,1.3431,1.3208,1.3535,1.3546,1.3454,1.3393,1.3387,1.332,1.3327,1.3327,1.33,1.3267,1.316,1.2879,1.2385,1.185,1.1603,1.1462,1.1422,1.1349,1.1096,1.1002,1.0692,1.0367,1.0319,1.0267,1.0153,1.0113,1.0158,1.0163,1.0172,1.0143,0.9801,1.0067,1.0002,0.9697,0.8854,0.8088,0.7204,0.664,0.6346,0.6003,0.5766,0.5626,0.5532,0.5532,0.5372,0.5214,0.503,0.4778,0.4588,0.4433,0.4189,2.9219,2.8906,2.8799,2.8584,2.832,2.8301,2.813,2.7745,2.7368,2.6663,2.567,2.4723,2.3809,2.2883,2.2222,2.148,2.0856,2.0453,2.0001,1.9606,1.9383,1.9272,1.9206,1.8869,1.8606,1.8438,1.7933,1.7636,1.7614,1.7435,1.7293,1.7286,1.7238,1.7194,1.7106,1.6557,1.6272,1.617,1.5652,1.5396,1.5403,1.5511,1.5476,1.546,1.5887,1.6254,1.6509,1.6456,1.5977,1.5165,1.4896,1.5014,1.5338,1.5531,1.5604,1.5604,1.5409,1.5109,1.4791,1.4355,1.4104,1.4141,1.418,1.4236,1.4313,1.4329,1.4228,1.4083,1.3972,1.3834,1.3848,1.3834,1.3834,1.3801,1.3507,1.3106,1.277,1.2543,1.2362,1.2111,1.1897,1.165,1.1335,1.1055,1.0758,1.0516,1.0321,1.014,1.0036,1.0,1.0177,0.9986,0.9948,1.0116,1.026,1.0596,1.074,1.0683,1.0054,0.9212,0.8083,0.695,0.6719,0.6522,0.6329,0.6203,0.6182,0.6209,0.5889,0.5762,0.5457,0.5304,0.4866,0.462,0.4312,2.958,2.918,2.8994,2.8672,2.832,2.8301,2.8237,2.8067,2.7862,2.7368,2.6609,2.5889,2.5099,2.428,2.3557,2.2706,2.1839,2.1278,2.0608,1.9873,1.948,1.9324,1.9199,1.895,1.8789,1.8716,1.8138,1.7845,1.775,1.7486,1.7301,1.7286,1.7286,1.7286,1.7282,1.685,1.6536,1.6353,1.5877,1.5542,1.5403,1.5389,1.5396,1.5506,1.5922,1.6476,1.7033,1.718,1.6758,1.582,1.5357,1.5315,1.5842,1.6188,1.6368,1.6368,1.6188,1.5909,1.5438,1.4899,1.4724,1.4947,1.5116,1.5234,1.5312,1.5299,1.5137,1.4831,1.4482,1.4243,1.4201,1.4166,1.4088,1.4021,1.3774,1.3447,1.3146,1.2999,1.2879,1.2672,1.2455,1.21,1.1683,1.1353,1.104,1.081,1.0645,1.0442,1.024,1.0227,1.0307,1.0341,1.0293,1.0531,1.0689,1.0993,1.1218,1.1218,1.0883,1.0106,0.8916,0.7601,0.7177,0.7026,0.6896,0.683,0.6903,0.6957,0.6977,0.6727,0.6255,0.5751,0.5339,0.4882,0.4563,2.9922,2.9463,2.9072,2.8672,2.832,2.8301,2.8291,2.8301,2.8237,2.7916,2.7368,2.6808,2.6227,2.5663,2.4909,2.398,2.2933,2.2213,2.1154,2.04,1.9835,1.9635,1.9606,1.9133,1.8957,1.8803,1.8203,1.8013,1.7925,1.7625,1.7359,1.7359,1.7337,1.7323,1.7333,1.7079,1.6771,1.6513,1.617,1.5862,1.5644,1.5643,1.565,1.5769,1.6485,1.7114,1.7676,1.7934,1.7617,1.6443,1.5831,1.5858,1.6252,1.6632,1.6829,1.6886,1.6878,1.665,1.6232,1.5601,1.5394,1.5952,1.6026,1.6132,1.6293,1.6165,1.5842,1.5484,1.4894,1.4608,1.4398,1.4286,1.4126,1.4043,1.3975,1.3881,1.3606,1.338,1.33,1.3267,1.3052,1.2583,1.2194,1.1864,1.1662,1.1357,1.125,1.1181,1.1084,1.1133,1.1169,1.1234,1.1184,1.1077,1.1254,1.1395,1.1573,1.1666,1.1372,1.0723,0.9723,0.8601,0.7855,0.7466,0.7446,0.7553,0.7736,0.7812,0.7954,0.7626,0.71,0.6445,0.5864,0.5336,0.4915,2.9746,2.9053,2.8955,2.8682,2.834,2.8301,2.8301,2.8291,2.8291,2.813,2.7745,2.7359,2.7034,2.6645,2.6227,2.538,2.4201,2.3397,2.2352,2.081,2.066,2.0557,2.0344,1.9774,1.9265,1.9148,1.8818,1.8619,1.848,1.8074,1.7706,1.7724,1.7591,1.745,1.7622,1.7289,1.702,1.6974,1.6602,1.6323,1.6235,1.6234,1.6234,1.6393,1.7415,1.8141,1.8455,1.8825,1.8736,1.8014,1.7131,1.673,1.7098,1.7489,1.7691,1.77,1.7723,1.7521,1.7123,1.6659,1.6439,1.6764,1.6846,1.6887,1.6903,1.6722,1.6402,1.5989,1.5616,1.5269,1.4768,1.4482,1.415,1.3842,1.3706,1.3586,1.3434,1.3634,1.3768,1.3714,1.336,1.2998,1.2603,1.2141,1.1971,1.1921,1.1939,1.2015,1.2009,1.1965,1.192,1.1913,1.1676,1.1534,1.1635,1.1775,1.1944,1.2042,1.1833,1.1503,1.0471,0.9597,0.886,0.838,0.8089,0.8271,0.8575,0.8836,0.902,0.8472,0.7921,0.7364,0.6741,0.6035,0.5523,3.0089,2.9327,2.9307,2.905,2.8704,2.8568,2.8514,2.8461,2.8344,2.8237,2.8077,2.7862,2.7755,2.7638,2.7403,2.6733,2.5532,2.4305,2.3074,2.1901,2.165,2.165,2.1607,2.1089,2.0577,2.0143,1.9692,1.9555,1.9357,1.8972,1.8607,1.8504,1.82,1.8155,1.8221,1.7933,1.7819,1.7751,1.7469,1.7239,1.711,1.7123,1.7334,1.7668,1.8548,1.9215,1.9255,1.9684,1.9574,1.9087,1.8385,1.7902,1.8023,1.8385,1.8585,1.8625,1.8576,1.8407,1.8014,1.7619,1.7359,1.7489,1.7529,1.7538,1.7497,1.7375,1.7245,1.7,1.6747,1.6288,1.5289,1.4717,1.4261,1.3615,1.3527,1.332,1.3026,1.3313,1.3681,1.3601,1.322,1.2866,1.2556,1.2348,1.2288,1.2215,1.2594,1.2647,1.2587,1.2551,1.2403,1.2303,1.2074,1.1974,1.2023,1.216,1.2288,1.2391,1.232,1.2035,1.1438,1.0638,0.9867,0.9424,0.9058,0.9198,0.9453,0.9755,0.9927,0.9583,0.9062,0.8421,0.7773,0.7098,0.6663,3.0439,2.9705,2.9695,2.9474,2.9119,2.8824,2.8674,2.8621,2.8398,2.8291,2.8301,2.8301,2.8184,2.8237,2.8237,2.7719,2.6559,2.5133,2.3677,2.3044,2.2787,2.2761,2.2702,2.2551,2.2249,2.1379,2.0942,2.0754,2.0619,2.016,1.9966,1.9741,1.9315,1.9219,1.9162,1.9004,1.8867,1.8704,1.864,1.8423,1.8249,1.8253,1.8608,1.9057,1.9634,2.0057,2.0182,2.048,2.0541,1.9895,1.968,1.9396,1.9183,1.9173,1.9381,1.9381,1.9341,1.9143,1.8816,1.8456,1.8207,1.8167,1.8086,1.8095,1.8072,1.8063,1.8014,1.8,1.7782,1.7319,1.6197,1.5606,1.4703,1.3924,1.3729,1.3244,1.2741,1.2831,1.2919,1.312,1.2971,1.2639,1.2652,1.2623,1.2559,1.2619,1.3013,1.328,1.3213,1.306,1.2882,1.2706,1.2473,1.2291,1.2323,1.2379,1.254,1.2542,1.2596,1.2368,1.21,1.1582,1.0854,1.0399,1.0112,1.0198,1.0313,1.0608,1.0673,1.0549,1.0019,0.9223,0.8623,0.8152,0.7744,2.9715,2.9242,2.9242,2.9192,2.9089,2.8834,2.8727,2.8621,2.8451,2.8291,2.8354,2.8291,2.8291,2.8291,2.8301,2.7781,2.6798,2.568,2.485,2.4336,2.4076,2.3922,2.3818,2.3818,2.3678,2.3361,2.2698,2.2264,2.2029,2.1773,2.1482,2.1406,2.0823,2.0509,2.0407,2.0192,1.9951,1.9825,1.9774,1.9624,1.9411,1.9567,1.9857,2.0192,2.0661,2.0881,2.1057,2.1368,2.145,2.0981,2.0883,2.0641,2.031,2.0027,1.989,1.9824,1.9814,1.9706,1.9469,1.9222,1.9024,1.8873,1.8674,1.8554,1.8563,1.8612,1.8652,1.8717,1.8635,1.8305,1.7849,1.7025,1.6175,1.5352,1.4465,1.3959,1.3272,1.2702,1.2482,1.2824,1.2677,1.2569,1.2748,1.2954,1.3035,1.315,1.3447,1.3682,1.3701,1.3527,1.33,1.3114,1.2936,1.2734,1.2584,1.2599,1.2677,1.2638,1.265,1.2578,1.2374,1.2296,1.1858,1.13,1.0987,1.092,1.1127,1.134,1.1218,1.0988,1.0454,0.9922,0.9453,0.8993,0.8542,2.9982,2.9574,2.9564,2.9564,2.9522,2.93,2.9142,2.9089,2.8867,2.8708,2.8664,2.8568,2.8514,2.8461,2.8344,2.7897,2.7294,2.682,2.6177,2.5683,2.5408,2.5121,2.492,2.4892,2.4932,2.4775,2.4362,2.3759,2.3317,2.2944,2.2859,2.2636,2.2049,2.1675,2.1577,2.1229,2.1024,2.097,2.0802,2.0616,2.0377,2.0607,2.0818,2.1253,2.1567,2.1738,2.1778,2.1987,2.2002,2.167,2.1531,2.1455,2.1259,2.1021,2.0716,2.038,2.0293,2.0235,2.0147,2.002,1.9824,1.9469,1.9219,1.9042,1.9002,1.9051,1.9319,1.9789,1.9962,1.9731,1.9272,1.8532,1.7713,1.665,1.5471,1.4565,1.391,1.3081,1.2841,1.286,1.274,1.2804,1.3029,1.3219,1.3444,1.3662,1.3899,1.3991,1.4117,1.3828,1.3487,1.3214,1.3002,1.2947,1.2789,1.2858,1.2875,1.2789,1.2681,1.2614,1.259,1.2476,1.241,1.2147,1.1917,1.1584,1.1511,1.1594,1.1489,1.1379,1.0927,1.0523,1.0202,0.9798,0.9433,3.0325,2.9994,2.9994,2.9994,2.9942,2.9722,2.9606,2.9554,2.9237,2.9079,2.9079,2.8834,2.8674,2.8621,2.8422,2.8105,2.7836,2.7705,2.7195,2.6686,2.6336,2.6122,2.5908,2.5723,2.5586,2.5479,2.5479,2.5235,2.4531,2.4191,2.4033,2.3904,2.3299,2.2954,2.2926,2.2619,2.2295,2.2026,2.1822,2.1634,2.1404,2.1312,2.1537,2.2133,2.2394,2.248,2.2428,2.2551,2.2412,2.2139,2.2002,2.1953,2.1904,2.1885,2.1553,2.0977,2.084,2.0869,2.0859,2.0849,2.0689,2.0339,1.9906,1.9768,1.9746,1.9956,2.0263,2.1192,2.1336,2.1044,2.0401,1.9838,1.9009,1.8063,1.6669,1.5418,1.4893,1.4181,1.3418,1.3283,1.3054,1.331,1.3836,1.3759,1.405,1.4259,1.4448,1.4115,1.4174,1.3821,1.3493,1.3167,1.3015,1.3008,1.3009,1.3089,1.305,1.2983,1.2807,1.2656,1.265,1.2668,1.2596,1.2505,1.2368,1.2064,1.1976,1.1844,1.1804,1.1696,1.1435,1.1168,1.0854,1.0667,1.0412,3.0046,2.9994,2.9994,2.9994,2.9942,2.9722,2.9606,2.9554,2.929,2.9132,2.9185,2.8887,2.8727,2.8674,2.8461,2.8315,2.8168,2.7914,2.766,2.7337,2.6758,2.6446,2.6221,2.584,2.5752,2.5781,2.5732,2.5635,2.5362,2.5246,2.5324,2.5179,2.4765,2.4694,2.436,2.3842,2.39,2.358,2.338,2.2974,2.2322,2.1945,2.2042,2.2422,2.2766,2.2931,2.2877,2.2925,2.2769,2.25,2.2441,2.2256,2.1963,2.1936,2.1906,2.1758,2.1728,2.1728,2.166,2.1623,2.1522,2.1207,2.0999,2.0961,2.0866,2.1037,2.1425,2.223,2.2167,2.1812,2.1291,2.0795,1.9982,1.9576,1.8965,1.7668,1.6685,1.5811,1.4995,1.4583,1.4646,1.4759,1.5082,1.4838,1.4667,1.4834,1.4921,1.4594,1.4223,1.3923,1.3593,1.332,1.3154,1.3173,1.312,1.3171,1.3172,1.3104,1.2909,1.2703,1.2747,1.279,1.2699,1.259,1.2524,1.2493,1.2385,1.2294,1.224,1.2047,1.1775,1.1645,1.1529,1.142,1.1248,2.9994,2.9994,2.9994,2.9994,2.9994,2.9889,2.9827,2.9774,2.9669,2.9617,2.9564,2.9353,2.9089,2.893,2.8824,2.8664,2.8528,2.8308,2.8029,2.766,2.7092,2.6712,2.6557,2.6202,2.5917,2.5917,2.5917,2.582,2.5781,2.5684,2.5684,2.5615,2.5312,2.5029,2.5049,2.4394,2.4023,2.3637,2.333,2.2881,2.2559,2.2373,2.2432,2.2799,2.2994,2.3081,2.3101,2.3091,2.3033,2.2828,2.2818,2.276,2.2646,2.2607,2.2607,2.2598,2.2598,2.2363,2.1963,2.1924,2.1892,2.1802,2.1678,2.1588,2.1655,2.189,2.2139,2.2428,2.2658,2.2433,2.2112,2.1835,2.1385,2.0959,2.0583,1.9542,1.828,1.7619,1.6899,1.655,1.6242,1.6412,1.6462,1.6158,1.5965,1.5932,1.5771,1.5312,1.4766,1.4177,1.3854,1.3493,1.342,1.3373,1.3266,1.323,1.3225,1.3153,1.2868,1.2731,1.288,1.2875,1.279,1.2705,1.2638,1.2638,1.2687,1.2542,1.233,1.2204,1.2095,1.1949,1.1844,1.1749,1.1517,2.9994,2.9994,2.9994,2.9994,2.9994,2.9994,2.9994,2.9994,2.9994,3.0005,2.9942,2.9669,2.9396,2.9132,2.9079,2.8877,2.8674,2.8674,2.838,2.7849,2.7388,2.7048,2.6814,2.6506,2.6159,2.61,2.6052,2.5917,2.5781,2.5684,2.5684,2.5674,2.5469,2.5293,2.5088,2.4766,2.4385,2.3965,2.3203,2.2734,2.2487,2.25,2.2613,2.2847,2.3023,2.3101,2.3101,2.3101,2.3081,2.3071,2.3052,2.3013,2.2994,2.2964,2.2974,2.2974,2.2964,2.2822,2.2461,2.2305,2.2207,2.2197,2.2197,2.223,2.2262,2.2519,2.2633,2.2682,2.2867,2.2818,2.2565,2.237,2.1845,2.1535,2.1351,2.0458,1.9566,1.8662,1.7944,1.7445,1.7423,1.8187,1.8071,1.7664,1.7383,1.717,1.6698,1.6096,1.5396,1.4652,1.4338,1.4077,1.3901,1.3828,1.362,1.347,1.3421,1.322,1.2899,1.2781,1.2872,1.2917,1.2881,1.279,1.2705,1.2699,1.2693,1.2542,1.2409,1.2397,1.2361,1.2252,1.2139,1.206,1.1896,2.9994,2.9994,2.9984,2.9984,2.9994,2.9994,2.9994,2.9994,2.9994,2.9994,2.9942,2.9722,2.9459,2.9237,2.9185,2.9036,2.8727,2.8674,2.8562,2.816,2.771,2.7488,2.7262,2.6912,2.6402,2.6237,2.6217,2.6062,2.583,2.583,2.5781,2.5654,2.5615,2.5664,2.5566,2.5283,2.4814,2.4287,2.3496,2.2906,2.2725,2.2607,2.2607,2.2695,2.2896,2.3101,2.3101,2.3101,2.3101,2.3101,2.3101,2.3101,2.3101,2.3101,2.3101,2.3101,2.3101,2.2974,2.2828,2.2808,2.2945,2.2974,2.2925,2.2828,2.2799,2.2935,2.3033,2.2984,2.3052,2.2867,2.2549,2.2178,2.1953,2.1494,2.115,2.048,1.9728,1.93,1.8605,1.8204,1.8575,1.9375,1.9764,1.9322,1.8726,1.8476,1.7544,1.6891,1.6064,1.5376,1.5059,1.4808,1.4569,1.4338,1.4057,1.3874,1.354,1.3332,1.3095,1.2899,1.2783,1.2824,1.2881,1.279,1.2705,1.2705,1.2699,1.2608,1.2578,1.265,1.262,1.2475,1.2403,1.235,1.2218,2.9829,2.958,2.957,2.9735,2.9994,2.9994,2.9994,2.9994,2.9994,2.9994,2.9994,2.9879,2.9784,2.9669,2.9627,2.9511,2.93,2.9248,2.9036,2.875,2.8341,2.8215,2.7965,2.7571,2.7094,2.6964,2.6764,2.6448,2.6207,2.612,2.6159,2.611,2.5878,2.5732,2.5635,2.5498,2.5019,2.4512,2.3906,2.3437,2.332,2.3008,2.29,2.2886,2.2988,2.3091,2.3101,2.3101,2.3101,2.3101,2.3091,2.3101,2.3101,2.3101,2.3101,2.3101,2.3101,2.3101,2.3101,2.3101,2.3101,2.3101,2.3081,2.3101,2.3101,2.3101,2.3101,2.3091,2.312,2.2964,2.2598,2.2363,2.208,2.1396,2.0848,2.0379,2.0006,1.9651,1.9593,1.9354,1.9927,2.0694,2.0927,2.1045,2.0359,1.9739,1.8718,1.7712,1.6973,1.6285,1.6031,1.577,1.559,1.5052,1.474,1.4234,1.3641,1.3447,1.3293,1.3072,1.2883,1.2777,1.2747,1.2705,1.2705,1.2747,1.2747,1.2705,1.2705,1.2705,1.2705,1.2668,1.2638,1.2619,1.2451,2.9735,2.9321,2.9311,2.9404,2.958,2.958,2.958,2.9611,2.9725,2.9891,2.9994,2.9994,2.9994,2.9994,2.9994,2.9827,2.9606,2.9554,2.9343,2.9056,2.8761,2.8735,2.8554,2.8144,2.7559,2.7539,2.7145,2.6747,2.6448,2.6496,2.6448,2.6352,2.6169,2.5975,2.5751,2.543,2.5049,2.4629,2.4375,2.4216,2.4111,2.3769,2.3682,2.3691,2.3746,2.3575,2.3536,2.3521,2.3413,2.3291,2.3178,2.3091,2.3101,2.3101,2.3101,2.3101,2.3101,2.3101,2.3101,2.3101,2.3101,2.3101,2.3101,2.3101,2.3101,2.3101,2.313,2.3379,2.335,2.3232,2.2939,2.292,2.2646,2.209,2.1465,2.0972,2.0678,2.0346,2.0504,2.0576,2.1086,2.1219,2.136,2.1366,2.105,2.0421,1.9726,1.8883,1.8237,1.7637,1.7189,1.6966,1.6677,1.6118,1.5466,1.4954,1.4414,1.3687,1.3527,1.3254,1.3086,1.2934,1.2784,1.2705,1.2747,1.2796,1.2796,1.279,1.2747,1.2705,1.2705,1.2705,1.2705,1.265,1.2602,2.9673,2.9321,2.9259,2.9011,2.8669,2.8659,2.87,2.8856,2.9208,2.9611,2.9973,2.9994,2.9994,2.9994,2.9994,2.9879,2.9722,2.9659,2.9501,2.9242,2.9123,2.9003,2.8778,2.8407,2.8066,2.758,2.7347,2.7087,2.6724,2.6873,2.6764,2.6595,2.6557,2.6304,2.611,2.582,2.5478,2.5117,2.501,2.4959,2.4832,2.4424,2.4404,2.4545,2.4565,2.4285,2.4207,2.3984,2.3846,2.3594,2.3218,2.3101,2.3101,2.3101,2.3101,2.3101,2.3101,2.3101,2.3101,2.3101,2.3101,2.3101,2.3101,2.3101,2.3101,2.312,2.3257,2.3545,2.3672,2.3896,2.3828,2.3672,2.3271,2.2812,2.2178,2.1687,2.1409,2.1057,2.1178,2.1259,2.1227,2.1245,2.142,2.1491,2.1399,2.1033,2.0548,1.9997,1.931,1.876,1.8224,1.8031,1.7767,1.7247,1.6579,1.5868,1.5167,1.4335,1.3754,1.3547,1.3417,1.3325,1.3148,1.2869,1.3009,1.3228,1.3094,1.2918,1.3003,1.3088,1.279,1.2705,1.2705,1.2693,1.265,2.8814,2.839,2.839,2.8131,2.7831,2.8369,2.8618,2.87,2.9104,2.9559,2.9922,2.9994,2.9994,2.9994,2.9994,2.9942,2.9889,2.9889,2.9732,2.9701,2.9558,2.9641,2.9405,2.8941,2.8692,2.861,2.8262,2.7873,2.7957,2.7715,2.76,2.7467,2.6957,2.6506,2.6159,2.5868,2.5615,2.5469,2.5254,2.5039,2.5067,2.4763,2.4643,2.5016,2.497,2.4874,2.4811,2.4586,2.4202,2.393,2.3551,2.3198,2.3188,2.3188,2.3159,2.313,2.312,2.3101,2.3101,2.3101,2.3101,2.312,2.3101,2.3101,2.3101,2.3101,2.3379,2.3701,2.3887,2.4102,2.4141,2.417,2.3887,2.3506,2.2978,2.2549,2.2172,2.1783,2.1654,2.1697,2.1739,2.1774,2.1867,2.1887,2.1777,2.1428,2.0952,2.0591,2.0005,1.9542,1.9082,1.8977,1.8758,1.8306,1.7722,1.692,1.6067,1.5286,1.4495,1.389,1.3783,1.3873,1.373,1.3613,1.3678,1.3701,1.3655,1.3583,1.3574,1.3512,1.3379,1.2997,1.279,1.2747,1.2693,2.8338,2.7886,2.7875,2.7665,2.7434,2.7903,2.8224,2.84,2.8711,2.9166,2.9653,2.9756,2.986,2.9942,2.9994,2.9994,2.9994,2.9994,2.9994,2.9973,2.9787,2.9704,2.9528,2.9208,2.8773,2.8876,2.868,2.832,2.8464,2.8537,2.8268,2.7806,2.7403,2.6919,2.649,2.6159,2.6014,2.5953,2.5785,2.5775,2.5736,2.5557,2.534,2.5617,2.5641,2.5581,2.5436,2.5103,2.467,2.4391,2.3994,2.352,2.352,2.353,2.3574,2.353,2.3539,2.3559,2.3588,2.3598,2.3647,2.3617,2.3315,2.311,2.3149,2.3266,2.3623,2.3906,2.4082,2.4443,2.4736,2.4775,2.4492,2.4111,2.3799,2.3369,2.2852,2.2471,2.2148,2.2172,2.2207,2.227,2.2353,2.2269,2.2186,2.1752,2.1374,2.1015,2.0753,2.0365,2.0031,1.9991,1.9883,1.9535,1.881,1.7829,1.7006,1.6205,1.5388,1.454,1.4688,1.4864,1.4615,1.4414,1.4554,1.4581,1.437,1.4307,1.4555,1.4516,1.4294,1.3795,1.3082,1.2918,1.2918,2.8307,2.7935,2.7903,2.7645,2.7361,2.7403,2.7572,2.7935,2.7966,2.8493,2.9321,2.9363,2.9601,2.9942,2.9994,2.9994,2.9994,2.9994,2.9994,2.987,2.9622,2.9477,2.9114,2.8618,2.8649,2.8524,2.8473,2.8628,2.8669,2.8752,2.8493,2.8103,2.7842,2.748,2.713,2.6903,2.6677,2.643,2.6292,2.6352,2.6344,2.642,2.634,2.6466,2.6559,2.6428,2.6194,2.5785,2.548,2.5105,2.4651,2.4457,2.4375,2.4404,2.4404,2.4385,2.4326,2.4277,2.4248,2.4209,2.4238,2.4092,2.3608,2.3296,2.3315,2.3672,2.3994,2.4365,2.4648,2.5127,2.5508,2.5293,2.5125,2.4805,2.457,2.4082,2.356,2.3139,2.2744,2.2656,2.2656,2.2722,2.291,2.2858,2.2755,2.234,2.2005,2.176,2.1482,2.1374,2.1096,2.1132,2.0998,2.08,1.9927,1.8674,1.7711,1.6847,1.6071,1.5374,1.5645,1.5756,1.5565,1.5449,1.5547,1.5505,1.5461,1.5583,1.5817,1.5722,1.5727,1.4657,1.3965,1.3398,1.3264,2.762,2.7448,2.7458,2.7423,2.732,2.732,2.751,2.7893,2.7886,2.8442,2.9311,2.9301,2.9466,2.9973,2.9994,2.9963,2.9973,2.9994,2.9994,2.9787,2.9384,2.9321,2.9042,2.8649,2.8731,2.8856,2.8938,2.8897,2.9342,2.928,2.9052,2.8918,2.8425,2.8159,2.8066,2.8006,2.7372,2.6853,2.6693,2.6706,2.6756,2.6645,2.6792,2.6927,2.6914,2.6802,2.6787,2.6141,2.5789,2.5578,2.4822,2.4443,2.4424,2.4424,2.4414,2.4414,2.4404,2.4404,2.4424,2.4434,2.4482,2.4521,2.4189,2.4085,2.4102,2.4209,2.4453,2.4727,2.501,2.5381,2.5577,2.5537,2.543,2.5283,2.5049,2.4668,2.4196,2.3902,2.3516,2.331,2.3291,2.3378,2.356,2.3652,2.348,2.303,2.265,2.2393,2.2128,2.193,2.1741,2.1696,2.1595,2.1225,2.0429,1.9287,1.8348,1.7449,1.6721,1.6267,1.6454,1.6501,1.6417,1.6544,1.6849,1.6802,1.6614,1.6858,1.7235,1.7474,1.7383,1.6037,1.4845,1.4464,1.3982,2.732,2.732,2.732,2.732,2.732,2.732,2.7438,2.7645,2.7665,2.81,2.8711,2.8731,2.9011,2.9363,2.9394,2.9394,2.9394,2.9352,2.9363,2.9249,2.9032,2.8773,2.8587,2.84,2.8307,2.8607,2.8835,2.8763,2.9332,2.9446,2.9239,2.8938,2.8814,2.8783,2.8578,2.8384,2.8109,2.7603,2.724,2.7069,2.6977,2.6876,2.6948,2.6955,2.6921,2.6975,2.7152,2.6394,2.6094,2.6148,2.5471,2.5233,2.528,2.528,2.529,2.533,2.534,2.5303,2.5208,2.5132,2.5036,2.4912,2.4902,2.4894,2.4844,2.4844,2.4893,2.5,2.5225,2.5439,2.5547,2.5674,2.5674,2.5654,2.5449,2.5205,2.4912,2.4648,2.4385,2.4121,2.4085,2.4212,2.4305,2.4311,2.415,2.3656,2.3169,2.2834,2.2475,2.2173,2.1876,2.1741,2.1623,2.1423,2.0578,1.9865,1.906,1.8219,1.7441,1.7119,1.7274,1.7397,1.746,1.7846,1.8265,1.8153,1.8006,1.8392,1.8752,1.8969,1.8928,1.7951,1.6737,1.5849,1.5382,2.732,2.732,2.732,2.732,2.732,2.732,2.732,2.732,2.7351,2.7531,2.7935,2.7917,2.8286,2.8763,2.8825,2.8804,2.8835,2.8845,2.8866,2.8607,2.8338,2.8162,2.7986,2.7562,2.7821,2.7893,2.8079,2.8442,2.8731,2.9011,2.9125,2.87,2.9145,2.9228,2.9001,2.8949,2.8765,2.8652,2.82,2.7922,2.7703,2.7552,2.733,2.72,2.7013,2.6895,2.7008,2.6814,2.6415,2.6642,2.662,2.6358,2.6328,2.627,2.6338,2.6338,2.62,2.6046,2.5873,2.5767,2.574,2.5654,2.5674,2.5538,2.5391,2.5264,2.5254,2.5273,2.5469,2.5557,2.5645,2.5684,2.5684,2.5684,2.5596,2.543,2.5264,2.5088,2.498,2.4795,2.4834,2.4884,2.4845,2.483,2.4762,2.4225,2.3883,2.3515,2.3076,2.2678,2.2247,2.1949,2.1832,2.1686,2.0994,2.0316,1.9766,1.9028,1.8132,1.7913,1.7994,1.8282,1.8577,1.8977,1.9401,1.9509,1.9523,1.9779,1.9991,2.0218,2.012,1.9721,1.8782,1.7648,1.6883,2.732,2.732,2.732,2.732,2.732,2.732,2.732,2.732,2.732,2.75,2.7862,2.7896,2.8131,2.8452,2.8493,2.8493,2.8524,2.8421,2.8587,2.8411,2.8059,2.7841,2.7821,2.7479,2.7589,2.779,2.7948,2.809,2.8483,2.8918,2.928,2.9177,2.9539,2.9632,2.9539,2.9528,2.9508,2.9446,2.9125,2.8556,2.8069,2.7862,2.7645,2.7455,2.7195,2.7185,2.7214,2.6972,2.6826,2.6842,2.664,2.6486,2.6486,2.6496,2.6496,2.6496,2.6544,2.6448,2.6294,2.6149,2.6062,2.5878,2.5732,2.5732,2.5635,2.5567,2.5538,2.5557,2.5586,2.5645,2.5684,2.5684,2.5684,2.5684,2.5684,2.5586,2.5499,2.5469,2.5421,2.5478,2.5498,2.5459,2.5343,2.5294,2.5178,2.5032,2.4894,2.452,2.4034,2.3582,2.2964,2.2589,2.2244,2.1906,2.1264,2.0677,2.0081,1.9494,1.8665,1.8621,1.8696,1.903,1.9334,1.9969,2.0409,2.0377,2.0491,2.0802,2.0988,2.1116,2.1071,2.0587,2.0395,1.9493,1.8759,2.732,2.732,2.732,2.732,2.732,2.732,2.732,2.732,2.732,2.7444,2.7603,2.7645,2.779,2.8017,2.8017,2.8069,2.8059,2.7997,2.7924,2.7862,2.7862,2.7665,2.75,2.7444,2.7465,2.7603,2.7634,2.78,2.8183,2.8659,2.899,2.9145,2.9591,2.9994,2.9994,2.9994,2.9994,2.9963,2.9694,2.9208,2.8504,2.8317,2.8162,2.7883,2.7686,2.7614,2.7421,2.7294,2.7215,2.7259,2.7245,2.7013,2.6951,2.6928,2.688,2.688,2.688,2.6736,2.6544,2.64,2.6304,2.612,2.6024,2.611,2.5917,2.5848,2.5703,2.5722,2.5684,2.5684,2.5684,2.5684,2.5684,2.5684,2.5684,2.5635,2.5606,2.5596,2.5577,2.5577,2.5586,2.5577,2.5528,2.5528,2.546,2.5391,2.5293,2.5088,2.4693,2.4436,2.38,2.3275,2.2944,2.2106,2.1245,2.0741,2.0273,1.9687,1.9146,1.8843,1.8779,1.9483,2.0101,2.051,2.082,2.0995,2.1149,2.1338,2.1472,2.1478,2.147,2.1337,2.1186,2.1042,2.0385,2.732,2.732,2.732,2.732,2.732,2.732,2.732,2.732,2.732,2.732,2.7351,2.7351,2.732,2.732,2.732,2.732,2.7382,2.7548,2.7444,2.7413,2.7403,2.7423,2.7413,2.733,2.7372,2.7423,2.7448,2.7479,2.7624,2.8359,2.8928,2.8918,2.9384,2.9994,2.9994,2.9994,2.9994,2.9994,2.986,2.9735,2.9342,2.8938,2.869,2.8462,2.8255,2.8028,2.7883,2.779,2.7728,2.772,2.7806,2.7589,2.7363,2.7239,2.7214,2.7214,2.7167,2.7034,2.689,2.6794,2.6651,2.6544,2.6554,2.642,2.6237,2.6072,2.5975,2.5839,2.5742,2.5684,2.5684,2.5684,2.5684,2.5684,2.5684,2.5684,2.5684,2.5684,2.5684,2.5684,2.5684,2.5684,2.5684,2.5684,2.5645,2.5586,2.5518,2.5303,2.5099,2.4994,2.4668,2.4162,2.3766,2.2792,2.1597,2.0934,2.0576,2.0031,1.9567,1.9054,1.8916,1.967,2.0327,2.072,2.1005,2.128,2.1425,2.1579,2.1687,2.1687,2.1642,2.1562,2.1553,2.1419,2.1553,2.732,2.732,2.732,2.732,2.732,2.732,2.732,2.732,2.732,2.732,2.732,2.732,2.732,2.732,2.732,2.732,2.732,2.732,2.732,2.733,2.732,2.732,2.732,2.732,2.732,2.7413,2.7541,2.7759,2.781,2.8597,2.9156,2.9187,2.9632,2.9984,2.9994,2.9994,2.9994,2.9994,2.9994,2.9891,2.9787,2.9394,2.897,2.8742,2.8535,2.8483,2.8442,2.8411,2.8411,2.8349,2.8183,2.7986,2.7779,2.7572,2.7527,2.7548,2.7527,2.7373,2.7259,2.7153,2.7087,2.6843,2.6804,2.6667,2.6502,2.6297,2.6151,2.5947,2.584,2.5742,2.5732,2.5684,2.5684,2.5684,2.5684,2.5684,2.5684,2.5684,2.5684,2.5684,2.5684,2.5684,2.5684,2.5684,2.5684,2.5635,2.5635,2.5508,2.5478,2.5411,2.5373,2.4948,2.4497,2.3709,2.2645,2.1588,2.1022,2.0475,1.993,1.9439,1.9375,1.9934,2.0484,2.0735,2.1193,2.1542,2.1687,2.1687,2.1687,2.1687,2.1687,2.1687,2.1687,2.1687,2.1687]}]]